Darstellungsparameter: Aktuell verwendete Einstellungen:
Skalierung der Graphiken ... ?
xyx+y,   Skalierungsfaktor:      Skalierung: Modus: x, Faktor: 1
Darstellungszeitraum ... ?
Vom - - bis: - -   Zeitraum: 25.02.2015 - 24.03.2015
Min/Max/Avg-Anzeige ... ?
Zeige MMA aktuell
Zeige MMA Monat
Zeige MMA alles
Zeige --A aktuell
Zeige --A Monat
Zeige --A alles
Keine MMA-Anzeige
MMA:
Average (ber die Originaldaten)
MMA-Basis: 25.02.2015 - 24.03.2015
Quicknavigation für Darstellung... ?
Tage:      1T, 2T, 3T, 5T -1T -2T -3T -5T +1T +2T +3T +5T
Wochen: 1W, 2W, 3W -1W -2W -3W +1W +2W +3W
Monate: 1M, 3M, 6M -1M -3M -6M +1M +3M +6M
Jahre:    1J, 3J, 5J, 10J -1J -3J -5J -10J +1J +3J +5J +10J
Nutze für die Darstellung ... ?
Originaldaten oder Mittelwerte auf ...
Stundenbasis Tagesbasis Wochenbasis
Monatsbasis Jahresbasis      Datenbasis: Original-Daten
Darstellen als:
Statistik (Auto) Statistik J:M      Darstellung:
Zur Graphik,    zurück zur Übersicht aller Sensoren.
 
Tabellarische Datenbersicht: ?
 
Sensor: Nr:Datum:Temp:Feuchte:
Aussen-T/F 1 25-02-2015 00:05:17 2.9 C 86 %
2 25-02-2015 00:17:17 2.8 C 86 %
3 25-02-2015 00:29:17 3 C 85 %
4 25-02-2015 00:41:17 2.6 C 85 %
5 25-02-2015 00:53:16 2.3 C 86 %
6 25-02-2015 01:05:17 1.9 C 87 %
7 25-02-2015 01:17:17 2 C 87 %
8 25-02-2015 01:29:17 2.3 C 88 %
9 25-02-2015 01:41:16 2.6 C 89 %
10 25-02-2015 01:53:17 2.8 C 89 %
11 25-02-2015 02:05:17 2.9 C 89 %
12 25-02-2015 02:17:17 2 C 87 %
13 25-02-2015 02:29:17 1.6 C 88 %
14 25-02-2015 02:41:17 2.3 C 89 %
15 25-02-2015 02:53:17 2.5 C 90 %
16 25-02-2015 03:05:17 2 C 90 %
17 25-02-2015 03:17:17 1.8 C 90 %
18 25-02-2015 03:29:18 1.7 C 91 %
19 25-02-2015 03:41:17 2 C 90 %
20 25-02-2015 03:53:17 2.3 C 91 %
21 25-02-2015 04:05:17 2.1 C 91 %
22 25-02-2015 04:17:17 2 C 90 %
23 25-02-2015 04:29:17 1.6 C 91 %
24 25-02-2015 04:41:17 1.3 C 90 %
25 25-02-2015 04:53:17 1.1 C 91 %
Sensor: Nr:Datum:Temp:Feuchte:
Aussen-T/F 26 25-02-2015 05:05:17 1.4 C 91 %
27 25-02-2015 05:17:17 1.3 C 92 %
28 25-02-2015 05:29:17 1.2 C 92 %
29 25-02-2015 05:41:17 0.8 C 92 %
30 25-02-2015 05:53:17 0.8 C 93 %
31 25-02-2015 06:05:17 1 C 92 %
32 25-02-2015 06:17:17 0.5 C 93 %
33 25-02-2015 06:29:17 0.2 C 92 %
34 25-02-2015 06:41:17 0.1 C 93 %
35 25-02-2015 06:53:17 0.2 C 93 %
36 25-02-2015 07:05:17 0 C 93 %
37 25-02-2015 07:17:17 -0.1 C 93 %
38 25-02-2015 07:29:17 -0.1 C 94 %
39 25-02-2015 07:41:17 -0.2 C 94 %
40 25-02-2015 07:53:17 -0.1 C 94 %
41 25-02-2015 08:05:17 0.2 C 94 %
42 25-02-2015 08:17:17 0.6 C 95 %
43 25-02-2015 08:29:17 0.8 C 95 %
44 25-02-2015 08:41:17 0.9 C 95 %
45 25-02-2015 08:53:17 1.1 C 95 %
46 25-02-2015 09:05:17 1.7 C 95 %
47 25-02-2015 09:17:17 2.1 C 94 %
48 25-02-2015 09:29:17 2.5 C 93 %
49 25-02-2015 09:41:17 3 C 90 %
50 25-02-2015 09:53:17 3.3 C 86 %
Sensor: Nr:Datum:Temp:Feuchte:
Aussen-T/F 51 25-02-2015 10:05:17 3.6 C 83 %
52 25-02-2015 10:17:17 3.7 C 79 %
53 25-02-2015 10:29:17 4 C 76 %
54 25-02-2015 10:41:17 4.1 C 74 %
55 25-02-2015 10:53:17 4.3 C 72 %
56 25-02-2015 11:05:17 4.4 C 71 %
57 25-02-2015 11:17:17 4.5 C 70 %
58 25-02-2015 11:29:17 5 C 67 %
59 25-02-2015 11:41:17 5.1 C 67 %
60 25-02-2015 11:53:17 5.3 C 66 %
61 25-02-2015 12:05:17 5.4 C 64 %
62 25-02-2015 12:17:17 5.6 C 64 %
63 25-02-2015 12:29:17 6 C 63 %
64 25-02-2015 12:41:18 6.3 C 62 %
65 25-02-2015 12:53:17 7.1 C 59 %
66 25-02-2015 13:05:17 7.3 C 59 %
67 25-02-2015 13:17:17 7.2 C 56 %
68 25-02-2015 13:29:17 7.2 C 56 %
69 25-02-2015 13:41:17 7.3 C 56 %
70 25-02-2015 13:53:17 7.2 C 57 %
71 25-02-2015 14:05:17 7.6 C 56 %
72 25-02-2015 14:17:17 7.5 C 55 %
73 25-02-2015 14:29:17 7.5 C 54 %
74 25-02-2015 14:41:17 7.5 C 54 %
75 25-02-2015 14:53:17 7.4 C 55 %
Sensor: Nr:Datum:Temp:Feuchte:
Aussen-T/F 76 25-02-2015 15:05:17 8 C 53 %
77 25-02-2015 15:17:17 7.8 C 53 %
78 25-02-2015 15:29:17 7.7 C 52 %
79 25-02-2015 15:41:17 7.5 C 54 %
80 25-02-2015 15:53:17 7.4 C 55 %
81 25-02-2015 16:05:17 7.2 C 55 %
82 25-02-2015 16:17:17 6.9 C 57 %
83 25-02-2015 16:29:17 6.6 C 57 %
84 25-02-2015 16:41:17 6.4 C 59 %
85 25-02-2015 16:53:17 6.1 C 62 %
86 25-02-2015 17:05:17 5.9 C 66 %
87 25-02-2015 17:17:17 5.6 C 72 %
88 25-02-2015 17:29:17 5.2 C 77 %
89 25-02-2015 17:41:17 5 C 80 %
90 25-02-2015 17:53:17 4.7 C 84 %
91 25-02-2015 18:05:17 4.6 C 87 %
92 25-02-2015 18:17:17 4.4 C 88 %
93 25-02-2015 18:29:17 4.2 C 89 %
94 25-02-2015 18:41:17 4.1 C 90 %
95 25-02-2015 18:53:17 4.1 C 91 %
96 25-02-2015 19:05:17 4 C 92 %
97 25-02-2015 19:17:17 3.8 C 93 %
98 25-02-2015 19:29:17 3.9 C 93 %
99 25-02-2015 19:41:17 3.9 C 94 %
100 25-02-2015 19:53:17 3.8 C 94 %
Sensor: Nr:Datum:Temp:Feuchte:
Aussen-T/F 101 25-02-2015 20:05:17 3.8 C 94 %
102 25-02-2015 20:17:17 3.8 C 94 %
103 25-02-2015 20:29:17 3.8 C 95 %
104 25-02-2015 20:41:17 3.7 C 95 %
105 25-02-2015 20:53:17 3.8 C 95 %
106 25-02-2015 21:05:17 3.8 C 95 %
107 25-02-2015 21:17:17 3.8 C 95 %
108 25-02-2015 21:29:17 4 C 95 %
109 25-02-2015 21:41:17 3.9 C 95 %
110 25-02-2015 21:53:17 3.9 C 95 %
111 25-02-2015 22:05:17 3.9 C 95 %
112 25-02-2015 22:17:16 3.8 C 95 %
113 25-02-2015 22:29:16 3.8 C 95 %
114 25-02-2015 22:41:17 3.8 C 95 %
115 25-02-2015 22:53:17 3.8 C 95 %
116 25-02-2015 23:05:17 3.9 C 95 %
117 25-02-2015 23:17:17 3.8 C 95 %
118 25-02-2015 23:29:17 3.9 C 95 %
119 25-02-2015 23:41:17 3.9 C 95 %
120 25-02-2015 23:53:17 3.9 C 95 %
121 26-02-2015 00:05:17 3.9 C 95 %
122 26-02-2015 00:17:17 3.9 C 95 %
123 26-02-2015 00:29:17 3.9 C 95 %
124 26-02-2015 00:41:17 3.9 C 95 %
125 26-02-2015 00:53:17 4 C 95 %
Sensor: Nr:Datum:Temp:Feuchte:
Aussen-T/F 126 26-02-2015 01:05:17 4 C 95 %
127 26-02-2015 01:17:17 4 C 95 %
128 26-02-2015 01:29:17 4.1 C 95 %
129 26-02-2015 01:41:18 4.1 C 95 %
130 26-02-2015 01:53:17 3.9 C 95 %
131 26-02-2015 02:05:17 3.9 C 95 %
132 26-02-2015 02:17:17 4 C 95 %
133 26-02-2015 02:29:17 4 C 95 %
134 26-02-2015 02:41:17 3.9 C 95 %
135 26-02-2015 02:53:17 3.7 C 95 %
136 26-02-2015 03:05:17 3.3 C 95 %
137 26-02-2015 03:17:17 3.1 C 95 %
138 26-02-2015 03:29:17 3 C 95 %
139 26-02-2015 03:41:17 3.2 C 95 %
140 26-02-2015 03:53:17 3.1 C 95 %
141 26-02-2015 04:05:17 3.1 C 95 %
142 26-02-2015 04:17:17 2.9 C 95 %
143 26-02-2015 04:29:17 2.9 C 95 %
144 26-02-2015 04:41:17 2.9 C 95 %
145 26-02-2015 04:53:17 2.6 C 95 %
146 26-02-2015 05:05:17 2.6 C 95 %
147 26-02-2015 05:17:17 2.9 C 95 %
148 26-02-2015 05:29:17 3.1 C 95 %
149 26-02-2015 05:41:17 3.1 C 95 %
150 26-02-2015 05:53:17 3 C 95 %
Sensor: Nr:Datum:Temp:Feuchte:
Aussen-T/F 151 26-02-2015 06:05:17 3.1 C 95 %
152 26-02-2015 06:17:16 3.2 C 95 %
153 26-02-2015 06:29:17 3.1 C 95 %
154 26-02-2015 06:41:17 2.8 C 95 %
155 26-02-2015 06:53:17 2.7 C 95 %
156 26-02-2015 07:05:17 2.6 C 95 %
157 26-02-2015 07:17:17 2.5 C 95 %
158 26-02-2015 07:29:17 2.6 C 95 %
159 26-02-2015 07:41:17 2.9 C 95 %
160 26-02-2015 07:53:17 2.7 C 95 %
161 26-02-2015 08:05:17 2.4 C 95 %
162 26-02-2015 08:17:17 2.6 C 95 %
163 26-02-2015 08:29:17 3.1 C 95 %
164 26-02-2015 08:41:17 3.1 C 95 %
165 26-02-2015 08:53:17 2.8 C 95 %
166 26-02-2015 09:05:17 2.9 C 95 %
167 26-02-2015 09:17:17 4 C 95 %
168 26-02-2015 09:29:17 4.5 C 95 %
169 26-02-2015 09:41:17 5.1 C 95 %
170 26-02-2015 09:53:17 5.5 C 95 %
171 26-02-2015 10:05:17 5.7 C 95 %
172 26-02-2015 10:17:17 5.9 C 95 %
173 26-02-2015 10:29:17 6.4 C 95 %
174 26-02-2015 10:41:17 6.8 C 95 %
175 26-02-2015 10:53:17 7.4 C 93 %
Sensor: Nr:Datum:Temp:Feuchte:
Aussen-T/F 176 26-02-2015 11:05:17 7.4 C 90 %
177 26-02-2015 11:17:17 7.8 C 85 %
178 26-02-2015 11:29:17 7.9 C 80 %
179 26-02-2015 11:41:17 7.8 C 73 %
180 26-02-2015 11:53:17 8.1 C 69 %
181 26-02-2015 12:05:17 7.8 C 70 %
182 26-02-2015 12:17:17 8 C 68 %
183 26-02-2015 12:29:17 8.2 C 68 %
184 26-02-2015 12:41:17 8.1 C 65 %
185 26-02-2015 12:53:17 8.1 C 65 %
186 26-02-2015 13:05:17 8 C 64 %
187 26-02-2015 13:17:17 8.3 C 65 %
188 26-02-2015 13:29:17 8.7 C 63 %
189 26-02-2015 13:41:17 9 C 63 %
190 26-02-2015 13:53:17 8.9 C 62 %
191 26-02-2015 14:05:17 8.7 C 62 %
192 26-02-2015 14:17:17 8.8 C 61 %
193 26-02-2015 14:29:18 9 C 62 %
194 26-02-2015 14:41:17 8.9 C 61 %
195 26-02-2015 14:53:17 9.1 C 61 %
196 26-02-2015 15:05:17 9.1 C 60 %
197 26-02-2015 15:17:17 9.3 C 58 %
198 26-02-2015 15:29:17 9.3 C 57 %
199 26-02-2015 15:41:17 9.2 C 58 %
200 26-02-2015 15:53:17 9 C 58 %
Sensor: Nr:Datum:Temp:Feuchte:
Aussen-T/F 201 26-02-2015 16:05:17 9 C 58 %
202 26-02-2015 16:17:17 8.8 C 60 %
203 26-02-2015 16:29:17 8.7 C 60 %
204 26-02-2015 16:41:17 8.5 C 60 %
205 26-02-2015 16:53:17 8.3 C 63 %
206 26-02-2015 17:05:18 8 C 64 %
207 26-02-2015 17:17:17 7.9 C 64 %
208 26-02-2015 17:29:17 7.6 C 65 %
209 26-02-2015 17:41:17 7.3 C 70 %
210 26-02-2015 17:53:17 7.1 C 72 %
211 26-02-2015 18:05:17 6.9 C 74 %
212 26-02-2015 18:17:17 6.7 C 75 %
213 26-02-2015 18:29:17 6.4 C 76 %
214 26-02-2015 18:41:17 6.3 C 78 %
215 26-02-2015 18:53:17 6.3 C 79 %
216 26-02-2015 19:05:17 6.3 C 80 %
217 26-02-2015 19:17:17 6.3 C 79 %
218 26-02-2015 19:29:17 6.2 C 79 %
219 26-02-2015 19:41:17 6.2 C 80 %
220 26-02-2015 19:53:17 6.1 C 80 %
221 26-02-2015 20:05:17 6.2 C 80 %
222 26-02-2015 20:17:17 6.1 C 80 %
223 26-02-2015 20:29:17 6.2 C 80 %
224 26-02-2015 20:41:17 6.2 C 79 %
225 26-02-2015 20:53:17 6.2 C 80 %
Sensor: Nr:Datum:Temp:Feuchte:
Aussen-T/F 226 26-02-2015 21:05:17 6.2 C 79 %
227 26-02-2015 21:17:17 6.3 C 79 %
228 26-02-2015 21:29:17 6.2 C 79 %
229 26-02-2015 21:41:17 6.3 C 79 %
230 26-02-2015 21:53:17 6.3 C 79 %
231 26-02-2015 22:05:18 6.3 C 79 %
232 26-02-2015 22:17:17 6.3 C 79 %
233 26-02-2015 22:29:17 6.3 C 79 %
234 26-02-2015 22:41:18 6.3 C 78 %
235 26-02-2015 22:53:17 6.4 C 76 %
236 26-02-2015 23:05:17 6.3 C 78 %
237 26-02-2015 23:17:17 6.2 C 80 %
238 26-02-2015 23:29:18 6 C 83 %
239 26-02-2015 23:41:17 5.8 C 86 %
240 26-02-2015 23:53:16 5.8 C 88 %
241 27-02-2015 00:05:17 5.8 C 89 %
242 27-02-2015 00:17:17 5.7 C 90 %
243 27-02-2015 00:29:17 5.6 C 91 %
244 27-02-2015 00:41:17 5.6 C 91 %
245 27-02-2015 00:53:17 5.6 C 92 %
246 27-02-2015 01:05:17 5.6 C 92 %
247 27-02-2015 01:17:17 5.6 C 92 %
248 27-02-2015 01:29:18 5.6 C 93 %
249 27-02-2015 01:41:17 5.6 C 93 %
250 27-02-2015 01:53:17 5.6 C 93 %
Sensor: Nr:Datum:Temp:Feuchte:
Aussen-T/F 251 27-02-2015 02:05:17 5.5 C 93 %
252 27-02-2015 02:17:17 5.5 C 93 %
253 27-02-2015 02:29:17 5.5 C 94 %
254 27-02-2015 02:41:17 5.5 C 94 %
255 27-02-2015 02:53:17 5.4 C 94 %
256 27-02-2015 03:05:17 5.5 C 94 %
257 27-02-2015 03:17:17 5.5 C 94 %
258 27-02-2015 03:29:17 5.6 C 94 %
259 27-02-2015 03:41:17 5.5 C 94 %
260 27-02-2015 03:53:17 5.5 C 94 %
261 27-02-2015 04:05:17 5.4 C 95 %
262 27-02-2015 04:17:17 5.4 C 95 %
263 27-02-2015 04:29:17 5.4 C 95 %
264 27-02-2015 04:41:17 5.4 C 95 %
265 27-02-2015 04:53:17 5.3 C 95 %
266 27-02-2015 05:05:17 5.3 C 95 %
267 27-02-2015 05:17:17 5.3 C 95 %
268 27-02-2015 05:29:17 5.3 C 95 %
269 27-02-2015 05:41:17 5.3 C 95 %
270 27-02-2015 05:53:17 5.3 C 95 %
271 27-02-2015 06:05:17 5.3 C 95 %
272 27-02-2015 06:17:17 5.2 C 95 %
273 27-02-2015 06:29:17 5.2 C 95 %
274 27-02-2015 06:41:17 5.2 C 95 %
275 27-02-2015 06:53:17 5.2 C 95 %
Sensor: Nr:Datum:Temp:Feuchte:
Aussen-T/F 276 27-02-2015 07:05:17 5.3 C 95 %
277 27-02-2015 07:17:17 5.3 C 95 %
278 27-02-2015 07:29:17 5.4 C 95 %
279 27-02-2015 07:41:17 5.5 C 95 %
280 27-02-2015 07:53:17 5.2 C 95 %
281 27-02-2015 08:05:17 4.9 C 95 %
282 27-02-2015 08:17:16 4.7 C 95 %
283 27-02-2015 08:29:17 4.5 C 95 %
284 27-02-2015 08:41:17 4.5 C 95 %
285 27-02-2015 08:53:17 4.4 C 95 %
286 27-02-2015 09:05:17 4.2 C 94 %
287 27-02-2015 09:17:17 4.1 C 93 %
288 27-02-2015 09:29:17 4.2 C 93 %
289 27-02-2015 09:41:17 4.2 C 93 %
290 27-02-2015 09:53:16 4.4 C 92 %
291 27-02-2015 10:05:18 4.5 C 92 %
292 27-02-2015 10:17:17 4.8 C 91 %
293 27-02-2015 10:29:17 5 C 88 %
294 27-02-2015 10:41:17 5 C 86 %
295 27-02-2015 10:53:17 5 C 85 %
296 27-02-2015 11:05:17 5.2 C 84 %
297 27-02-2015 11:17:17 5.3 C 84 %
298 27-02-2015 11:29:17 5.4 C 84 %
299 27-02-2015 11:41:17 5.6 C 83 %
300 27-02-2015 11:53:17 5.7 C 83 %
Sensor: Nr:Datum:Temp:Feuchte:
Aussen-T/F 301 27-02-2015 12:05:17 5.8 C 82 %
302 27-02-2015 12:17:17 6.1 C 80 %
303 27-02-2015 12:29:17 6.2 C 77 %
304 27-02-2015 12:41:17 6.2 C 75 %
305 27-02-2015 12:53:17 6.2 C 74 %
306 27-02-2015 13:05:17 6 C 74 %
307 27-02-2015 13:17:17 5.9 C 74 %
308 27-02-2015 13:29:17 5.8 C 74 %
309 27-02-2015 13:41:17 5.9 C 75 %
310 27-02-2015 13:53:17 5.9 C 75 %
311 27-02-2015 14:05:17 5.8 C 75 %
312 27-02-2015 14:17:17 5.6 C 74 %
313 27-02-2015 14:29:17 5.5 C 74 %
314 27-02-2015 14:41:17 5.8 C 73 %
315 27-02-2015 14:53:17 5.8 C 72 %
316 27-02-2015 15:05:17 5.8 C 72 %
317 27-02-2015 15:17:17 5.6 C 73 %
318 27-02-2015 15:29:17 5.5 C 75 %
319 27-02-2015 15:41:17 5.5 C 76 %
320 27-02-2015 15:53:17 5.7 C 73 %
321 27-02-2015 16:05:17 5.6 C 72 %
322 27-02-2015 16:17:17 5.5 C 73 %
323 27-02-2015 16:29:18 5.5 C 71 %
324 27-02-2015 16:41:17 5.4 C 70 %
325 27-02-2015 16:53:17 5.5 C 70 %
Sensor: Nr:Datum:Temp:Feuchte:
Aussen-T/F 326 27-02-2015 17:05:17 5.5 C 70 %
327 27-02-2015 17:17:17 5.3 C 70 %
328 27-02-2015 17:29:17 5.4 C 71 %
329 27-02-2015 17:41:17 5.3 C 71 %
330 27-02-2015 17:53:17 5.2 C 72 %
331 27-02-2015 18:05:17 4.9 C 75 %
332 27-02-2015 18:17:17 4.7 C 76 %
333 27-02-2015 18:29:17 4.5 C 77 %
334 27-02-2015 18:41:17 4.7 C 77 %
335 27-02-2015 18:53:17 4.4 C 77 %
336 27-02-2015 19:05:17 4.3 C 78 %
337 27-02-2015 19:17:17 4.1 C 79 %
338 27-02-2015 19:29:17 4 C 78 %
339 27-02-2015 19:41:17 3.7 C 80 %
340 27-02-2015 19:53:17 3.5 C 80 %
341 27-02-2015 20:05:17 3.2 C 81 %
342 27-02-2015 20:17:17 3.1 C 82 %
343 27-02-2015 20:29:17 3.1 C 82 %
344 27-02-2015 20:41:17 2.9 C 83 %
345 27-02-2015 20:53:17 2.8 C 83 %
346 27-02-2015 21:05:17 3 C 83 %
347 27-02-2015 21:17:17 2.5 C 83 %
348 27-02-2015 21:29:17 2 C 84 %
349 27-02-2015 21:41:17 1.9 C 86 %
350 27-02-2015 21:53:17 2.3 C 87 %
Sensor: Nr:Datum:Temp:Feuchte:
Aussen-T/F 351 27-02-2015 22:05:17 2.3 C 87 %
352 27-02-2015 22:17:17 2.2 C 87 %
353 27-02-2015 22:29:17 2.3 C 87 %
354 27-02-2015 22:41:17 2.1 C 87 %
355 27-02-2015 22:53:17 2 C 87 %
356 27-02-2015 23:05:17 1.8 C 87 %
357 27-02-2015 23:17:17 2 C 86 %
358 27-02-2015 23:29:17 1.8 C 86 %
359 27-02-2015 23:41:17 1.4 C 86 %
360 27-02-2015 23:53:17 1.8 C 87 %
361 28-02-2015 00:05:17 2.1 C 86 %
362 28-02-2015 00:17:17 2.3 C 86 %
363 28-02-2015 00:29:17 2.6 C 84 %
364 28-02-2015 00:41:18 2.5 C 83 %
365 28-02-2015 00:53:17 1.8 C 83 %
366 28-02-2015 01:05:17 1.2 C 83 %
367 28-02-2015 01:17:17 0.7 C 85 %
368 28-02-2015 01:29:17 0.5 C 86 %
369 28-02-2015 01:41:17 0.2 C 88 %
370 28-02-2015 01:53:17 0 C 88 %
371 28-02-2015 02:05:17 -0.1 C 89 %
372 28-02-2015 02:17:17 -0.4 C 90 %
373 28-02-2015 02:29:17 -0.1 C 91 %
374 28-02-2015 02:41:16 -0.2 C 91 %
375 28-02-2015 02:53:17 -0.5 C 92 %
Sensor: Nr:Datum:Temp:Feuchte:
Aussen-T/F 376 28-02-2015 03:05:17 -0.5 C 92 %
377 28-02-2015 03:17:17 -0.6 C 92 %
378 28-02-2015 03:29:17 -0.6 C 93 %
379 28-02-2015 03:41:17 -0.7 C 93 %
380 28-02-2015 03:53:17 -0.6 C 93 %
381 28-02-2015 04:05:17 -0.7 C 93 %
382 28-02-2015 04:17:17 -0.9 C 94 %
383 28-02-2015 04:29:17 -0.9 C 94 %
384 28-02-2015 04:41:17 -0.8 C 94 %
385 28-02-2015 04:53:17 -0.9 C 94 %
386 28-02-2015 05:05:17 -0.9 C 94 %
387 28-02-2015 05:17:17 -0.9 C 94 %
388 28-02-2015 05:29:17 -1.1 C 94 %
389 28-02-2015 05:41:17 -0.9 C 94 %
390 28-02-2015 05:53:17 -0.9 C 95 %
391 28-02-2015 06:05:17 -0.9 C 95 %
392 28-02-2015 06:17:17 -0.9 C 95 %
393 28-02-2015 06:29:17 -1 C 95 %
394 28-02-2015 06:41:17 -0.9 C 95 %
395 28-02-2015 06:53:17 -1.1 C 95 %
396 28-02-2015 07:05:17 -1 C 95 %
397 28-02-2015 07:17:17 -1.2 C 95 %
398 28-02-2015 07:29:17 -1.1 C 95 %
399 28-02-2015 07:41:17 -1 C 95 %
400 28-02-2015 07:53:17 -1 C 95 %
Sensor: Nr:Datum:Temp:Feuchte:
Aussen-T/F 401 28-02-2015 08:05:17 -0.9 C 95 %
402 28-02-2015 08:17:17 -1 C 95 %
403 28-02-2015 08:29:17 -0.9 C 95 %
404 28-02-2015 08:41:17 -1 C 95 %
405 28-02-2015 08:53:17 -0.5 C 95 %
406 28-02-2015 09:05:17 -0.5 C 95 %
407 28-02-2015 09:17:17 -0.3 C 95 %
408 28-02-2015 09:29:17 -0.1 C 95 %
409 28-02-2015 09:41:17 0.3 C 95 %
410 28-02-2015 09:53:17 0.1 C 95 %
411 28-02-2015 10:05:16 0.4 C 95 %
412 28-02-2015 10:17:17 0.6 C 95 %
413 28-02-2015 10:29:17 0.8 C 95 %
414 28-02-2015 10:41:17 1 C 95 %
415 28-02-2015 10:53:17 1.2 C 94 %
416 28-02-2015 11:05:17 1.5 C 94 %
417 28-02-2015 11:17:17 1.8 C 93 %
418 28-02-2015 11:29:17 1.8 C 92 %
419 28-02-2015 11:41:17 2.2 C 91 %
420 28-02-2015 11:53:17 2.8 C 90 %
421 28-02-2015 12:05:17 3.3 C 88 %
422 28-02-2015 12:17:17 4 C 84 %
423 28-02-2015 12:29:17 4.5 C 70 %
424 28-02-2015 12:41:17 5.1 C 58 %
425 28-02-2015 12:53:17 5.1 C 55 %
Sensor: Nr:Datum:Temp:Feuchte:
Aussen-T/F 426 28-02-2015 13:05:17 5.3 C 55 %
427 28-02-2015 13:17:17 5.7 C 54 %
428 28-02-2015 13:29:17 5.7 C 53 %
429 28-02-2015 13:41:17 5.9 C 52 %
430 28-02-2015 13:53:17 6.2 C 51 %
431 28-02-2015 14:05:17 6.2 C 51 %
432 28-02-2015 14:17:17 6.4 C 51 %
433 28-02-2015 14:29:17 6.5 C 51 %
434 28-02-2015 14:41:17 6.5 C 51 %
435 28-02-2015 14:53:17 6.6 C 51 %
436 28-02-2015 15:05:17 6.9 C 50 %
437 28-02-2015 15:17:17 6.9 C 49 %
438 28-02-2015 15:29:17 7.1 C 46 %
439 28-02-2015 15:41:17 7.4 C 44 %
440 28-02-2015 15:53:17 7.4 C 44 %
441 28-02-2015 16:05:17 7.7 C 45 %
442 28-02-2015 16:17:17 7.7 C 44 %
443 28-02-2015 16:29:17 8 C 41 %
444 28-02-2015 16:41:17 8.1 C 43 %
445 28-02-2015 16:53:17 8 C 43 %
446 28-02-2015 17:05:17 7.7 C 47 %
447 28-02-2015 17:17:17 7.3 C 46 %
448 28-02-2015 17:29:18 6.4 C 52 %
449 28-02-2015 17:41:17 4.7 C 60 %
450 28-02-2015 17:53:17 4.1 C 64 %
Sensor: Nr:Datum:Temp:Feuchte:
Aussen-T/F 451 28-02-2015 18:05:17 3.5 C 68 %
452 28-02-2015 18:17:17 3.1 C 69 %
453 28-02-2015 18:29:17 2.9 C 72 %
454 28-02-2015 18:41:17 2.5 C 73 %
455 28-02-2015 18:53:17 2.3 C 74 %
456 28-02-2015 19:05:17 2.4 C 75 %
457 28-02-2015 19:17:17 2.1 C 75 %
458 28-02-2015 19:29:17 2.1 C 76 %
459 28-02-2015 19:41:17 1.8 C 77 %
460 28-02-2015 19:53:17 1.8 C 78 %
461 28-02-2015 20:05:17 1.8 C 78 %
462 28-02-2015 20:17:17 1.6 C 78 %
463 28-02-2015 20:29:17 1.5 C 78 %
464 28-02-2015 20:41:17 1.5 C 78 %
465 28-02-2015 20:53:17 1.4 C 77 %
466 28-02-2015 21:05:17 1.4 C 77 %
467 28-02-2015 21:17:17 1.5 C 78 %
468 28-02-2015 21:29:17 1.3 C 77 %
469 28-02-2015 21:41:17 1.5 C 78 %
470 28-02-2015 21:53:17 1.5 C 77 %
471 28-02-2015 22:05:17 1.7 C 77 %
472 28-02-2015 22:17:17 1.8 C 75 %
473 28-02-2015 22:29:17 1.8 C 74 %
474 28-02-2015 22:41:17 2.3 C 72 %
475 28-02-2015 22:53:17 2.6 C 69 %
Sensor: Nr:Datum:Temp:Feuchte:
Aussen-T/F 476 28-02-2015 23:05:17 3.1 C 64 %
477 28-02-2015 23:17:17 2.8 C 66 %
478 28-02-2015 23:29:17 3.5 C 61 %
479 28-02-2015 23:41:17 3.6 C 60 %
480 28-02-2015 23:53:17 3.5 C 60 %
481 01-03-2015 00:05:17 3.2 C 62 %
482 01-03-2015 00:17:17 3.3 C 62 %
483 01-03-2015 00:29:17 3.2 C 64 %
484 01-03-2015 00:41:17 3.4 C 63 %
485 01-03-2015 00:53:17 3.4 C 65 %
486 01-03-2015 01:05:17 3.5 C 62 %
487 01-03-2015 01:17:17 3.4 C 64 %
488 01-03-2015 01:29:17 3.9 C 58 %
489 01-03-2015 01:41:17 4.1 C 56 %
490 01-03-2015 01:53:17 4 C 57 %
491 01-03-2015 02:05:17 4.3 C 56 %
492 01-03-2015 02:17:17 4.2 C 56 %
493 01-03-2015 02:29:17 4.2 C 58 %
494 01-03-2015 02:41:17 4.4 C 57 %
495 01-03-2015 02:53:17 4.4 C 57 %
496 01-03-2015 03:05:17 4.3 C 57 %
497 01-03-2015 03:17:17 4.6 C 56 %
498 01-03-2015 03:29:17 4.5 C 58 %
499 01-03-2015 03:41:17 4.2 C 65 %
500 01-03-2015 03:53:17 3.9 C 74 %
Sensor: Nr:Datum:Temp:Feuchte:
Aussen-T/F 501 01-03-2015 04:05:17 3.8 C 79 %
502 01-03-2015 04:17:17 3.8 C 82 %
503 01-03-2015 04:29:17 3.8 C 84 %
504 01-03-2015 04:41:17 3.8 C 86 %
505 01-03-2015 04:53:17 3.7 C 87 %
506 01-03-2015 05:05:17 3.6 C 88 %
507 01-03-2015 05:17:17 3.5 C 89 %
508 01-03-2015 05:29:17 3.6 C 90 %
509 01-03-2015 05:41:17 3.6 C 91 %
510 01-03-2015 05:53:17 3.7 C 91 %
511 01-03-2015 06:05:17 3.7 C 92 %
512 01-03-2015 06:17:17 3.8 C 92 %
513 01-03-2015 06:29:17 4 C 91 %
514 01-03-2015 06:41:17 4 C 91 %
515 01-03-2015 06:53:17 4.1 C 91 %
516 01-03-2015 07:05:17 4.2 C 91 %
517 01-03-2015 07:17:17 4.2 C 91 %
518 01-03-2015 07:29:17 4.3 C 92 %
519 01-03-2015 07:41:17 4.4 C 92 %
520 01-03-2015 07:53:17 4.5 C 92 %
521 01-03-2015 08:05:17 4.6 C 93 %
522 01-03-2015 08:17:16 5.2 C 92 %
523 01-03-2015 08:29:16 5.5 C 91 %
524 01-03-2015 08:41:17 5.8 C 90 %
525 01-03-2015 08:53:17 6 C 88 %
Sensor: Nr:Datum:Temp:Feuchte:
Aussen-T/F 526 01-03-2015 09:05:17 6.3 C 87 %
527 01-03-2015 09:17:17 6.7 C 85 %
528 01-03-2015 09:29:17 6.9 C 83 %
529 01-03-2015 09:41:17 6.9 C 82 %
530 01-03-2015 09:53:17 6.9 C 82 %
531 01-03-2015 10:05:17 7 C 83 %
532 01-03-2015 10:17:17 7.3 C 83 %
533 01-03-2015 10:29:17 8 C 81 %
534 01-03-2015 10:41:17 8.5 C 78 %
535 01-03-2015 10:53:17 8.6 C 75 %
536 01-03-2015 11:05:17 8.5 C 74 %
537 01-03-2015 11:17:17 8.7 C 73 %
538 01-03-2015 11:29:17 8.8 C 74 %
539 01-03-2015 11:41:17 9 C 72 %
540 01-03-2015 11:53:16 9.2 C 72 %
541 01-03-2015 12:05:16 9.7 C 70 %
542 01-03-2015 12:17:17 10.1 C 68 %
543 01-03-2015 12:29:17 10.3 C 66 %
544 01-03-2015 12:41:17 10.6 C 65 %
545 01-03-2015 12:53:17 10.8 C 65 %
546 01-03-2015 13:05:17 11.4 C 64 %
547 01-03-2015 13:17:17 11.1 C 60 %
548 01-03-2015 13:29:17 11 C 50 %
549 01-03-2015 13:41:17 10.8 C 49 %
550 01-03-2015 13:53:17 11.1 C 50 %
Sensor: Nr:Datum:Temp:Feuchte:
Aussen-T/F 551 01-03-2015 14:05:17 10.9 C 50 %
552 01-03-2015 14:17:17 11 C 49 %
553 01-03-2015 14:29:17 11.1 C 48 %
554 01-03-2015 14:41:17 11.2 C 48 %
555 01-03-2015 14:53:17 11.3 C 48 %
556 01-03-2015 15:05:17 11.1 C 48 %
557 01-03-2015 15:17:17 10.8 C 51 %
558 01-03-2015 15:29:17 10.8 C 53 %
559 01-03-2015 15:41:17 11.8 C 52 %
560 01-03-2015 15:53:17 12.2 C 50 %
561 01-03-2015 16:05:18 11.8 C 50 %
562 01-03-2015 16:17:17 11.2 C 52 %
563 01-03-2015 16:29:17 11.3 C 52 %
564 01-03-2015 16:41:17 11.2 C 52 %
565 01-03-2015 16:53:17 10.9 C 53 %
566 01-03-2015 17:05:18 10.8 C 52 %
567 01-03-2015 17:17:17 10.7 C 52 %
568 01-03-2015 17:29:17 9.1 C 65 %
569 01-03-2015 17:41:17 8.6 C 71 %
570 01-03-2015 17:53:17 8.6 C 72 %
571 01-03-2015 18:05:17 8.5 C 73 %
572 01-03-2015 18:17:17 8 C 75 %
573 01-03-2015 18:29:17 7.8 C 77 %
574 01-03-2015 18:41:17 7.7 C 76 %
575 01-03-2015 18:53:17 7.5 C 76 %
Sensor: Nr:Datum:Temp:Feuchte:
Aussen-T/F 576 01-03-2015 19:05:17 7.6 C 77 %
577 01-03-2015 19:17:17 7.6 C 75 %
578 01-03-2015 19:29:17 7.5 C 75 %
579 01-03-2015 19:41:17 7.5 C 75 %
580 01-03-2015 19:53:17 7.6 C 73 %
581 01-03-2015 20:05:17 7.8 C 70 %
582 01-03-2015 20:17:17 7.9 C 68 %
583 01-03-2015 20:29:17 8 C 67 %
584 01-03-2015 20:41:17 8.4 C 63 %
585 01-03-2015 20:53:17 8.4 C 63 %
586 01-03-2015 21:05:18 8.3 C 63 %
587 01-03-2015 21:17:17 8.4 C 63 %
588 01-03-2015 21:29:17 8.5 C 63 %
589 01-03-2015 21:41:17 8.5 C 64 %
590 01-03-2015 21:53:17 8.3 C 66 %
591 01-03-2015 22:05:17 8.5 C 66 %
592 01-03-2015 22:17:17 8.8 C 65 %
593 01-03-2015 22:29:17 8.7 C 66 %
594 01-03-2015 22:41:17 9.2 C 63 %
595 01-03-2015 22:53:17 9.4 C 62 %
596 01-03-2015 23:05:17 9.3 C 62 %
597 01-03-2015 23:17:17 9.3 C 62 %
598 01-03-2015 23:29:17 9.3 C 61 %
599 01-03-2015 23:41:17 9.1 C 62 %
600 01-03-2015 23:53:17 9.1 C 62 %
Sensor: Nr:Datum:Temp:Feuchte:
Aussen-T/F 601 02-03-2015 00:05:17 9 C 64 %
602 02-03-2015 00:17:17 9 C 63 %
603 02-03-2015 00:29:17 8.9 C 65 %
604 02-03-2015 00:41:17 9.2 C 64 %
605 02-03-2015 00:53:17 9.1 C 65 %
606 02-03-2015 01:05:17 8.8 C 70 %
607 02-03-2015 01:17:17 8.7 C 74 %
608 02-03-2015 01:29:17 8.3 C 76 %
609 02-03-2015 01:41:17 8.3 C 77 %
610 02-03-2015 01:53:17 8.5 C 77 %
611 02-03-2015 02:05:17 8.8 C 75 %
612 02-03-2015 02:17:17 8.9 C 72 %
613 02-03-2015 02:29:17 9 C 69 %
614 02-03-2015 02:41:17 9 C 69 %
615 02-03-2015 02:53:17 7.9 C 72 %
616 02-03-2015 03:05:17 7.3 C 68 %
617 02-03-2015 03:17:17 7.2 C 68 %
618 02-03-2015 03:29:17 7.1 C 67 %
619 02-03-2015 03:41:17 7.1 C 66 %
620 02-03-2015 03:53:18 7 C 66 %
621 02-03-2015 04:05:17 6.8 C 65 %
622 02-03-2015 04:17:17 6.7 C 65 %
623 02-03-2015 04:29:17 6.5 C 67 %
624 02-03-2015 04:41:17 6.3 C 68 %
625 02-03-2015 04:53:17 6.3 C 67 %
Sensor: Nr:Datum:Temp:Feuchte:
Aussen-T/F 626 02-03-2015 05:05:17 6.3 C 69 %
627 02-03-2015 05:17:17 6 C 69 %
628 02-03-2015 05:29:17 6.2 C 68 %
629 02-03-2015 05:41:17 6.1 C 67 %
630 02-03-2015 05:53:17 6.2 C 66 %
631 02-03-2015 06:05:17 6.1 C 67 %
632 02-03-2015 06:17:17 6.1 C 64 %
633 02-03-2015 06:29:17 5.9 C 64 %
634 02-03-2015 06:41:17 5.6 C 65 %
635 02-03-2015 06:53:17 5.8 C 64 %
636 02-03-2015 07:05:17 5.5 C 66 %
637 02-03-2015 07:17:17 5.7 C 65 %
638 02-03-2015 07:29:17 5.1 C 71 %
639 02-03-2015 07:41:17 4.9 C 76 %
640 02-03-2015 07:53:17 4.7 C 77 %
641 02-03-2015 08:05:17 4.7 C 77 %
642 02-03-2015 08:17:17 4.9 C 76 %
643 02-03-2015 08:29:17 5 C 72 %
644 02-03-2015 08:41:17 5.3 C 71 %
645 02-03-2015 08:53:17 5.2 C 68 %
646 02-03-2015 09:05:17 4.8 C 73 %
647 02-03-2015 09:17:17 4.4 C 77 %
648 02-03-2015 09:29:17 4.3 C 79 %
649 02-03-2015 09:41:17 4.4 C 81 %
650 02-03-2015 09:53:17 4.7 C 80 %
Sensor: Nr:Datum:Temp:Feuchte:
Aussen-T/F 651 02-03-2015 10:05:17 5 C 76 %
652 02-03-2015 10:17:17 5 C 74 %
653 02-03-2015 10:29:17 5.5 C 72 %
654 02-03-2015 10:41:17 5.9 C 70 %
655 02-03-2015 10:53:16 6.2 C 66 %
656 02-03-2015 11:05:17 6.4 C 61 %
657 02-03-2015 11:17:17 6.4 C 61 %
658 02-03-2015 11:29:17 6.4 C 59 %
659 02-03-2015 11:41:17 6.7 C 59 %
660 02-03-2015 11:53:16 7.3 C 56 %
661 02-03-2015 12:05:17 7.9 C 52 %
662 02-03-2015 12:17:17 7.9 C 49 %
663 02-03-2015 12:29:17 7.6 C 48 %
664 02-03-2015 12:41:17 8.1 C 46 %
665 02-03-2015 12:53:17 8.4 C 44 %
666 02-03-2015 13:05:17 8.7 C 45 %
667 02-03-2015 13:17:17 9.1 C 44 %
668 02-03-2015 13:29:17 9 C 41 %
669 02-03-2015 13:41:17 9.1 C 40 %
670 02-03-2015 13:53:17 9.1 C 41 %
671 02-03-2015 14:05:16 9.1 C 41 %
672 02-03-2015 14:17:17 9 C 40 %
673 02-03-2015 14:29:17 8.8 C 40 %
674 02-03-2015 14:41:17 9.3 C 38 %
675 02-03-2015 14:53:17 9.3 C 38 %
Sensor: Nr:Datum:Temp:Feuchte:
Aussen-T/F 676 02-03-2015 15:05:17 9.1 C 36 %
677 02-03-2015 15:17:17 9.1 C 36 %
678 02-03-2015 15:29:17 9.1 C 37 %
679 02-03-2015 15:41:17 8.6 C 41 %
680 02-03-2015 15:53:17 8.4 C 42 %
681 02-03-2015 16:05:17 8.2 C 45 %
682 02-03-2015 16:17:17 6.3 C 59 %
683 02-03-2015 16:29:17 3.7 C 75 %
684 02-03-2015 16:41:17 4.2 C 81 %
685 02-03-2015 16:53:17 5 C 80 %
686 02-03-2015 17:05:17 5 C 78 %
687 02-03-2015 17:17:17 5.3 C 77 %
688 02-03-2015 17:29:17 5.4 C 75 %
689 02-03-2015 17:41:17 3.2 C 75 %
690 02-03-2015 17:53:17 2.2 C 82 %
691 02-03-2015 18:05:17 2.7 C 84 %
692 02-03-2015 18:17:17 2.7 C 85 %
693 02-03-2015 18:29:17 3 C 82 %
694 02-03-2015 18:41:17 3.2 C 79 %
695 02-03-2015 18:53:17 3.1 C 80 %
696 02-03-2015 19:05:17 2.9 C 82 %
697 02-03-2015 19:17:17 2.7 C 84 %
698 02-03-2015 19:29:17 2.3 C 85 %
699 02-03-2015 19:41:17 1.8 C 87 %
700 02-03-2015 19:53:17 2 C 89 %
Sensor: Nr:Datum:Temp:Feuchte:
Aussen-T/F 701 02-03-2015 20:05:17 2.1 C 90 %
702 02-03-2015 20:17:17 2.3 C 90 %
703 02-03-2015 20:29:17 2.6 C 89 %
704 02-03-2015 20:41:17 2.5 C 86 %
705 02-03-2015 20:53:17 1.7 C 87 %
706 02-03-2015 21:05:17 1.7 C 88 %
707 02-03-2015 21:17:17 1.9 C 88 %
708 02-03-2015 21:29:17 2 C 87 %
709 02-03-2015 21:41:17 2.2 C 88 %
710 02-03-2015 21:53:17 2.2 C 87 %
711 02-03-2015 22:05:17 2 C 87 %
712 02-03-2015 22:17:17 1.9 C 88 %
713 02-03-2015 22:29:17 1.9 C 89 %
714 02-03-2015 22:41:17 1.6 C 89 %
715 02-03-2015 22:53:17 1.6 C 90 %
716 02-03-2015 23:05:17 1.5 C 91 %
717 02-03-2015 23:17:17 1.5 C 91 %
718 02-03-2015 23:29:17 1.6 C 92 %
719 02-03-2015 23:41:17 1.4 C 91 %
720 02-03-2015 23:53:17 1.6 C 91 %
721 03-03-2015 00:06:17 1.6 C 91 %
722 03-03-2015 00:18:17 1.7 C 90 %
723 03-03-2015 00:30:17 2 C 88 %
724 03-03-2015 00:42:17 2.1 C 86 %
725 03-03-2015 00:54:17 2.1 C 84 %
Sensor: Nr:Datum:Temp:Feuchte:
Aussen-T/F 726 03-03-2015 01:06:17 2.4 C 82 %
727 03-03-2015 01:18:17 2.2 C 79 %
728 03-03-2015 01:30:17 2 C 79 %
729 03-03-2015 01:42:17 2.7 C 77 %
730 03-03-2015 01:54:17 2.6 C 73 %
731 03-03-2015 02:06:17 2.7 C 73 %
732 03-03-2015 02:18:17 2.5 C 73 %
733 03-03-2015 02:30:17 2.1 C 73 %
734 03-03-2015 02:42:17 1.7 C 77 %
735 03-03-2015 02:54:17 1.8 C 78 %
736 03-03-2015 03:06:18 2 C 76 %
737 03-03-2015 03:18:18 1.8 C 77 %
738 03-03-2015 03:30:18 1.5 C 78 %
739 03-03-2015 03:42:18 1.4 C 79 %
740 03-03-2015 03:54:18 1.1 C 80 %
741 03-03-2015 04:06:18 0.9 C 83 %
742 03-03-2015 04:18:18 1.3 C 84 %
743 03-03-2015 04:30:18 1.4 C 83 %
744 03-03-2015 04:42:18 1.4 C 82 %
745 03-03-2015 04:54:18 1.3 C 82 %
746 03-03-2015 05:06:18 1.6 C 82 %
747 03-03-2015 05:18:18 1.9 C 81 %
748 03-03-2015 05:30:18 2.2 C 78 %
749 03-03-2015 05:42:18 2.2 C 78 %
750 03-03-2015 05:54:18 2.4 C 76 %
Sensor: Nr:Datum:Temp:Feuchte:
Aussen-T/F 751 03-03-2015 06:06:18 2.3 C 76 %
752 03-03-2015 06:18:18 2.2 C 75 %
753 03-03-2015 06:30:18 2 C 76 %
754 03-03-2015 06:42:18 2 C 76 %
755 03-03-2015 06:54:18 1.8 C 77 %
756 03-03-2015 07:06:18 1.8 C 77 %
757 03-03-2015 07:18:16 2 C 77 %
758 03-03-2015 07:30:16 2.2 C 76 %
759 03-03-2015 07:42:16 2.1 C 75 %
760 03-03-2015 07:54:16 2.3 C 75 %
761 03-03-2015 08:06:17 2 C 75 %
762 03-03-2015 08:18:17 2 C 76 %
763 03-03-2015 08:30:17 1.9 C 78 %
764 03-03-2015 08:42:17 1.9 C 79 %
765 03-03-2015 08:54:16 2 C 79 %
766 03-03-2015 09:06:16 2.4 C 78 %
767 03-03-2015 09:18:17 2.6 C 77 %
768 03-03-2015 09:30:17 3 C 74 %
769 03-03-2015 09:42:17 3 C 74 %
770 03-03-2015 09:54:17 3.9 C 72 %
771 03-03-2015 10:06:17 4.3 C 67 %
772 03-03-2015 10:18:16 4.8 C 65 %
773 03-03-2015 10:30:16 5.8 C 62 %
774 03-03-2015 10:42:16 5.7 C 60 %
775 03-03-2015 10:54:17 6.5 C 59 %
Sensor: Nr:Datum:Temp:Feuchte:
Aussen-T/F 776 03-03-2015 11:06:17 7 C 57 %
777 03-03-2015 11:18:17 6.8 C 54 %
778 03-03-2015 11:30:16 6.8 C 53 %
779 03-03-2015 11:42:16 7.1 C 52 %
780 03-03-2015 11:54:17 7.5 C 51 %
781 03-03-2015 12:06:17 8 C 50 %
782 03-03-2015 12:18:16 8 C 49 %
783 03-03-2015 12:30:17 8.1 C 49 %
784 03-03-2015 12:42:17 8.1 C 49 %
785 03-03-2015 12:54:16 8.7 C 47 %
786 03-03-2015 13:06:17 9 C 46 %
787 03-03-2015 13:18:16 8.5 C 47 %
788 03-03-2015 13:30:17 8.7 C 46 %
789 03-03-2015 13:42:17 9.1 C 45 %
790 03-03-2015 13:54:17 9.2 C 45 %
791 03-03-2015 14:06:16 10.1 C 42 %
792 03-03-2015 14:18:16 10.5 C 42 %
793 03-03-2015 14:30:17 10.5 C 42 %
794 03-03-2015 14:42:17 10.2 C 43 %
795 03-03-2015 14:54:16 9.7 C 43 %
796 03-03-2015 15:06:17 10.3 C 42 %
797 03-03-2015 15:18:16 10.1 C 43 %
798 03-03-2015 15:30:16 10.2 C 42 %
799 03-03-2015 15:42:16 10.2 C 42 %
800 03-03-2015 15:54:16 10.3 C 42 %
Sensor: Nr:Datum:Temp:Feuchte:
Aussen-T/F 801 03-03-2015 16:06:16 10.1 C 41 %
802 03-03-2015 16:18:17 10.7 C 41 %
803 03-03-2015 16:30:16 10 C 42 %
804 03-03-2015 16:42:16 9.5 C 44 %
805 03-03-2015 16:54:16 9.1 C 46 %
806 03-03-2015 17:06:16 9.1 C 47 %
807 03-03-2015 17:18:16 8.9 C 49 %
808 03-03-2015 17:30:16 8.6 C 49 %
809 03-03-2015 17:42:16 8.5 C 49 %
810 03-03-2015 17:54:16 8.4 C 48 %
811 03-03-2015 18:06:16 8.5 C 47 %
812 03-03-2015 18:18:16 8.3 C 50 %
813 03-03-2015 18:30:16 7.8 C 54 %
814 03-03-2015 18:42:16 6.4 C 69 %
815 03-03-2015 18:54:16 6.2 C 74 %
816 03-03-2015 19:06:16 5.8 C 78 %
817 03-03-2015 19:18:15 5.3 C 80 %
818 03-03-2015 19:30:16 5.1 C 82 %
819 03-03-2015 19:42:16 5 C 84 %
820 03-03-2015 19:54:16 4.9 C 86 %
821 03-03-2015 20:06:16 4.9 C 87 %
822 03-03-2015 20:18:16 4.9 C 88 %
823 03-03-2015 20:30:16 5 C 86 %
824 03-03-2015 20:42:16 5 C 85 %
825 03-03-2015 20:54:16 4.9 C 86 %
Sensor: Nr:Datum:Temp:Feuchte:
Aussen-T/F 826 03-03-2015 21:06:16 5.1 C 84 %
827 03-03-2015 21:18:16 5.1 C 84 %
828 03-03-2015 21:30:16 5.2 C 83 %
829 03-03-2015 21:42:16 5.2 C 80 %
830 03-03-2015 21:54:16 5.1 C 79 %
831 03-03-2015 22:06:16 5.1 C 79 %
832 03-03-2015 22:18:16 5 C 79 %
833 03-03-2015 22:30:16 4.1 C 79 %
834 03-03-2015 22:42:16 3.9 C 81 %
835 03-03-2015 22:54:16 3.5 C 83 %
836 03-03-2015 23:06:15 3.4 C 85 %
837 03-03-2015 23:18:15 3.5 C 85 %
838 03-03-2015 23:30:16 3.5 C 85 %
839 03-03-2015 23:42:16 3.3 C 84 %
840 03-03-2015 23:54:15 3 C 85 %
841 04-03-2015 00:06:16 3.1 C 86 %
842 04-03-2015 00:18:16 3.2 C 86 %
843 04-03-2015 00:30:15 3.3 C 86 %
844 04-03-2015 00:42:15 3.3 C 87 %
845 04-03-2015 00:54:15 3.2 C 86 %
846 04-03-2015 01:06:16 3.6 C 85 %
847 04-03-2015 01:18:15 3.4 C 83 %
848 04-03-2015 01:30:16 3.2 C 82 %
849 04-03-2015 01:42:16 3.2 C 83 %
850 04-03-2015 01:54:16 3.1 C 84 %
Sensor: Nr:Datum:Temp:Feuchte:
Aussen-T/F 851 04-03-2015 02:06:15 3.3 C 84 %
852 04-03-2015 02:18:16 3.1 C 83 %
853 04-03-2015 02:30:15 2.8 C 84 %
854 04-03-2015 02:42:15 2.7 C 86 %
855 04-03-2015 02:54:17 2.8 C 87 %
856 04-03-2015 03:06:17 2.8 C 87 %
857 04-03-2015 03:18:17 2.6 C 87 %
858 04-03-2015 03:30:17 2.6 C 88 %
859 04-03-2015 03:42:17 2.6 C 89 %
860 04-03-2015 03:54:17 2.4 C 90 %
861 04-03-2015 04:06:17 2.1 C 91 %
862 04-03-2015 04:18:17 1.9 C 92 %
863 04-03-2015 04:30:17 1.7 C 92 %
864 04-03-2015 04:42:17 1.5 C 93 %
865 04-03-2015 04:54:17 1.4 C 93 %
866 04-03-2015 05:06:17 1.5 C 93 %
867 04-03-2015 05:18:17 1.1 C 93 %
868 04-03-2015 05:30:17 1 C 93 %
869 04-03-2015 05:42:17 0.8 C 94 %
870 04-03-2015 05:54:17 0.8 C 94 %
871 04-03-2015 06:06:17 0.9 C 95 %
872 04-03-2015 06:18:17 1.1 C 94 %
873 04-03-2015 06:30:17 1 C 95 %
874 04-03-2015 06:42:17 1.2 C 95 %
875 04-03-2015 06:54:17 0.8 C 95 %
Sensor: Nr:Datum:Temp:Feuchte:
Aussen-T/F 876 04-03-2015 07:06:17 0.6 C 95 %
877 04-03-2015 07:18:17 1.1 C 95 %
878 04-03-2015 07:30:17 1.2 C 95 %
879 04-03-2015 07:42:17 1.1 C 95 %
880 04-03-2015 07:54:17 1.2 C 95 %
881 04-03-2015 08:06:17 1.1 C 95 %
882 04-03-2015 08:18:17 1.4 C 95 %
883 04-03-2015 08:30:17 1.9 C 94 %
884 04-03-2015 08:42:17 2.5 C 92 %
885 04-03-2015 08:54:17 2.6 C 88 %
886 04-03-2015 09:06:17 2.8 C 84 %
887 04-03-2015 09:18:17 2.9 C 80 %
888 04-03-2015 09:30:17 3 C 76 %
889 04-03-2015 09:42:17 3.1 C 75 %
890 04-03-2015 09:54:17 3.1 C 74 %
891 04-03-2015 10:06:17 3.4 C 73 %
892 04-03-2015 10:18:17 3.6 C 72 %
893 04-03-2015 10:30:17 4.1 C 70 %
894 04-03-2015 10:42:17 4.1 C 69 %
895 04-03-2015 10:54:17 4.9 C 67 %
896 04-03-2015 11:06:17 4.9 C 66 %
897 04-03-2015 11:18:17 5.4 C 66 %
898 04-03-2015 11:30:17 5.6 C 64 %
899 04-03-2015 11:42:17 5.5 C 62 %
900 04-03-2015 11:54:17 5.4 C 61 %
Sensor: Nr:Datum:Temp:Feuchte:
Aussen-T/F 901 04-03-2015 12:06:17 5.5 C 61 %
902 04-03-2015 12:18:17 5.8 C 59 %
903 04-03-2015 12:30:17 6.1 C 58 %
904 04-03-2015 12:42:17 6.3 C 57 %
905 04-03-2015 12:54:17 6.4 C 56 %
906 04-03-2015 13:06:17 6.7 C 56 %
907 04-03-2015 13:18:17 7.2 C 53 %
908 04-03-2015 13:30:17 7.7 C 50 %
909 04-03-2015 13:42:17 7.4 C 49 %
910 04-03-2015 13:54:17 7.4 C 49 %
911 04-03-2015 14:06:17 7.4 C 50 %
912 04-03-2015 14:18:17 7.4 C 49 %
913 04-03-2015 14:30:17 7.6 C 49 %
914 04-03-2015 14:42:17 7.7 C 48 %
915 04-03-2015 14:54:17 7.7 C 47 %
916 04-03-2015 15:06:17 7.4 C 48 %
917 04-03-2015 15:18:16 7.3 C 48 %
918 04-03-2015 15:30:17 7.2 C 47 %
919 04-03-2015 15:42:17 7.3 C 47 %
920 04-03-2015 15:54:17 7 C 50 %
921 04-03-2015 16:06:17 7.4 C 49 %
922 04-03-2015 16:18:17 7.7 C 48 %
923 04-03-2015 16:30:17 6.9 C 50 %
924 04-03-2015 16:42:17 7.4 C 50 %
925 04-03-2015 16:54:17 7.2 C 49 %
Sensor: Nr:Datum:Temp:Feuchte:
Aussen-T/F 926 04-03-2015 17:06:17 6.8 C 51 %
927 04-03-2015 17:18:17 6.5 C 53 %
928 04-03-2015 17:30:17 6 C 57 %
929 04-03-2015 17:42:17 4.4 C 66 %
930 04-03-2015 17:54:17 4.6 C 75 %
931 04-03-2015 18:06:17 4.3 C 78 %
932 04-03-2015 18:18:17 4.1 C 80 %
933 04-03-2015 18:30:18 4.2 C 81 %
934 04-03-2015 18:42:18 4.2 C 81 %
935 04-03-2015 18:54:17 3.9 C 81 %
936 04-03-2015 19:06:17 3.5 C 81 %
937 04-03-2015 19:18:17 3.4 C 82 %
938 04-03-2015 19:30:17 3.3 C 83 %
939 04-03-2015 19:42:18 2.9 C 84 %
940 04-03-2015 19:54:17 3.2 C 83 %
941 04-03-2015 20:06:17 3.1 C 83 %
942 04-03-2015 20:18:17 3.1 C 83 %
943 04-03-2015 20:30:17 3.1 C 82 %
944 04-03-2015 20:42:17 3.3 C 81 %
945 04-03-2015 20:54:17 3.7 C 79 %
946 04-03-2015 21:06:17 4 C 74 %
947 04-03-2015 21:18:16 4.1 C 72 %
948 04-03-2015 21:30:17 4.1 C 70 %
949 04-03-2015 21:42:17 4.3 C 70 %
950 04-03-2015 21:54:17 4.3 C 69 %
Sensor: Nr:Datum:Temp:Feuchte:
Aussen-T/F 951 04-03-2015 22:06:17 4.3 C 69 %
952 04-03-2015 22:18:17 4.3 C 72 %
953 04-03-2015 22:30:17 3.8 C 77 %
954 04-03-2015 22:42:17 3.6 C 79 %
955 04-03-2015 22:54:17 3.8 C 81 %
956 04-03-2015 23:06:17 3.8 C 81 %
957 04-03-2015 23:18:17 4.1 C 80 %
958 04-03-2015 23:30:17 4.2 C 79 %
959 04-03-2015 23:42:17 4.3 C 78 %
960 04-03-2015 23:54:17 4.3 C 77 %
961 05-03-2015 00:06:17 4.3 C 76 %
962 05-03-2015 00:18:17 4.2 C 75 %
963 05-03-2015 00:30:17 4.3 C 75 %
964 05-03-2015 00:42:17 4.3 C 74 %
965 05-03-2015 00:54:18 4 C 74 %
966 05-03-2015 01:06:17 3.7 C 76 %
967 05-03-2015 01:18:17 3.5 C 77 %
968 05-03-2015 01:30:17 3.4 C 77 %
969 05-03-2015 01:42:17 3.9 C 77 %
970 05-03-2015 01:54:17 3.9 C 76 %
971 05-03-2015 02:06:17 4 C 76 %
972 05-03-2015 02:18:17 4 C 76 %
973 05-03-2015 02:30:17 3.7 C 77 %
974 05-03-2015 02:42:17 3.6 C 77 %
975 05-03-2015 02:54:17 3.6 C 77 %
Sensor: Nr:Datum:Temp:Feuchte:
Aussen-T/F 976 05-03-2015 03:06:17 3.4 C 77 %
977 05-03-2015 03:18:17 3.4 C 78 %
978 05-03-2015 03:30:17 3 C 78 %
979 05-03-2015 03:42:17 3.1 C 79 %
980 05-03-2015 03:54:17 3.1 C 79 %
981 05-03-2015 04:06:17 2.9 C 80 %
982 05-03-2015 04:18:17 2.7 C 80 %
983 05-03-2015 04:30:17 2.5 C 80 %
984 05-03-2015 04:42:17 2.6 C 81 %
985 05-03-2015 04:54:17 2.9 C 82 %
986 05-03-2015 05:06:17 2.7 C 82 %
987 05-03-2015 05:18:17 3.2 C 81 %
988 05-03-2015 05:30:18 3.2 C 79 %
989 05-03-2015 05:42:18 3.1 C 79 %
990 05-03-2015 05:54:17 2.9 C 81 %
991 05-03-2015 06:06:17 2.7 C 82 %
992 05-03-2015 06:18:17 2.7 C 82 %
993 05-03-2015 06:30:17 2.5 C 83 %
994 05-03-2015 06:42:17 2.4 C 83 %
995 05-03-2015 06:54:17 2.3 C 84 %
996 05-03-2015 07:06:18 2 C 84 %
997 05-03-2015 07:18:17 1.4 C 84 %
998 05-03-2015 07:30:17 2.1 C 85 %
999 05-03-2015 07:42:17 2 C 86 %
1000 05-03-2015 07:54:17 2.2 C 87 %
Sensor: Nr:Datum:Temp:Feuchte:
Aussen-T/F 1001 05-03-2015 08:06:17 2.3 C 87 %
1002 05-03-2015 08:18:17 2.4 C 87 %
1003 05-03-2015 08:30:17 2.8 C 87 %
1004 05-03-2015 08:42:17 2.9 C 87 %
1005 05-03-2015 08:54:17 2.8 C 86 %
1006 05-03-2015 09:06:17 3.3 C 85 %
1007 05-03-2015 09:18:17 3.9 C 83 %
1008 05-03-2015 09:30:17 4.4 C 79 %
1009 05-03-2015 09:42:17 4.4 C 75 %
1010 05-03-2015 09:54:17 4.5 C 74 %
1011 05-03-2015 10:06:17 4.8 C 73 %
1012 05-03-2015 10:18:17 5 C 71 %
1013 05-03-2015 10:30:17 5 C 70 %
1014 05-03-2015 10:42:17 5.2 C 69 %
1015 05-03-2015 10:54:17 5.4 C 69 %
1016 05-03-2015 11:06:17 5.6 C 68 %
1017 05-03-2015 11:18:17 5.6 C 66 %
1018 05-03-2015 11:30:17 5.6 C 67 %
1019 05-03-2015 11:42:17 5.6 C 66 %
1020 05-03-2015 11:54:17 6 C 65 %
1021 05-03-2015 12:06:17 6.4 C 63 %
1022 05-03-2015 12:18:17 6.3 C 63 %
1023 05-03-2015 12:30:17 6.6 C 63 %
1024 05-03-2015 12:42:17 6.7 C 60 %
1025 05-03-2015 12:54:16 6.7 C 60 %
Sensor: Nr:Datum:Temp:Feuchte:
Aussen-T/F 1026 05-03-2015 13:06:17 7.3 C 57 %
1027 05-03-2015 13:18:17 7.3 C 57 %
1028 05-03-2015 13:30:17 7.6 C 57 %
1029 05-03-2015 13:42:17 7.6 C 56 %
1030 05-03-2015 13:54:17 7.8 C 55 %
1031 05-03-2015 14:06:17 7.4 C 54 %
1032 05-03-2015 14:18:17 7.3 C 55 %
1033 05-03-2015 14:30:17 7.5 C 53 %
1034 05-03-2015 14:42:17 7.3 C 53 %
1035 05-03-2015 14:54:17 7.7 C 54 %
1036 05-03-2015 15:06:17 7.9 C 50 %
1037 05-03-2015 15:18:17 8 C 50 %
1038 05-03-2015 15:30:17 8.1 C 50 %
1039 05-03-2015 15:42:17 8.1 C 49 %
1040 05-03-2015 15:54:17 8.5 C 49 %
1041 05-03-2015 16:06:17 8.8 C 48 %
1042 05-03-2015 16:18:17 8.1 C 48 %
1043 05-03-2015 16:30:17 7.7 C 50 %
1044 05-03-2015 16:42:17 8.2 C 50 %
1045 05-03-2015 16:54:17 9.2 C 47 %
1046 05-03-2015 17:06:17 8.1 C 48 %
1047 05-03-2015 17:18:17 7.3 C 51 %
1048 05-03-2015 17:30:17 7.1 C 52 %
1049 05-03-2015 17:42:17 6.9 C 54 %
1050 05-03-2015 17:54:17 6.5 C 55 %
Sensor: Nr:Datum:Temp:Feuchte:
Aussen-T/F 1051 05-03-2015 18:06:17 6.1 C 60 %
1052 05-03-2015 18:18:17 5.9 C 64 %
1053 05-03-2015 18:30:17 5.6 C 66 %
1054 05-03-2015 18:42:17 5.5 C 68 %
1055 05-03-2015 18:54:17 5.3 C 69 %
1056 05-03-2015 19:06:17 5.3 C 69 %
1057 05-03-2015 19:18:17 5.3 C 69 %
1058 05-03-2015 19:30:17 5.2 C 70 %
1059 05-03-2015 19:42:17 5.1 C 71 %
1060 05-03-2015 19:54:17 5.1 C 72 %
1061 05-03-2015 20:06:17 5.2 C 73 %
1062 05-03-2015 20:18:17 5.1 C 73 %
1063 05-03-2015 20:30:17 4.8 C 75 %
1064 05-03-2015 20:42:17 4.8 C 76 %
1065 05-03-2015 20:54:17 4.7 C 77 %
1066 05-03-2015 21:06:17 4.4 C 77 %
1067 05-03-2015 21:18:17 4 C 77 %
1068 05-03-2015 21:30:17 4.1 C 78 %
1069 05-03-2015 21:42:17 4.1 C 78 %
1070 05-03-2015 21:54:17 4 C 78 %
1071 05-03-2015 22:06:17 3.6 C 79 %
1072 05-03-2015 22:18:17 3.4 C 79 %
1073 05-03-2015 22:30:17 3.1 C 79 %
1074 05-03-2015 22:42:17 2.8 C 81 %
1075 05-03-2015 22:54:17 2.8 C 82 %
Sensor: Nr:Datum:Temp:Feuchte:
Aussen-T/F 1076 05-03-2015 23:06:17 2.5 C 83 %
1077 05-03-2015 23:18:17 2.2 C 84 %
1078 05-03-2015 23:30:17 1.9 C 85 %
1079 05-03-2015 23:42:17 1.9 C 86 %
1080 05-03-2015 23:54:17 1.8 C 86 %
1081 06-03-2015 00:06:17 1.8 C 87 %
1082 06-03-2015 00:18:17 1.3 C 86 %
1083 06-03-2015 00:30:17 1.2 C 86 %
1084 06-03-2015 00:42:17 0.9 C 87 %
1085 06-03-2015 00:54:17 0.8 C 88 %
1086 06-03-2015 01:06:17 1 C 88 %
1087 06-03-2015 01:18:17 0.7 C 89 %
1088 06-03-2015 01:30:17 0.9 C 89 %
1089 06-03-2015 01:42:17 0.7 C 89 %
1090 06-03-2015 01:54:17 0.5 C 89 %
1091 06-03-2015 02:06:17 0.7 C 89 %
1092 06-03-2015 02:18:17 0.3 C 90 %
1093 06-03-2015 02:30:17 0.2 C 90 %
1094 06-03-2015 02:42:17 0.3 C 90 %
1095 06-03-2015 02:54:17 0.3 C 90 %
1096 06-03-2015 03:06:17 0.5 C 91 %
1097 06-03-2015 03:18:17 1.1 C 91 %
1098 06-03-2015 03:30:17 1.1 C 91 %
1099 06-03-2015 03:42:17 0.8 C 91 %
1100 06-03-2015 03:54:17 0.3 C 91 %
Sensor: Nr:Datum:Temp:Feuchte:
Aussen-T/F 1101 06-03-2015 04:06:17 -0.1 C 90 %
1102 06-03-2015 04:18:17 -0.1 C 91 %
1103 06-03-2015 04:30:17 0 C 91 %
1104 06-03-2015 04:42:17 -0.4 C 91 %
1105 06-03-2015 04:54:17 -0.4 C 91 %
1106 06-03-2015 05:06:17 -0.6 C 92 %
1107 06-03-2015 05:18:17 -0.6 C 92 %
1108 06-03-2015 05:30:17 -0.7 C 92 %
1109 06-03-2015 05:42:17 -0.6 C 92 %
1110 06-03-2015 05:54:17 -0.7 C 93 %
1111 06-03-2015 06:06:17 -1 C 93 %
1112 06-03-2015 06:18:17 -1.1 C 93 %
1113 06-03-2015 06:30:17 -0.8 C 93 %
1114 06-03-2015 06:42:17 -1 C 93 %
1115 06-03-2015 06:54:17 -1.2 C 93 %
1116 06-03-2015 07:06:17 -1.1 C 93 %
1117 06-03-2015 07:18:17 -0.9 C 94 %
1118 06-03-2015 07:30:17 -0.7 C 94 %
1119 06-03-2015 07:42:17 -0.7 C 94 %
1120 06-03-2015 07:54:17 -0.4 C 94 %
1121 06-03-2015 08:06:17 -0.6 C 94 %
1122 06-03-2015 08:18:17 -0.4 C 94 %
1123 06-03-2015 08:30:17 -0.3 C 94 %
1124 06-03-2015 08:42:17 -0.1 C 94 %
1125 06-03-2015 08:54:17 0 C 94 %
Sensor: Nr:Datum:Temp:Feuchte:
Aussen-T/F 1126 06-03-2015 09:06:17 0.4 C 95 %
1127 06-03-2015 09:18:17 0.7 C 95 %
1128 06-03-2015 09:30:17 1.1 C 94 %
1129 06-03-2015 09:42:17 1.5 C 94 %
1130 06-03-2015 09:54:17 1.7 C 93 %
1131 06-03-2015 10:06:17 1.9 C 93 %
1132 06-03-2015 10:18:17 2.6 C 91 %
1133 06-03-2015 10:30:17 3.9 C 89 %
1134 06-03-2015 10:42:17 5.3 C 81 %
1135 06-03-2015 10:54:17 5.6 C 72 %
1136 06-03-2015 11:06:17 5.9 C 68 %
1137 06-03-2015 11:18:17 6.4 C 66 %
1138 06-03-2015 11:30:17 6.9 C 64 %
1139 06-03-2015 11:42:17 7.5 C 61 %
1140 06-03-2015 11:54:17 8.2 C 56 %
1141 06-03-2015 12:06:17 8.6 C 55 %
1142 06-03-2015 12:18:17 8.9 C 54 %
1143 06-03-2015 12:30:17 9 C 49 %
1144 06-03-2015 12:42:17 8.8 C 47 %
1145 06-03-2015 12:54:17 8.6 C 48 %
1146 06-03-2015 13:06:17 8.7 C 48 %
1147 06-03-2015 13:18:17 8.8 C 49 %
1148 06-03-2015 13:30:17 8.6 C 53 %
1149 06-03-2015 13:42:17 8.8 C 51 %
1150 06-03-2015 13:54:17 9 C 50 %
Sensor: Nr:Datum:Temp:Feuchte:
Aussen-T/F 1151 06-03-2015 14:06:17 9.1 C 49 %
1152 06-03-2015 14:18:17 9.3 C 49 %
1153 06-03-2015 14:30:17 9.2 C 47 %
1154 06-03-2015 14:42:17 9.6 C 46 %
1155 06-03-2015 14:54:17 9.7 C 46 %
1156 06-03-2015 15:06:17 9.8 C 46 %
1157 06-03-2015 15:18:17 9.6 C 46 %
1158 06-03-2015 15:30:18 9.5 C 45 %
1159 06-03-2015 15:42:18 9.3 C 47 %
1160 06-03-2015 15:54:17 9.4 C 47 %
1161 06-03-2015 16:06:17 9.5 C 45 %
1162 06-03-2015 16:18:17 9.4 C 45 %
1163 06-03-2015 16:30:17 9.5 C 46 %
1164 06-03-2015 16:42:17 9.7 C 47 %
1165 06-03-2015 16:54:17 9.6 C 45 %
1166 06-03-2015 17:06:17 9.5 C 48 %
1167 06-03-2015 17:18:17 9.7 C 49 %
1168 06-03-2015 17:30:17 10.1 C 47 %
1169 06-03-2015 17:42:17 8.4 C 54 %
1170 06-03-2015 17:54:17 8 C 58 %
1171 06-03-2015 18:06:17 7.5 C 60 %
1172 06-03-2015 18:18:17 6.7 C 64 %
1173 06-03-2015 18:30:17 5.9 C 67 %
1174 06-03-2015 18:42:17 5.6 C 69 %
1175 06-03-2015 18:54:17 5.2 C 69 %
Sensor: Nr:Datum:Temp:Feuchte:
Aussen-T/F 1176 06-03-2015 19:06:17 4.8 C 71 %
1177 06-03-2015 19:18:17 4.9 C 71 %
1178 06-03-2015 19:30:17 4.6 C 72 %
1179 06-03-2015 19:42:17 4.9 C 73 %
1180 06-03-2015 19:54:17 4.8 C 72 %
1181 06-03-2015 20:06:17 4.5 C 71 %
1182 06-03-2015 20:18:17 4.2 C 72 %
1183 06-03-2015 20:30:17 4 C 73 %
1184 06-03-2015 20:42:17 3.6 C 75 %
1185 06-03-2015 20:54:17 3.4 C 77 %
1186 06-03-2015 21:06:17 3.3 C 78 %
1187 06-03-2015 21:18:17 3.3 C 78 %
1188 06-03-2015 21:30:17 2.7 C 78 %
1189 06-03-2015 21:42:17 2.3 C 79 %
1190 06-03-2015 21:54:17 2 C 80 %
1191 06-03-2015 22:06:17 1.8 C 81 %
1192 06-03-2015 22:18:17 1.6 C 82 %
1193 06-03-2015 22:30:17 1.3 C 83 %
1194 06-03-2015 22:42:17 1.2 C 84 %
1195 06-03-2015 22:54:17 1.2 C 84 %
1196 06-03-2015 23:06:17 0.9 C 85 %
1197 06-03-2015 23:18:17 1 C 85 %
1198 06-03-2015 23:30:17 0.7 C 86 %
1199 06-03-2015 23:42:17 0.6 C 86 %
1200 06-03-2015 23:54:17 0.5 C 87 %
Sensor: Nr:Datum:Temp:Feuchte:
Aussen-T/F 1201 07-03-2015 00:06:17 0.5 C 87 %
1202 07-03-2015 00:18:17 0.6 C 88 %
1203 07-03-2015 00:30:17 0.4 C 87 %
1204 07-03-2015 00:42:17 0.2 C 87 %
1205 07-03-2015 00:54:17 0.2 C 88 %
1206 07-03-2015 01:06:17 0.1 C 88 %
1207 07-03-2015 01:18:17 0 C 89 %
1208 07-03-2015 01:30:17 0 C 89 %
1209 07-03-2015 01:42:17 -0.3 C 89 %
1210 07-03-2015 01:54:17 -0.3 C 89 %
1211 07-03-2015 02:06:17 -0.3 C 89 %
1212 07-03-2015 02:18:17 -0.3 C 90 %
1213 07-03-2015 02:30:17 -0.3 C 90 %
1214 07-03-2015 02:42:17 -0.4 C 91 %
1215 07-03-2015 02:54:17 -0.6 C 91 %
1216 07-03-2015 03:06:17 -0.6 C 91 %
1217 07-03-2015 03:18:17 -0.3 C 91 %
1218 07-03-2015 03:30:17 -0.4 C 91 %
1219 07-03-2015 03:42:17 -0.7 C 91 %
1220 07-03-2015 03:54:17 -0.9 C 91 %
1221 07-03-2015 04:06:17 -0.9 C 91 %
1222 07-03-2015 04:18:17 -0.9 C 91 %
1223 07-03-2015 04:30:17 -0.9 C 92 %
1224 07-03-2015 04:42:17 -0.9 C 92 %
1225 07-03-2015 04:54:17 -0.9 C 92 %
Sensor: Nr:Datum:Temp:Feuchte:
Aussen-T/F 1226 07-03-2015 05:06:17 -1.2 C 92 %
1227 07-03-2015 05:18:17 -1.3 C 92 %
1228 07-03-2015 05:30:17 -1.1 C 92 %
1229 07-03-2015 05:42:17 -1.3 C 92 %
1230 07-03-2015 05:54:17 -1.3 C 92 %
1231 07-03-2015 06:06:17 -1.1 C 93 %
1232 07-03-2015 06:18:17 -0.8 C 93 %
1233 07-03-2015 06:30:17 -1.1 C 93 %
1234 07-03-2015 06:42:17 -0.9 C 93 %
1235 07-03-2015 06:54:17 -0.9 C 93 %
1236 07-03-2015 07:06:17 -1.1 C 93 %
1237 07-03-2015 07:18:17 -0.9 C 93 %
1238 07-03-2015 07:30:17 -0.9 C 93 %
1239 07-03-2015 07:42:17 -0.7 C 93 %
1240 07-03-2015 07:54:17 -0.5 C 94 %
1241 07-03-2015 08:06:17 -0.1 C 94 %
1242 07-03-2015 08:18:17 0.2 C 94 %
1243 07-03-2015 08:30:17 0.5 C 94 %
1244 07-03-2015 08:42:17 0.7 C 94 %
1245 07-03-2015 08:54:17 1 C 93 %
1246 07-03-2015 09:06:17 1.3 C 92 %
1247 07-03-2015 09:18:17 1.8 C 91 %
1248 07-03-2015 09:30:17 2.1 C 89 %
1249 07-03-2015 09:42:17 2.3 C 86 %
1250 07-03-2015 09:54:17 2.5 C 84 %
Sensor: Nr:Datum:Temp:Feuchte:
Aussen-T/F 1251 07-03-2015 10:06:17 2.7 C 81 %
1252 07-03-2015 10:18:17 3.4 C 79 %
1253 07-03-2015 10:30:17 4.2 C 75 %
1254 07-03-2015 10:42:17 4.5 C 72 %
1255 07-03-2015 10:54:17 4.6 C 69 %
1256 07-03-2015 11:06:17 5.1 C 67 %
1257 07-03-2015 11:18:17 5.2 C 67 %
1258 07-03-2015 11:30:17 5.3 C 67 %
1259 07-03-2015 11:42:18 5.7 C 66 %
1260 07-03-2015 11:54:17 6.2 C 64 %
1261 07-03-2015 12:06:17 6.9 C 64 %
1262 07-03-2015 12:18:17 7.6 C 62 %
1263 07-03-2015 12:30:17 8.1 C 59 %
1264 07-03-2015 12:42:17 8.4 C 58 %
1265 07-03-2015 12:54:17 8.9 C 57 %
1266 07-03-2015 13:06:17 9.2 C 54 %
1267 07-03-2015 13:18:17 9.6 C 51 %
1268 07-03-2015 13:30:17 10.1 C 50 %
1269 07-03-2015 13:42:17 10.4 C 48 %
1270 07-03-2015 13:54:17 10.7 C 45 %
1271 07-03-2015 14:06:17 11.2 C 43 %
1272 07-03-2015 14:18:17 12 C 39 %
1273 07-03-2015 14:30:17 12.7 C 39 %
1274 07-03-2015 14:42:17 12.8 C 40 %
1275 07-03-2015 14:54:17 12.8 C 41 %
Sensor: Nr:Datum:Temp:Feuchte:
Aussen-T/F 1276 07-03-2015 15:06:17 12.9 C 39 %
1277 07-03-2015 15:18:17 13 C 41 %
1278 07-03-2015 15:30:17 12.9 C 40 %
1279 07-03-2015 15:42:17 12.7 C 41 %
1280 07-03-2015 15:54:17 12.7 C 40 %
1281 07-03-2015 16:06:17 12.2 C 41 %
1282 07-03-2015 16:18:17 12.1 C 43 %
1283 07-03-2015 16:30:17 11.9 C 43 %
1284 07-03-2015 16:42:17 11.9 C 41 %
1285 07-03-2015 16:54:17 11.7 C 43 %
1286 07-03-2015 17:06:17 11.4 C 43 %
1287 07-03-2015 17:18:17 10.8 C 45 %
1288 07-03-2015 17:30:17 10.5 C 46 %
1289 07-03-2015 17:42:17 10.5 C 46 %
1290 07-03-2015 17:54:17 11.3 C 46 %
1291 07-03-2015 18:06:17 10.8 C 46 %
1292 07-03-2015 18:18:17 9.5 C 49 %
1293 07-03-2015 18:30:17 8.8 C 52 %
1294 07-03-2015 18:42:17 8.7 C 52 %
1295 07-03-2015 18:54:17 8.5 C 52 %
1296 07-03-2015 19:06:17 8.2 C 53 %
1297 07-03-2015 19:18:17 8.1 C 54 %
1298 07-03-2015 19:30:17 7.8 C 55 %
1299 07-03-2015 19:42:17 7.3 C 57 %
1300 07-03-2015 19:54:17 7 C 58 %
Sensor: Nr:Datum:Temp:Feuchte:
Aussen-T/F 1301 07-03-2015 20:06:17 6.6 C 61 %
1302 07-03-2015 20:18:17 5.6 C 65 %
1303 07-03-2015 20:30:17 5.3 C 67 %
1304 07-03-2015 20:42:18 4.9 C 70 %
1305 07-03-2015 20:54:17 4.7 C 72 %
1306 07-03-2015 21:06:17 4.4 C 73 %
1307 07-03-2015 21:18:17 4.3 C 74 %
1308 07-03-2015 21:30:17 4.2 C 76 %
1309 07-03-2015 21:42:17 4 C 76 %
1310 07-03-2015 21:54:17 3.8 C 77 %
1311 07-03-2015 22:06:17 3.6 C 78 %
1312 07-03-2015 22:18:17 3.1 C 77 %
1313 07-03-2015 22:30:17 2.7 C 78 %
1314 07-03-2015 22:42:17 2.6 C 79 %
1315 07-03-2015 22:54:17 2.5 C 80 %
1316 07-03-2015 23:06:17 2.5 C 80 %
1317 07-03-2015 23:18:17 2.2 C 81 %
1318 07-03-2015 23:30:17 2.3 C 82 %
1319 07-03-2015 23:42:17 2.1 C 82 %
1320 07-03-2015 23:54:17 1.8 C 83 %
1321 08-03-2015 00:06:17 1.7 C 84 %
1322 08-03-2015 00:18:17 1.7 C 84 %
1323 08-03-2015 00:30:17 1.5 C 85 %
1324 08-03-2015 00:42:17 1.4 C 85 %
1325 08-03-2015 00:54:17 1.6 C 86 %
Sensor: Nr:Datum:Temp:Feuchte:
Aussen-T/F 1326 08-03-2015 01:06:17 1.3 C 86 %
1327 08-03-2015 01:18:17 1.3 C 87 %
1328 08-03-2015 01:30:17 1 C 87 %
1329 08-03-2015 01:42:17 1.1 C 87 %
1330 08-03-2015 01:54:17 0.9 C 88 %
1331 08-03-2015 02:06:17 1.2 C 88 %
1332 08-03-2015 02:18:16 1.3 C 89 %
1333 08-03-2015 02:30:17 1.3 C 89 %
1334 08-03-2015 02:42:17 0.9 C 89 %
1335 08-03-2015 02:54:17 0.7 C 89 %
1336 08-03-2015 03:06:17 0.5 C 89 %
1337 08-03-2015 03:18:17 0.5 C 89 %
1338 08-03-2015 03:30:17 0.2 C 89 %
1339 08-03-2015 03:42:17 0.1 C 89 %
1340 08-03-2015 03:54:17 0 C 89 %
1341 08-03-2015 04:06:17 -0.1 C 90 %
1342 08-03-2015 04:18:17 -0.1 C 90 %
1343 08-03-2015 04:30:17 -0.3 C 90 %
1344 08-03-2015 04:42:17 -0.4 C 91 %
1345 08-03-2015 04:54:17 -0.4 C 91 %
1346 08-03-2015 05:06:17 -0.3 C 92 %
1347 08-03-2015 05:18:17 -0.6 C 91 %
1348 08-03-2015 05:30:17 -0.6 C 91 %
1349 08-03-2015 05:42:17 -0.9 C 91 %
1350 08-03-2015 05:54:17 -0.6 C 92 %
Sensor: Nr:Datum:Temp:Feuchte:
Aussen-T/F 1351 08-03-2015 06:06:17 -0.8 C 92 %
1352 08-03-2015 06:18:17 -0.9 C 92 %
1353 08-03-2015 06:30:17 -0.8 C 92 %
1354 08-03-2015 06:42:17 -0.9 C 93 %
1355 08-03-2015 06:54:17 -0.9 C 93 %
1356 08-03-2015 07:06:17 -1 C 93 %
1357 08-03-2015 07:18:17 -1 C 93 %
1358 08-03-2015 07:30:17 -0.9 C 93 %
1359 08-03-2015 07:42:17 -0.9 C 93 %
1360 08-03-2015 07:54:17 -0.9 C 93 %
1361 08-03-2015 08:06:17 -0.7 C 93 %
1362 08-03-2015 08:18:17 -0.6 C 94 %
1363 08-03-2015 08:30:17 -0.6 C 94 %
1364 08-03-2015 08:42:17 -0.4 C 94 %
1365 08-03-2015 08:54:17 0 C 94 %
1366 08-03-2015 09:06:17 0.1 C 94 %
1367 08-03-2015 09:18:17 0.3 C 94 %
1368 08-03-2015 09:30:17 0.5 C 94 %
1369 08-03-2015 09:42:17 0.8 C 95 %
1370 08-03-2015 09:54:17 1.3 C 94 %
1371 08-03-2015 10:06:16 1.5 C 94 %
1372 08-03-2015 10:18:17 2.2 C 93 %
1373 08-03-2015 10:30:17 3 C 92 %
1374 08-03-2015 10:42:17 3.6 C 90 %
1375 08-03-2015 10:54:17 4.2 C 87 %
Sensor: Nr:Datum:Temp:Feuchte:
Aussen-T/F 1376 08-03-2015 11:06:17 4.9 C 84 %
1377 08-03-2015 11:18:17 5.6 C 80 %
1378 08-03-2015 11:30:17 6.2 C 76 %
1379 08-03-2015 11:42:18 6.9 C 76 %
1380 08-03-2015 11:54:17 7.1 C 73 %
1381 08-03-2015 12:06:17 7.7 C 68 %
1382 08-03-2015 12:18:18 8.5 C 67 %
1383 08-03-2015 12:30:17 9.2 C 64 %
1384 08-03-2015 12:42:17 9.8 C 63 %
1385 08-03-2015 12:54:17 10.2 C 61 %
1386 08-03-2015 13:06:17 10.7 C 60 %
1387 08-03-2015 13:18:17 11.1 C 59 %
1388 08-03-2015 13:30:17 11.7 C 60 %
1389 08-03-2015 13:42:17 12.3 C 50 %
1390 08-03-2015 13:54:17 13.4 C 42 %
1391 08-03-2015 14:06:17 13.6 C 49 %
1392 08-03-2015 14:18:17 13.8 C 44 %
1393 08-03-2015 14:30:17 14.1 C 44 %
1394 08-03-2015 14:42:17 14.2 C 41 %
1395 08-03-2015 14:54:17 14.5 C 42 %
1396 08-03-2015 15:06:18 14.4 C 45 %
1397 08-03-2015 15:18:17 14.9 C 42 %
1398 08-03-2015 15:30:17 15.1 C 39 %
1399 08-03-2015 15:42:17 15 C 40 %
1400 08-03-2015 15:54:17 15 C 41 %
Sensor: Nr:Datum:Temp:Feuchte:
Aussen-T/F 1401 08-03-2015 16:06:17 15.1 C 40 %
1402 08-03-2015 16:18:17 15.3 C 40 %
1403 08-03-2015 16:30:17 15.2 C 40 %
1404 08-03-2015 16:42:17 14.9 C 44 %
1405 08-03-2015 16:54:17 14.8 C 41 %
1406 08-03-2015 17:06:17 14.4 C 42 %
1407 08-03-2015 17:18:17 13.6 C 45 %
1408 08-03-2015 17:30:17 13 C 45 %
1409 08-03-2015 17:42:17 11.8 C 50 %
1410 08-03-2015 17:54:17 11.3 C 51 %
1411 08-03-2015 18:06:17 10.3 C 55 %
1412 08-03-2015 18:18:17 9.6 C 58 %
1413 08-03-2015 18:30:17 9.2 C 59 %
1414 08-03-2015 18:42:17 8.9 C 62 %
1415 08-03-2015 18:54:17 8.5 C 63 %
1416 08-03-2015 19:06:17 8.3 C 63 %
1417 08-03-2015 19:18:17 7.9 C 64 %
1418 08-03-2015 19:30:17 7.5 C 65 %
1419 08-03-2015 19:42:17 6.9 C 66 %
1420 08-03-2015 19:54:17 6.6 C 67 %
1421 08-03-2015 20:06:17 6.5 C 68 %
1422 08-03-2015 20:18:17 6.5 C 69 %
1423 08-03-2015 20:30:17 6.4 C 70 %
1424 08-03-2015 20:42:17 6.3 C 71 %
1425 08-03-2015 20:54:17 6.2 C 71 %
Sensor: Nr:Datum:Temp:Feuchte:
Aussen-T/F 1426 08-03-2015 21:06:17 5.8 C 71 %
1427 08-03-2015 21:18:17 5.9 C 72 %
1428 08-03-2015 21:30:17 5.6 C 72 %
1429 08-03-2015 21:42:17 5.7 C 73 %
1430 08-03-2015 21:54:17 5.5 C 72 %
1431 08-03-2015 22:06:17 5.3 C 73 %
1432 08-03-2015 22:18:16 5 C 73 %
1433 08-03-2015 22:30:17 4.9 C 74 %
1434 08-03-2015 22:42:17 4.8 C 75 %
1435 08-03-2015 22:54:17 4.2 C 75 %
1436 08-03-2015 23:06:17 3.9 C 76 %
1437 08-03-2015 23:18:17 3.7 C 78 %
1438 08-03-2015 23:30:16 4.1 C 79 %
1439 08-03-2015 23:42:17 4.1 C 79 %
1440 08-03-2015 23:54:17 3.8 C 80 %
1441 09-03-2015 00:06:17 3.6 C 81 %
1442 09-03-2015 00:18:17 3.6 C 81 %
1443 09-03-2015 00:30:17 3.6 C 81 %
1444 09-03-2015 00:42:17 3.8 C 82 %
1445 09-03-2015 00:54:17 3.9 C 81 %
1446 09-03-2015 01:06:17 3.3 C 80 %
1447 09-03-2015 01:18:17 3 C 81 %
1448 09-03-2015 01:30:17 2.7 C 83 %
1449 09-03-2015 01:42:17 2.7 C 84 %
1450 09-03-2015 01:54:17 2.8 C 85 %
Sensor: Nr:Datum:Temp:Feuchte:
Aussen-T/F 1451 09-03-2015 02:06:17 2.8 C 86 %
1452 09-03-2015 02:18:17 2.5 C 85 %
1453 09-03-2015 02:30:17 2.4 C 86 %
1454 09-03-2015 02:42:17 2.8 C 87 %
1455 09-03-2015 02:54:17 2.8 C 87 %
1456 09-03-2015 03:06:17 3.3 C 87 %
1457 09-03-2015 03:18:17 3.2 C 87 %
1458 09-03-2015 03:30:17 3.3 C 87 %
1459 09-03-2015 03:42:17 3.3 C 87 %
1460 09-03-2015 03:54:17 3 C 86 %
1461 09-03-2015 04:06:17 2.4 C 86 %
1462 09-03-2015 04:18:17 2.3 C 87 %
1463 09-03-2015 04:30:17 2.5 C 88 %
1464 09-03-2015 04:42:17 3 C 88 %
1465 09-03-2015 04:54:17 3.2 C 89 %
1466 09-03-2015 05:06:17 3.4 C 89 %
1467 09-03-2015 05:18:17 3.6 C 89 %
1468 09-03-2015 05:30:17 3.7 C 89 %
1469 09-03-2015 05:42:17 4 C 87 %
1470 09-03-2015 05:54:17 4 C 87 %
1471 09-03-2015 06:06:17 4 C 86 %
1472 09-03-2015 06:18:17 4.1 C 85 %
1473 09-03-2015 06:30:17 4.1 C 85 %
1474 09-03-2015 06:42:17 4.2 C 84 %
1475 09-03-2015 06:54:17 4.2 C 84 %
Sensor: Nr:Datum:Temp:Feuchte:
Aussen-T/F 1476 09-03-2015 07:06:17 4.3 C 84 %
1477 09-03-2015 07:18:17 4.4 C 84 %
1478 09-03-2015 07:30:17 4.5 C 84 %
1479 09-03-2015 07:42:17 4.6 C 83 %
1480 09-03-2015 07:54:17 4.7 C 83 %
1481 09-03-2015 08:06:17 5 C 81 %
1482 09-03-2015 08:18:17 5.2 C 81 %
1483 09-03-2015 08:30:17 5.4 C 80 %
1484 09-03-2015 08:42:17 5.6 C 79 %
1485 09-03-2015 08:54:17 5.8 C 78 %
1486 09-03-2015 09:06:17 6 C 76 %
1487 09-03-2015 09:18:17 6.5 C 75 %
1488 09-03-2015 09:30:17 6.9 C 74 %
1489 09-03-2015 09:42:17 7.2 C 72 %
1490 09-03-2015 09:54:17 7.5 C 72 %
1491 09-03-2015 10:06:17 7.5 C 70 %
1492 09-03-2015 10:18:17 7.9 C 70 %
1493 09-03-2015 10:30:17 8.2 C 68 %
1494 09-03-2015 10:42:17 8.4 C 69 %
1495 09-03-2015 10:54:17 8.7 C 69 %
1496 09-03-2015 11:06:17 9.1 C 67 %
1497 09-03-2015 11:18:17 9.5 C 66 %
1498 09-03-2015 11:30:18 9.9 C 66 %
1499 09-03-2015 11:42:18 10.2 C 65 %
1500 09-03-2015 11:54:17 10.5 C 64 %
Sensor: Nr:Datum:Temp:Feuchte:
Aussen-T/F 1501 09-03-2015 12:06:17 10.6 C 62 %
1502 09-03-2015 12:18:17 10.9 C 61 %
1503 09-03-2015 12:30:17 11.1 C 59 %
1504 09-03-2015 12:42:17 11.3 C 59 %
1505 09-03-2015 12:54:17 11.4 C 59 %
1506 09-03-2015 13:06:17 11.6 C 59 %
1507 09-03-2015 13:18:16 11.8 C 58 %
1508 09-03-2015 13:30:17 12.1 C 56 %
1509 09-03-2015 13:42:17 12.8 C 54 %
1510 09-03-2015 13:54:16 13.1 C 51 %
1511 09-03-2015 14:06:17 13.2 C 51 %
1512 09-03-2015 14:18:17 13.1 C 51 %
1513 09-03-2015 14:30:17 13.3 C 51 %
1514 09-03-2015 14:42:17 13.5 C 50 %
1515 09-03-2015 14:54:17 13.7 C 50 %
1516 09-03-2015 15:06:17 13.8 C 50 %
1517 09-03-2015 15:18:17 13.9 C 50 %
1518 09-03-2015 15:30:17 14.2 C 48 %
1519 09-03-2015 15:42:17 14.2 C 48 %
1520 09-03-2015 15:54:17 14.4 C 48 %
1521 09-03-2015 16:06:17 14.7 C 48 %
1522 09-03-2015 16:18:17 14.8 C 47 %
1523 09-03-2015 16:30:17 15 C 47 %
1524 09-03-2015 16:42:17 15 C 46 %
1525 09-03-2015 16:54:17 15.5 C 45 %
Sensor: Nr:Datum:Temp:Feuchte:
Aussen-T/F 1526 09-03-2015 17:06:17 14.4 C 48 %
1527 09-03-2015 17:18:17 13.3 C 53 %
1528 09-03-2015 17:30:17 12.3 C 56 %
1529 09-03-2015 17:42:17 11.3 C 61 %
1530 09-03-2015 17:54:17 10.6 C 64 %
1531 09-03-2015 18:06:17 10 C 66 %
1532 09-03-2015 18:18:17 9.7 C 68 %
1533 09-03-2015 18:30:17 9.3 C 69 %
1534 09-03-2015 18:42:17 9 C 70 %
1535 09-03-2015 18:54:17 8.8 C 71 %
1536 09-03-2015 19:06:17 8.4 C 71 %
1537 09-03-2015 19:18:17 8.1 C 72 %
1538 09-03-2015 19:30:17 7.7 C 75 %
1539 09-03-2015 19:42:17 7.6 C 76 %
1540 09-03-2015 19:54:17 7.2 C 76 %
1541 09-03-2015 20:06:17 6.9 C 78 %
1542 09-03-2015 20:18:17 6.8 C 79 %
1543 09-03-2015 20:30:17 6.5 C 79 %
1544 09-03-2015 20:42:17 6.2 C 80 %
1545 09-03-2015 20:54:17 6 C 80 %
1546 09-03-2015 21:06:17 5.8 C 82 %
1547 09-03-2015 21:18:17 5.4 C 82 %
1548 09-03-2015 21:30:17 5.3 C 83 %
1549 09-03-2015 21:42:17 5.1 C 84 %
1550 09-03-2015 21:54:17 5.4 C 86 %
Sensor: Nr:Datum:Temp:Feuchte:
Aussen-T/F 1551 09-03-2015 22:06:17 4.9 C 86 %
1552 09-03-2015 22:18:17 4.7 C 86 %
1553 09-03-2015 22:30:17 4.3 C 87 %
1554 09-03-2015 22:42:17 4.4 C 87 %
1555 09-03-2015 22:54:17 4.1 C 88 %
1556 09-03-2015 23:06:17 3.8 C 89 %
1557 09-03-2015 23:18:17 3.6 C 89 %
1558 09-03-2015 23:30:17 3.5 C 90 %
1559 09-03-2015 23:42:17 3.7 C 91 %
1560 09-03-2015 23:54:17 3.3 C 91 %
1561 10-03-2015 00:06:17 3.4 C 91 %
1562 10-03-2015 00:18:17 3.4 C 92 %
1563 10-03-2015 00:30:17 3.1 C 91 %
1564 10-03-2015 00:42:17 3 C 92 %
1565 10-03-2015 00:54:17 3.4 C 92 %
1566 10-03-2015 01:06:17 3.6 C 93 %
1567 10-03-2015 01:18:17 3.6 C 93 %
1568 10-03-2015 01:30:17 2.9 C 94 %
1569 10-03-2015 01:42:17 2.9 C 94 %
1570 10-03-2015 01:54:17 2.8 C 94 %
1571 10-03-2015 02:06:17 2.8 C 94 %
1572 10-03-2015 02:18:17 2.8 C 94 %
1573 10-03-2015 02:30:17 2.5 C 94 %
1574 10-03-2015 02:42:17 2.6 C 94 %
1575 10-03-2015 02:54:17 2.6 C 95 %
Sensor: Nr:Datum:Temp:Feuchte:
Aussen-T/F 1576 10-03-2015 03:06:17 3.1 C 94 %
1577 10-03-2015 03:18:17 2.8 C 95 %
1578 10-03-2015 03:30:17 2.6 C 95 %
1579 10-03-2015 03:42:17 2.3 C 95 %
1580 10-03-2015 03:54:17 2 C 95 %
1581 10-03-2015 04:06:17 2.1 C 95 %
1582 10-03-2015 04:18:17 1.9 C 95 %
1583 10-03-2015 04:30:17 1.5 C 95 %
1584 10-03-2015 04:42:17 1.3 C 95 %
1585 10-03-2015 04:54:17 1.8 C 95 %
1586 10-03-2015 05:06:17 2 C 95 %
1587 10-03-2015 05:18:17 1.8 C 95 %
1588 10-03-2015 05:30:17 1.4 C 95 %
1589 10-03-2015 05:42:17 1.7 C 95 %
1590 10-03-2015 05:54:17 2.2 C 95 %
1591 10-03-2015 06:06:17 2.6 C 95 %
1592 10-03-2015 06:18:17 2.8 C 95 %
1593 10-03-2015 06:30:17 3 C 95 %
1594 10-03-2015 06:42:17 3.1 C 95 %
1595 10-03-2015 06:54:17 3.2 C 95 %
1596 10-03-2015 07:06:17 3.3 C 95 %
1597 10-03-2015 07:18:17 3.5 C 95 %
1598 10-03-2015 07:30:17 3.6 C 95 %
1599 10-03-2015 07:42:17 3.8 C 95 %
1600 10-03-2015 07:54:17 4 C 95 %
Sensor: Nr:Datum:Temp:Feuchte:
Aussen-T/F 1601 10-03-2015 08:06:17 4.1 C 95 %
1602 10-03-2015 08:18:17 4.2 C 95 %
1603 10-03-2015 08:30:17 4.2 C 95 %
1604 10-03-2015 08:42:17 4.3 C 95 %
1605 10-03-2015 08:54:17 4.4 C 95 %
1606 10-03-2015 09:06:17 4.5 C 95 %
1607 10-03-2015 09:18:17 4.6 C 94 %
1608 10-03-2015 09:30:17 4.8 C 94 %
1609 10-03-2015 09:42:17 4.9 C 94 %
1610 10-03-2015 09:54:17 4.9 C 94 %
1611 10-03-2015 10:06:17 5.2 C 93 %
1612 10-03-2015 10:18:17 5.3 C 93 %
1613 10-03-2015 10:30:17 5.5 C 93 %
1614 10-03-2015 10:42:17 5.6 C 93 %
1615 10-03-2015 10:54:17 5.6 C 93 %
1616 10-03-2015 11:06:17 5.6 C 93 %
1617 10-03-2015 11:18:17 5.7 C 93 %
1618 10-03-2015 11:30:17 5.9 C 93 %
1619 10-03-2015 11:42:17 6.1 C 92 %
1620 10-03-2015 11:54:17 6.2 C 93 %
1621 10-03-2015 12:06:17 6.2 C 93 %
1622 10-03-2015 12:18:17 6.2 C 93 %
1623 10-03-2015 12:30:17 6.4 C 93 %
1624 10-03-2015 12:42:17 6.7 C 93 %
1625 10-03-2015 12:54:17 6.8 C 93 %
Sensor: Nr:Datum:Temp:Feuchte:
Aussen-T/F 1626 10-03-2015 13:06:17 7.1 C 92 %
1627 10-03-2015 13:18:17 7.1 C 92 %
1628 10-03-2015 13:30:17 7.3 C 93 %
1629 10-03-2015 13:42:18 7.6 C 93 %
1630 10-03-2015 13:54:17 7.8 C 93 %
1631 10-03-2015 14:06:17 8 C 92 %
1632 10-03-2015 14:18:17 8.1 C 92 %
1633 10-03-2015 14:30:17 8.1 C 92 %
1634 10-03-2015 14:42:17 7.9 C 93 %
1635 10-03-2015 14:54:17 8.1 C 92 %
1636 10-03-2015 15:06:17 8.2 C 92 %
1637 10-03-2015 15:18:17 8.5 C 92 %
1638 10-03-2015 15:30:17 8.6 C 93 %
1639 10-03-2015 15:42:17 8.6 C 93 %
1640 10-03-2015 15:54:17 8.6 C 93 %
1641 10-03-2015 16:06:17 8.4 C 93 %
1642 10-03-2015 16:18:17 8.6 C 93 %
1643 10-03-2015 16:30:17 8.7 C 93 %
1644 10-03-2015 16:42:17 8.9 C 93 %
1645 10-03-2015 16:54:17 9 C 92 %
1646 10-03-2015 17:06:17 9.1 C 93 %
1647 10-03-2015 17:18:17 9.1 C 92 %
1648 10-03-2015 17:30:17 9 C 92 %
1649 10-03-2015 17:42:17 9 C 92 %
1650 10-03-2015 17:54:17 9.1 C 92 %
Sensor: Nr:Datum:Temp:Feuchte:
Aussen-T/F 1651 10-03-2015 18:06:17 8.5 C 92 %
1652 10-03-2015 18:18:17 7.8 C 92 %
1653 10-03-2015 18:30:17 7.5 C 92 %
1654 10-03-2015 18:42:17 7.1 C 92 %
1655 10-03-2015 18:54:17 6.8 C 93 %
1656 10-03-2015 19:06:17 6.8 C 93 %
1657 10-03-2015 19:18:17 7 C 93 %
1658 10-03-2015 19:30:17 6.4 C 94 %
1659 10-03-2015 19:42:17 5.7 C 94 %
1660 10-03-2015 19:54:17 5.9 C 94 %
1661 10-03-2015 20:06:17 5.9 C 95 %
1662 10-03-2015 20:18:17 5.8 C 95 %
1663 10-03-2015 20:30:17 6.2 C 94 %
1664 10-03-2015 20:42:17 5.3 C 95 %
1665 10-03-2015 20:54:17 5 C 95 %
1666 10-03-2015 21:06:17 5.2 C 95 %
1667 10-03-2015 21:18:16 4.9 C 95 %
1668 10-03-2015 21:30:17 4.8 C 95 %
1669 10-03-2015 21:42:17 5 C 95 %
1670 10-03-2015 21:54:17 5.5 C 95 %
1671 10-03-2015 22:06:17 5.7 C 95 %
1672 10-03-2015 22:18:17 5.8 C 95 %
1673 10-03-2015 22:30:17 5.8 C 95 %
1674 10-03-2015 22:42:17 5.9 C 95 %
1675 10-03-2015 22:54:17 5.9 C 95 %
Sensor: Nr:Datum:Temp:Feuchte:
Aussen-T/F 1676 10-03-2015 23:06:17 5.9 C 95 %
1677 10-03-2015 23:18:17 5.9 C 95 %
1678 10-03-2015 23:30:17 5.9 C 95 %
1679 10-03-2015 23:42:17 5.8 C 95 %
1680 10-03-2015 23:54:17 5.1 C 95 %
1681 11-03-2015 00:06:17 5.4 C 95 %
1682 11-03-2015 00:18:17 5.2 C 95 %
1683 11-03-2015 00:30:17 5.2 C 95 %
1684 11-03-2015 00:42:17 4.8 C 95 %
1685 11-03-2015 00:54:17 3.5 C 95 %
1686 11-03-2015 01:06:17 3.6 C 95 %
1687 11-03-2015 01:18:17 3.3 C 95 %
1688 11-03-2015 01:30:17 3 C 95 %
1689 11-03-2015 01:42:17 2.6 C 95 %
1690 11-03-2015 01:54:17 2.9 C 95 %
1691 11-03-2015 02:06:17 2.6 C 95 %
1692 11-03-2015 02:18:17 2.3 C 95 %
1693 11-03-2015 02:30:17 2.2 C 95 %
1694 11-03-2015 02:42:17 2 C 95 %
1695 11-03-2015 02:54:17 1.8 C 95 %
1696 11-03-2015 03:06:17 1.5 C 95 %
1697 11-03-2015 03:18:17 1.3 C 95 %
1698 11-03-2015 03:30:17 1.6 C 95 %
1699 11-03-2015 03:42:17 1.8 C 95 %
1700 11-03-2015 03:54:17 1.6 C 95 %
Sensor: Nr:Datum:Temp:Feuchte:
Aussen-T/F 1701 11-03-2015 04:06:17 1.1 C 95 %
1702 11-03-2015 04:18:17 0.8 C 95 %
1703 11-03-2015 04:30:17 1 C 95 %
1704 11-03-2015 04:42:17 0.6 C 95 %
1705 11-03-2015 04:54:17 0.6 C 95 %
1706 11-03-2015 05:06:17 0.6 C 95 %
1707 11-03-2015 05:18:17 1.1 C 95 %
1708 11-03-2015 05:30:17 1.4 C 95 %
1709 11-03-2015 05:42:17 1.6 C 95 %
1710 11-03-2015 05:54:17 1.9 C 95 %
1711 11-03-2015 06:06:17 1.8 C 95 %
1712 11-03-2015 06:18:17 2.1 C 95 %
1713 11-03-2015 06:30:17 2.2 C 95 %
1714 11-03-2015 06:42:17 2.2 C 95 %
1715 11-03-2015 06:54:17 2.1 C 95 %
1716 11-03-2015 07:06:17 2.1 C 95 %
1717 11-03-2015 07:18:17 2.1 C 95 %
1718 11-03-2015 07:30:17 2.1 C 95 %
1719 11-03-2015 07:42:17 2.1 C 95 %
1720 11-03-2015 07:54:17 2.1 C 95 %
1721 11-03-2015 08:06:17 2.2 C 95 %
1722 11-03-2015 08:18:17 2.3 C 95 %
1723 11-03-2015 08:30:17 2.2 C 95 %
1724 11-03-2015 08:42:17 2.2 C 95 %
1725 11-03-2015 08:54:17 2.5 C 95 %
Sensor: Nr:Datum:Temp:Feuchte:
Aussen-T/F 1726 11-03-2015 09:06:17 2.5 C 95 %
1727 11-03-2015 09:18:17 2.5 C 95 %
1728 11-03-2015 09:30:17 2.7 C 95 %
1729 11-03-2015 09:42:17 3 C 95 %
1730 11-03-2015 09:54:17 3.2 C 95 %
1731 11-03-2015 10:06:17 3.5 C 95 %
1732 11-03-2015 10:18:17 3.8 C 95 %
1733 11-03-2015 10:30:17 3.9 C 94 %
1734 11-03-2015 10:42:17 4.3 C 91 %
1735 11-03-2015 10:54:17 4.2 C 89 %
1736 11-03-2015 11:06:17 4.1 C 85 %
1737 11-03-2015 11:18:17 4 C 82 %
1738 11-03-2015 11:30:17 3.8 C 81 %
1739 11-03-2015 11:42:17 4 C 80 %
1740 11-03-2015 11:54:17 4.3 C 78 %
1741 11-03-2015 12:06:17 4.7 C 76 %
1742 11-03-2015 12:18:17 4.9 C 72 %
1743 11-03-2015 12:30:17 5.3 C 69 %
1744 11-03-2015 12:42:17 5.7 C 66 %
1745 11-03-2015 12:54:17 6.1 C 65 %
1746 11-03-2015 13:06:17 6.2 C 60 %
1747 11-03-2015 13:18:17 6.5 C 59 %
1748 11-03-2015 13:30:17 6.9 C 59 %
1749 11-03-2015 13:42:17 7.3 C 56 %
1750 11-03-2015 13:54:17 7.5 C 54 %
Sensor: Nr:Datum:Temp:Feuchte:
Aussen-T/F 1751 11-03-2015 14:06:17 7.6 C 53 %
1752 11-03-2015 14:18:17 7.8 C 52 %
1753 11-03-2015 14:30:18 8 C 50 %
1754 11-03-2015 14:42:18 8.2 C 49 %
1755 11-03-2015 14:54:17 8.4 C 50 %
1756 11-03-2015 15:06:17 8.6 C 47 %
1757 11-03-2015 15:18:17 8.8 C 45 %
1758 11-03-2015 15:30:17 9.2 C 45 %
1759 11-03-2015 15:42:17 9.4 C 42 %
1760 11-03-2015 15:54:17 9.6 C 41 %
1761 11-03-2015 16:06:17 9.9 C 40 %
1762 11-03-2015 16:18:17 10.1 C 44 %
1763 11-03-2015 16:30:17 10.1 C 40 %
1764 11-03-2015 16:42:17 10.6 C 42 %
1765 11-03-2015 16:54:17 12.1 C 40 %
1766 11-03-2015 17:06:17 11 C 45 %
1767 11-03-2015 17:18:17 9.9 C 49 %
1768 11-03-2015 17:30:17 9.3 C 51 %
1769 11-03-2015 17:42:17 8.7 C 53 %
1770 11-03-2015 17:54:17 9.2 C 52 %
1771 11-03-2015 18:06:17 7.8 C 56 %
1772 11-03-2015 18:18:17 6.5 C 61 %
1773 11-03-2015 18:30:17 5.5 C 65 %
1774 11-03-2015 18:42:17 5.1 C 68 %
1775 11-03-2015 18:54:17 4.8 C 69 %
Sensor: Nr:Datum:Temp:Feuchte:
Aussen-T/F 1776 11-03-2015 19:06:17 4.4 C 70 %
1777 11-03-2015 19:18:17 4.3 C 71 %
1778 11-03-2015 19:30:17 3.9 C 74 %
1779 11-03-2015 19:42:17 3.4 C 76 %
1780 11-03-2015 19:54:17 3.3 C 77 %
1781 11-03-2015 20:06:17 2.8 C 78 %
1782 11-03-2015 20:18:17 2.7 C 79 %
1783 11-03-2015 20:30:17 2.3 C 79 %
1784 11-03-2015 20:42:17 2.3 C 81 %
1785 11-03-2015 20:54:17 2.1 C 81 %
1786 11-03-2015 21:06:18 1.7 C 82 %
1787 11-03-2015 21:18:17 1.6 C 83 %
1788 11-03-2015 21:30:17 1.6 C 83 %
1789 11-03-2015 21:42:17 1.1 C 83 %
1790 11-03-2015 21:54:17 1.1 C 83 %
1791 11-03-2015 22:06:17 0.9 C 84 %
1792 11-03-2015 22:18:17 0.6 C 84 %
1793 11-03-2015 22:30:17 0.4 C 84 %
1794 11-03-2015 22:42:17 0.9 C 85 %
1795 11-03-2015 22:54:17 0.4 C 85 %
1796 11-03-2015 23:06:17 0.2 C 85 %
1797 11-03-2015 23:18:17 0.2 C 85 %
1798 11-03-2015 23:30:17 -0.1 C 85 %
1799 11-03-2015 23:42:17 -0.2 C 85 %
1800 11-03-2015 23:54:16 -0.3 C 86 %
Sensor: Nr:Datum:Temp:Feuchte:
Aussen-T/F 1801 12-03-2015 00:06:17 -0.5 C 86 %
1802 12-03-2015 00:18:17 -0.6 C 86 %
1803 12-03-2015 00:30:17 -0.5 C 87 %
1804 12-03-2015 00:42:17 -0.6 C 87 %
1805 12-03-2015 00:54:17 -0.7 C 88 %
1806 12-03-2015 01:06:18 -0.6 C 88 %
1807 12-03-2015 01:18:17 -0.5 C 88 %
1808 12-03-2015 01:30:17 -0.7 C 88 %
1809 12-03-2015 01:42:17 -0.9 C 88 %
1810 12-03-2015 01:54:17 -1 C 88 %
1811 12-03-2015 02:06:17 -1.1 C 89 %
1812 12-03-2015 02:18:17 -1.1 C 89 %
1813 12-03-2015 02:30:17 -1 C 89 %
1814 12-03-2015 02:42:18 -1.2 C 90 %
1815 12-03-2015 02:54:17 -1 C 90 %
1816 12-03-2015 03:06:17 -1.3 C 90 %
1817 12-03-2015 03:18:17 -1.3 C 90 %
1818 12-03-2015 03:30:17 -1 C 91 %
1819 12-03-2015 03:42:17 -1.3 C 91 %
1820 12-03-2015 03:54:17 -1.4 C 91 %
1821 12-03-2015 04:06:17 -1.5 C 91 %
1822 12-03-2015 04:18:17 -1.5 C 91 %
1823 12-03-2015 04:30:17 -1.7 C 91 %
1824 12-03-2015 04:42:17 -1.5 C 91 %
1825 12-03-2015 04:54:17 -1.6 C 92 %
Sensor: Nr:Datum:Temp:Feuchte:
Aussen-T/F 1826 12-03-2015 05:06:17 -1.8 C 92 %
1827 12-03-2015 05:18:17 -1.8 C 92 %
1828 12-03-2015 05:30:17 -1.8 C 92 %
1829 12-03-2015 05:42:17 -2.1 C 92 %
1830 12-03-2015 05:54:17 -2 C 92 %
1831 12-03-2015 06:06:17 -2.1 C 92 %
1832 12-03-2015 06:18:17 -2.2 C 92 %
1833 12-03-2015 06:30:17 -2.2 C 92 %
1834 12-03-2015 06:42:17 -1.9 C 92 %
1835 12-03-2015 06:54:17 -1.7 C 93 %
1836 12-03-2015 07:06:17 -1.6 C 93 %
1837 12-03-2015 07:18:17 -1.7 C 93 %
1838 12-03-2015 07:30:17 -1.6 C 93 %
1839 12-03-2015 07:42:17 -1.8 C 93 %
1840 12-03-2015 07:54:17 -1.8 C 93 %
1841 12-03-2015 08:06:17 -1.7 C 93 %
1842 12-03-2015 08:18:17 -1.7 C 93 %
1843 12-03-2015 08:30:17 -1.6 C 93 %
1844 12-03-2015 08:42:17 -1.4 C 93 %
1845 12-03-2015 08:54:17 -1.2 C 93 %
1846 12-03-2015 09:06:17 -1.1 C 93 %
1847 12-03-2015 09:18:17 -0.9 C 93 %
1848 12-03-2015 09:30:17 -0.7 C 94 %
1849 12-03-2015 09:42:17 -0.1 C 94 %
1850 12-03-2015 09:54:17 0.3 C 94 %
Sensor: Nr:Datum:Temp:Feuchte:
Aussen-T/F 1851 12-03-2015 10:06:17 0.6 C 94 %
1852 12-03-2015 10:18:17 1.2 C 94 %
1853 12-03-2015 10:30:17 1.9 C 93 %
1854 12-03-2015 10:42:17 2.6 C 91 %
1855 12-03-2015 10:54:17 2.8 C 89 %
1856 12-03-2015 11:06:17 3.6 C 87 %
1857 12-03-2015 11:18:17 4.2 C 84 %
1858 12-03-2015 11:30:17 4.7 C 82 %
1859 12-03-2015 11:42:17 5.3 C 79 %
1860 12-03-2015 11:54:16 5.9 C 76 %
1861 12-03-2015 12:06:17 6.4 C 70 %
1862 12-03-2015 12:18:17 7 C 62 %
1863 12-03-2015 12:30:17 7.9 C 57 %
1864 12-03-2015 12:42:17 8.4 C 55 %
1865 12-03-2015 12:54:17 8.7 C 54 %
1866 12-03-2015 13:06:18 8.8 C 52 %
1867 12-03-2015 13:18:17 9.2 C 49 %
1868 12-03-2015 13:30:17 9.2 C 50 %
1869 12-03-2015 13:42:17 9.5 C 47 %
1870 12-03-2015 13:54:17 9.6 C 47 %
1871 12-03-2015 14:06:17 9.8 C 46 %
1872 12-03-2015 14:18:17 10.1 C 45 %
1873 12-03-2015 14:30:17 9.9 C 44 %
1874 12-03-2015 14:42:17 10.2 C 42 %
1875 12-03-2015 14:54:17 10.3 C 41 %
Sensor: Nr:Datum:Temp:Feuchte:
Aussen-T/F 1876 12-03-2015 15:06:17 10.4 C 40 %
1877 12-03-2015 15:18:17 10.7 C 41 %
1878 12-03-2015 15:30:17 11.2 C 38 %
1879 12-03-2015 15:42:17 11.3 C 39 %
1880 12-03-2015 15:54:17 11.7 C 37 %
1881 12-03-2015 16:06:17 12 C 36 %
1882 12-03-2015 16:18:17 12.3 C 36 %
1883 12-03-2015 16:30:17 12.1 C 35 %
1884 12-03-2015 16:42:17 12.2 C 35 %
1885 12-03-2015 16:54:17 13.5 C 31 %
1886 12-03-2015 17:06:17 12.3 C 36 %
1887 12-03-2015 17:18:16 12.2 C 35 %
1888 12-03-2015 17:30:17 12.5 C 36 %
1889 12-03-2015 17:42:17 12 C 40 %
1890 12-03-2015 17:54:17 12.2 C 40 %
1891 12-03-2015 18:06:17 10 C 44 %
1892 12-03-2015 18:18:17 8 C 51 %
1893 12-03-2015 18:30:17 6.5 C 58 %
1894 12-03-2015 18:42:17 6 C 60 %
1895 12-03-2015 18:54:17 5.8 C 61 %
1896 12-03-2015 19:06:17 5.7 C 62 %
1897 12-03-2015 19:18:17 5.4 C 62 %
1898 12-03-2015 19:30:17 5.3 C 63 %
1899 12-03-2015 19:42:17 5.1 C 64 %
1900 12-03-2015 19:54:17 4.8 C 66 %
Sensor: Nr:Datum:Temp:Feuchte:
Aussen-T/F 1901 12-03-2015 20:06:17 4.3 C 68 %
1902 12-03-2015 20:18:17 4 C 71 %
1903 12-03-2015 20:30:17 3.7 C 72 %
1904 12-03-2015 20:42:17 3.4 C 73 %
1905 12-03-2015 20:54:17 2.8 C 75 %
1906 12-03-2015 21:06:17 2.6 C 75 %
1907 12-03-2015 21:18:17 2.3 C 76 %
1908 12-03-2015 21:30:17 2.2 C 76 %
1909 12-03-2015 21:42:17 1.9 C 78 %
1910 12-03-2015 21:54:17 1.8 C 79 %
1911 12-03-2015 22:06:17 1.7 C 80 %
1912 12-03-2015 22:18:17 1.9 C 81 %
1913 12-03-2015 22:30:17 2.1 C 80 %
1914 12-03-2015 22:42:17 2.4 C 78 %
1915 12-03-2015 22:54:17 2.4 C 74 %
1916 12-03-2015 23:06:17 1.6 C 75 %
1917 12-03-2015 23:18:17 1.3 C 76 %
1918 12-03-2015 23:30:17 1.5 C 76 %
1919 12-03-2015 23:42:17 1.5 C 77 %
1920 12-03-2015 23:54:17 1.4 C 76 %
1921 13-03-2015 00:06:17 1.6 C 77 %
1922 13-03-2015 00:18:17 1.3 C 77 %
1923 13-03-2015 00:30:17 1.2 C 77 %
1924 13-03-2015 00:42:17 1.1 C 77 %
1925 13-03-2015 00:54:16 1.1 C 77 %
Sensor: Nr:Datum:Temp:Feuchte:
Aussen-T/F 1926 13-03-2015 01:06:17 0.9 C 79 %
1927 13-03-2015 01:18:17 1.3 C 78 %
1928 13-03-2015 01:30:17 1.8 C 78 %
1929 13-03-2015 01:42:17 1.5 C 77 %
1930 13-03-2015 01:54:17 1.9 C 77 %
1931 13-03-2015 02:06:17 1.7 C 77 %
1932 13-03-2015 02:18:17 1.5 C 77 %
1933 13-03-2015 02:30:17 1.1 C 77 %
1934 13-03-2015 02:42:17 1.1 C 78 %
1935 13-03-2015 02:54:17 0.7 C 80 %
1936 13-03-2015 03:06:17 0.9 C 80 %
1937 13-03-2015 03:18:17 0.6 C 81 %
1938 13-03-2015 03:30:17 0.4 C 81 %
1939 13-03-2015 03:42:18 0.4 C 82 %
1940 13-03-2015 03:54:16 0.4 C 82 %
1941 13-03-2015 04:06:17 0 C 82 %
1942 13-03-2015 04:18:17 -0.2 C 83 %
1943 13-03-2015 04:30:17 -0.3 C 83 %
1944 13-03-2015 04:42:17 -0.3 C 84 %
1945 13-03-2015 04:54:17 -0.3 C 84 %
1946 13-03-2015 05:06:17 -0.3 C 85 %
1947 13-03-2015 05:18:17 -0.2 C 85 %
1948 13-03-2015 05:30:17 -0.4 C 85 %
1949 13-03-2015 05:42:17 -0.5 C 86 %
1950 13-03-2015 05:54:17 -0.5 C 86 %
Sensor: Nr:Datum:Temp:Feuchte:
Aussen-T/F 1951 13-03-2015 06:06:17 -0.7 C 86 %
1952 13-03-2015 06:18:17 -0.5 C 87 %
1953 13-03-2015 06:30:17 -0.5 C 87 %
1954 13-03-2015 06:42:17 -0.6 C 88 %
1955 13-03-2015 06:54:17 -0.4 C 88 %
1956 13-03-2015 07:06:17 -0.4 C 88 %
1957 13-03-2015 07:18:17 -0.7 C 88 %
1958 13-03-2015 07:30:17 -0.9 C 88 %
1959 13-03-2015 07:42:17 -0.9 C 88 %
1960 13-03-2015 07:54:16 -0.7 C 89 %
1961 13-03-2015 08:06:17 -0.7 C 89 %
1962 13-03-2015 08:18:17 -0.6 C 89 %
1963 13-03-2015 08:30:16 -0.2 C 89 %
1964 13-03-2015 08:42:17 0.2 C 90 %
1965 13-03-2015 08:54:17 0.5 C 90 %
1966 13-03-2015 09:06:17 0.8 C 89 %
1967 13-03-2015 09:18:17 1.1 C 89 %
1968 13-03-2015 09:30:17 1.5 C 88 %
1969 13-03-2015 09:42:17 1.7 C 87 %
1970 13-03-2015 09:54:17 2.4 C 83 %
1971 13-03-2015 10:06:17 3.3 C 74 %
1972 13-03-2015 10:18:16 3.7 C 68 %
1973 13-03-2015 10:30:17 4.2 C 62 %
1974 13-03-2015 10:42:17 4.4 C 63 %
1975 13-03-2015 10:54:17 4.5 C 60 %
Sensor: Nr:Datum:Temp:Feuchte:
Aussen-T/F 1976 13-03-2015 11:06:17 4.9 C 58 %
1977 13-03-2015 11:18:17 5.3 C 55 %
1978 13-03-2015 11:30:17 5.4 C 54 %
1979 13-03-2015 11:42:17 5.7 C 53 %
1980 13-03-2015 11:54:17 6.3 C 51 %
1981 13-03-2015 12:06:17 6.8 C 47 %
1982 13-03-2015 12:18:17 7 C 45 %
1983 13-03-2015 12:30:17 6.9 C 45 %
1984 13-03-2015 12:42:17 6.9 C 43 %
1985 13-03-2015 12:54:17 7.3 C 42 %
1986 13-03-2015 13:06:17 7.3 C 42 %
1987 13-03-2015 13:18:17 7.4 C 42 %
1988 13-03-2015 13:30:17 7.3 C 41 %
1989 13-03-2015 13:42:18 7.6 C 43 %
1990 13-03-2015 13:54:17 7.3 C 41 %
1991 13-03-2015 14:06:17 7.4 C 41 %
1992 13-03-2015 14:18:17 7.4 C 41 %
1993 13-03-2015 14:30:17 7.4 C 41 %
1994 13-03-2015 14:42:17 7.4 C 42 %
1995 13-03-2015 14:54:17 7.3 C 40 %
1996 13-03-2015 15:06:17 7.7 C 41 %
1997 13-03-2015 15:18:17 7.7 C 40 %
1998 13-03-2015 15:30:17 7.6 C 39 %
1999 13-03-2015 15:42:17 7.4 C 39 %
2000 13-03-2015 15:54:17 7.3 C 41 %
Sensor: Nr:Datum:Temp:Feuchte:
Aussen-T/F 2001 13-03-2015 16:06:17 7.2 C 41 %
2002 13-03-2015 16:18:17 7 C 40 %
2003 13-03-2015 16:30:17 7 C 41 %
2004 13-03-2015 16:42:17 6.9 C 45 %
2005 13-03-2015 16:54:17 6.8 C 44 %
2006 13-03-2015 17:06:17 6.7 C 45 %
2007 13-03-2015 17:18:17 6.6 C 45 %
2008 13-03-2015 17:30:17 6.4 C 46 %
2009 13-03-2015 17:42:17 6.4 C 46 %
2010 13-03-2015 17:54:17 6.1 C 49 %
2011 13-03-2015 18:06:17 5.8 C 52 %
2012 13-03-2015 18:18:17 5.7 C 52 %
2013 13-03-2015 18:30:17 5.4 C 53 %
2014 13-03-2015 18:42:18 5.2 C 56 %
2015 13-03-2015 18:54:18 5 C 57 %
2016 13-03-2015 19:06:17 5.5 C 52 %
2017 13-03-2015 19:18:17 5.7 C 51 %
2018 13-03-2015 19:30:17 5.5 C 53 %
2019 13-03-2015 19:42:17 5.3 C 56 %
2020 13-03-2015 19:54:17 4.8 C 59 %
2021 13-03-2015 20:06:17 4.7 C 61 %
2022 13-03-2015 20:18:17 4.7 C 61 %
2023 13-03-2015 20:30:17 5.1 C 57 %
2024 13-03-2015 20:42:17 4.8 C 60 %
2025 13-03-2015 20:54:17 4.8 C 60 %
Sensor: Nr:Datum:Temp:Feuchte:
Aussen-T/F 2026 13-03-2015 21:06:17 4.7 C 60 %
2027 13-03-2015 21:18:17 4.7 C 60 %
2028 13-03-2015 21:30:17 4.6 C 61 %
2029 13-03-2015 21:42:17 4.4 C 61 %
2030 13-03-2015 21:54:17 4.5 C 61 %
2031 13-03-2015 22:06:17 4.4 C 61 %
2032 13-03-2015 22:18:17 4.3 C 61 %
2033 13-03-2015 22:30:17 4.1 C 63 %
2034 13-03-2015 22:42:17 4.3 C 61 %
2035 13-03-2015 22:54:17 4.3 C 60 %
2036 13-03-2015 23:06:17 4.1 C 62 %
2037 13-03-2015 23:18:17 4 C 63 %
2038 13-03-2015 23:30:17 4 C 62 %
2039 13-03-2015 23:42:17 3.8 C 64 %
2040 13-03-2015 23:54:17 3.9 C 64 %
2041 14-03-2015 00:06:17 3.9 C 63 %
2042 14-03-2015 00:18:17 3.9 C 62 %
2043 14-03-2015 00:30:17 3.6 C 65 %
2044 14-03-2015 00:42:17 3.7 C 63 %
2045 14-03-2015 00:54:17 3.5 C 64 %
2046 14-03-2015 01:06:17 3.3 C 65 %
2047 14-03-2015 01:18:17 3.2 C 65 %
2048 14-03-2015 01:30:17 3.3 C 65 %
2049 14-03-2015 01:42:18 3.4 C 63 %
2050 14-03-2015 01:54:17 3.5 C 62 %
Sensor: Nr:Datum:Temp:Feuchte:
Aussen-T/F 2051 14-03-2015 02:06:17 3.3 C 64 %
2052 14-03-2015 02:18:17 3.1 C 65 %
2053 14-03-2015 02:30:17 3.2 C 65 %
2054 14-03-2015 02:42:17 3.2 C 65 %
2055 14-03-2015 02:54:17 3.4 C 63 %
2056 14-03-2015 03:06:17 3.1 C 65 %
2057 14-03-2015 03:18:17 3.1 C 65 %
2058 14-03-2015 03:30:17 3 C 66 %
2059 14-03-2015 03:42:17 3 C 66 %
2060 14-03-2015 03:54:17 3.1 C 65 %
2061 14-03-2015 04:06:17 2.8 C 67 %
2062 14-03-2015 04:18:17 2.6 C 68 %
2063 14-03-2015 04:30:17 2.3 C 69 %
2064 14-03-2015 04:42:17 2.2 C 70 %
2065 14-03-2015 04:54:17 2.2 C 71 %
2066 14-03-2015 05:06:17 2.2 C 70 %
2067 14-03-2015 05:18:17 2.1 C 70 %
2068 14-03-2015 05:30:17 1.6 C 72 %
2069 14-03-2015 05:42:17 1.5 C 73 %
2070 14-03-2015 05:54:17 1.2 C 74 %
2071 14-03-2015 06:06:17 0.9 C 76 %
2072 14-03-2015 06:18:17 0.9 C 77 %
2073 14-03-2015 06:30:17 0.8 C 77 %
2074 14-03-2015 06:42:17 1 C 77 %
2075 14-03-2015 06:54:17 1.2 C 77 %
Sensor: Nr:Datum:Temp:Feuchte:
Aussen-T/F 2076 14-03-2015 07:06:17 1.3 C 78 %
2077 14-03-2015 07:18:17 1.7 C 78 %
2078 14-03-2015 07:30:17 2 C 77 %
2079 14-03-2015 07:42:17 2.2 C 75 %
2080 14-03-2015 07:54:16 2.3 C 75 %
2081 14-03-2015 08:06:17 2.4 C 74 %
2082 14-03-2015 08:18:16 2.7 C 72 %
2083 14-03-2015 08:30:17 3 C 68 %
2084 14-03-2015 08:42:17 3.1 C 67 %
2085 14-03-2015 08:54:17 3.3 C 65 %
2086 14-03-2015 09:06:17 3.5 C 65 %
2087 14-03-2015 09:18:17 3.7 C 62 %
2088 14-03-2015 09:30:17 4 C 60 %
2089 14-03-2015 09:42:17 4.2 C 59 %
2090 14-03-2015 09:54:17 4.4 C 58 %
2091 14-03-2015 10:06:17 4.5 C 58 %
2092 14-03-2015 10:18:17 4.7 C 58 %
2093 14-03-2015 10:30:17 4.7 C 58 %
2094 14-03-2015 10:42:17 4.9 C 57 %
2095 14-03-2015 10:54:17 4.9 C 58 %
2096 14-03-2015 11:06:17 5 C 57 %
2097 14-03-2015 11:18:17 5 C 57 %
2098 14-03-2015 11:30:17 5.2 C 57 %
2099 14-03-2015 11:42:17 5.2 C 57 %
2100 14-03-2015 11:54:17 5.2 C 57 %
Sensor: Nr:Datum:Temp:Feuchte:
Aussen-T/F 2101 14-03-2015 12:06:17 5.3 C 57 %
2102 14-03-2015 12:18:17 5.4 C 57 %
2103 14-03-2015 12:30:17 5.5 C 57 %
2104 14-03-2015 12:42:17 5.5 C 58 %
2105 14-03-2015 12:54:17 5.9 C 57 %
2106 14-03-2015 13:06:17 6.2 C 56 %
2107 14-03-2015 13:18:17 6.8 C 55 %
2108 14-03-2015 13:30:17 6.9 C 55 %
2109 14-03-2015 13:42:17 6.8 C 56 %
2110 14-03-2015 13:54:17 6.8 C 56 %
2111 14-03-2015 14:06:17 6.7 C 56 %
2112 14-03-2015 14:18:17 6.9 C 56 %
2113 14-03-2015 14:30:17 6.9 C 56 %
2114 14-03-2015 14:42:17 7 C 56 %
2115 14-03-2015 14:54:17 7.2 C 56 %
2116 14-03-2015 15:06:17 7.2 C 55 %
2117 14-03-2015 15:18:17 7.2 C 55 %
2118 14-03-2015 15:30:17 7 C 56 %
2119 14-03-2015 15:42:17 7 C 56 %
2120 14-03-2015 15:54:17 6.9 C 59 %
2121 14-03-2015 16:06:17 6.6 C 64 %
2122 14-03-2015 16:18:17 6.3 C 67 %
2123 14-03-2015 16:30:17 6.1 C 71 %
2124 14-03-2015 16:42:17 5.8 C 74 %
2125 14-03-2015 16:54:17 5.7 C 77 %
Sensor: Nr:Datum:Temp:Feuchte:
Aussen-T/F 2126 14-03-2015 17:06:17 5.6 C 80 %
2127 14-03-2015 17:18:17 5.4 C 81 %
2128 14-03-2015 17:30:17 5.2 C 82 %
2129 14-03-2015 17:42:17 5.1 C 83 %
2130 14-03-2015 17:54:17 5 C 84 %
2131 14-03-2015 18:06:17 4.9 C 86 %
2132 14-03-2015 18:18:16 4.7 C 86 %
2133 14-03-2015 18:30:17 4.7 C 87 %
2134 14-03-2015 18:42:17 4.6 C 88 %
2135 14-03-2015 18:54:17 4.4 C 89 %
2136 14-03-2015 19:06:17 4.4 C 89 %
2137 14-03-2015 19:18:17 4.4 C 90 %
2138 14-03-2015 19:30:17 4.4 C 90 %
2139 14-03-2015 19:42:17 4.2 C 90 %
2140 14-03-2015 19:54:17 4.1 C 89 %
2141 14-03-2015 20:06:17 4 C 88 %
2142 14-03-2015 20:18:17 4 C 88 %
2143 14-03-2015 20:30:17 3.8 C 89 %
2144 14-03-2015 20:42:17 3.7 C 89 %
2145 14-03-2015 20:54:17 3.7 C 89 %
2146 14-03-2015 21:06:17 3.6 C 89 %
2147 14-03-2015 21:18:17 3.7 C 89 %
2148 14-03-2015 21:30:17 3.7 C 89 %
2149 14-03-2015 21:42:17 3.7 C 88 %
2150 14-03-2015 21:54:17 3.6 C 88 %
Sensor: Nr:Datum:Temp:Feuchte:
Aussen-T/F 2151 14-03-2015 22:06:17 3.6 C 88 %
2152 14-03-2015 22:18:17 3.6 C 88 %
2153 14-03-2015 22:30:17 3.6 C 88 %
2154 14-03-2015 22:42:17 3.7 C 87 %
2155 14-03-2015 22:54:17 3.7 C 86 %
2156 14-03-2015 23:06:18 3.5 C 86 %
2157 14-03-2015 23:18:17 3.5 C 86 %
2158 14-03-2015 23:30:17 3.5 C 86 %
2159 14-03-2015 23:42:18 3.5 C 86 %
2160 14-03-2015 23:54:17 3.5 C 86 %
2161 15-03-2015 00:06:17 3.7 C 84 %
2162 15-03-2015 00:18:17 3.6 C 84 %
2163 15-03-2015 00:30:17 3.6 C 84 %
2164 15-03-2015 00:42:17 3.5 C 84 %
2165 15-03-2015 00:54:17 3.6 C 84 %
2166 15-03-2015 01:06:17 3.5 C 83 %
2167 15-03-2015 01:18:17 3.3 C 84 %
2168 15-03-2015 01:30:17 3.3 C 84 %
2169 15-03-2015 01:42:17 3.3 C 85 %
2170 15-03-2015 01:54:17 3.3 C 85 %
2171 15-03-2015 02:06:17 3.3 C 85 %
2172 15-03-2015 02:18:17 3.3 C 86 %
2173 15-03-2015 02:30:17 3.4 C 85 %
2174 15-03-2015 02:42:18 3.4 C 85 %
2175 15-03-2015 02:54:17 3.4 C 85 %
Sensor: Nr:Datum:Temp:Feuchte:
Aussen-T/F 2176 15-03-2015 03:06:17 3.4 C 85 %
2177 15-03-2015 03:18:17 3.4 C 85 %
2178 15-03-2015 03:30:17 3.3 C 86 %
2179 15-03-2015 03:42:17 3.3 C 87 %
2180 15-03-2015 03:54:17 3.4 C 87 %
2181 15-03-2015 04:06:17 3.4 C 88 %
2182 15-03-2015 04:18:17 3.3 C 89 %
2183 15-03-2015 04:30:17 3.3 C 89 %
2184 15-03-2015 04:42:17 3.3 C 90 %
2185 15-03-2015 04:54:17 3.3 C 90 %
2186 15-03-2015 05:06:17 3.3 C 91 %
2187 15-03-2015 05:18:17 3.3 C 91 %
2188 15-03-2015 05:30:17 3.3 C 92 %
2189 15-03-2015 05:42:17 3.3 C 92 %
2190 15-03-2015 05:54:17 3.3 C 92 %
2191 15-03-2015 06:06:17 3.2 C 93 %
2192 15-03-2015 06:18:17 3.3 C 93 %
2193 15-03-2015 06:30:17 3.3 C 93 %
2194 15-03-2015 06:42:17 3.3 C 93 %
2195 15-03-2015 06:54:17 3.3 C 93 %
2196 15-03-2015 07:06:17 3.3 C 93 %
2197 15-03-2015 07:18:17 3.3 C 94 %
2198 15-03-2015 07:30:17 3.4 C 94 %
2199 15-03-2015 07:42:17 3.4 C 94 %
2200 15-03-2015 07:54:17 3.5 C 94 %
Sensor: Nr:Datum:Temp:Feuchte:
Aussen-T/F 2201 15-03-2015 08:06:17 3.6 C 94 %
2202 15-03-2015 08:18:17 3.7 C 94 %
2203 15-03-2015 08:30:17 4 C 94 %
2204 15-03-2015 08:42:17 4 C 94 %
2205 15-03-2015 08:54:17 4 C 94 %
2206 15-03-2015 09:06:17 4.1 C 93 %
2207 15-03-2015 09:18:16 4.3 C 93 %
2208 15-03-2015 09:30:17 4.4 C 92 %
2209 15-03-2015 09:42:17 4.6 C 91 %
2210 15-03-2015 09:54:17 4.8 C 90 %
2211 15-03-2015 10:06:17 4.9 C 88 %
2212 15-03-2015 10:18:17 5.1 C 86 %
2213 15-03-2015 10:30:17 5.1 C 83 %
2214 15-03-2015 10:42:17 5.2 C 80 %
2215 15-03-2015 10:54:17 5.3 C 79 %
2216 15-03-2015 11:06:17 5.4 C 77 %
2217 15-03-2015 11:18:17 5.5 C 76 %
2218 15-03-2015 11:31:17 5.7 C 75 %
2219 15-03-2015 11:43:17 5.5 C 74 %
2220 15-03-2015 11:54:17 5.6 C 73 %
2221 15-03-2015 12:06:17 5.7 C 72 %
2222 15-03-2015 12:18:17 5.8 C 71 %
2223 15-03-2015 12:30:17 6 C 69 %
2224 15-03-2015 12:42:17 6.1 C 68 %
2225 15-03-2015 12:55:17 6.4 C 68 %
Sensor: Nr:Datum:Temp:Feuchte:
Aussen-T/F 2226 15-03-2015 13:07:17 6.4 C 67 %
2227 15-03-2015 13:18:17 6.4 C 67 %
2228 15-03-2015 13:30:17 6.3 C 66 %
2229 15-03-2015 13:42:17 6.6 C 66 %
2230 15-03-2015 13:54:17 6.7 C 65 %
2231 15-03-2015 14:06:17 6.8 C 64 %
2232 15-03-2015 14:19:17 6.9 C 63 %
2233 15-03-2015 14:31:17 6.8 C 63 %
2234 15-03-2015 14:42:17 6.7 C 64 %
2235 15-03-2015 14:54:17 6.8 C 64 %
2236 15-03-2015 15:06:17 6.7 C 64 %
2237 15-03-2015 15:19:17 6.8 C 65 %
2238 15-03-2015 15:31:17 6.6 C 64 %
2239 15-03-2015 15:42:17 6.5 C 65 %
2240 15-03-2015 15:55:17 6.4 C 66 %
2241 15-03-2015 16:06:17 6.5 C 66 %
2242 15-03-2015 16:18:17 6.5 C 65 %
2243 15-03-2015 16:31:17 6.7 C 65 %
2244 15-03-2015 16:43:17 6.7 C 65 %
2245 15-03-2015 16:55:17 6.4 C 66 %
2246 15-03-2015 17:06:18 6.4 C 66 %
2247 15-03-2015 17:19:17 6.2 C 67 %
2248 15-03-2015 17:30:17 6.3 C 68 %
2249 15-03-2015 17:42:17 6 C 68 %
2250 15-03-2015 17:54:17 6.1 C 67 %
Sensor: Nr:Datum:Temp:Feuchte:
Aussen-T/F 2251 15-03-2015 18:07:17 5.9 C 70 %
2252 15-03-2015 18:18:17 5.8 C 71 %
2253 15-03-2015 18:31:17 5.6 C 73 %
2254 15-03-2015 18:43:17 5.4 C 75 %
2255 15-03-2015 18:55:17 5.1 C 76 %
2256 15-03-2015 19:06:17 4.7 C 77 %
2257 15-03-2015 19:19:17 4.5 C 78 %
2258 15-03-2015 19:31:17 4.2 C 78 %
2259 15-03-2015 19:43:17 3.9 C 80 %
2260 15-03-2015 19:55:17 3.5 C 80 %
2261 15-03-2015 20:07:17 3.4 C 81 %
2262 15-03-2015 20:19:17 3 C 81 %
2263 15-03-2015 20:30:18 2.8 C 82 %
2264 15-03-2015 20:42:18 2.6 C 83 %
2265 15-03-2015 20:55:17 2.4 C 84 %
2266 15-03-2015 21:07:17 2.5 C 85 %
2267 15-03-2015 21:18:17 2 C 86 %
2268 15-03-2015 21:30:17 1.9 C 87 %
2269 15-03-2015 21:42:17 1.8 C 88 %
2270 15-03-2015 21:55:17 1.3 C 88 %
2271 15-03-2015 22:07:17 1.3 C 89 %
2272 15-03-2015 22:19:17 1.2 C 89 %
2273 15-03-2015 22:30:17 0.9 C 90 %
2274 15-03-2015 22:42:17 0.6 C 90 %
2275 15-03-2015 22:55:17 0.5 C 91 %
Sensor: Nr:Datum:Temp:Feuchte:
Aussen-T/F 2276 15-03-2015 23:07:17 0.4 C 91 %
2277 15-03-2015 23:19:17 0.5 C 92 %
2278 15-03-2015 23:31:17 0.3 C 92 %
2279 15-03-2015 23:43:17 0.4 C 92 %
2280 15-03-2015 23:55:17 0.1 C 92 %
2281 16-03-2015 00:06:18 0 C 93 %
2282 16-03-2015 00:19:16 -0.2 C 93 %
2283 16-03-2015 00:31:17 -0.3 C 93 %
2284 16-03-2015 00:43:17 -0.4 C 93 %
2285 16-03-2015 00:55:17 -0.2 C 94 %
2286 16-03-2015 01:07:17 -0.2 C 94 %
2287 16-03-2015 01:18:17 -0.3 C 94 %
2288 16-03-2015 01:30:17 -0.6 C 94 %
2289 16-03-2015 01:42:18 -0.6 C 94 %
2290 16-03-2015 01:55:17 -0.6 C 94 %
2291 16-03-2015 02:07:17 -0.7 C 94 %
2292 16-03-2015 02:19:17 -0.8 C 94 %
2293 16-03-2015 02:31:17 -0.9 C 94 %
2294 16-03-2015 02:42:17 -0.9 C 95 %
2295 16-03-2015 02:55:17 -0.9 C 95 %
2296 16-03-2015 03:07:17 -1 C 95 %
2297 16-03-2015 03:19:17 -1.2 C 95 %
2298 16-03-2015 03:31:16 -1.2 C 95 %
2299 16-03-2015 03:43:16 -1.2 C 95 %
2300 16-03-2015 03:55:17 -1.3 C 95 %
Sensor: Nr:Datum:Temp:Feuchte:
Aussen-T/F 2301 16-03-2015 04:07:17 -1.3 C 95 %
2302 16-03-2015 04:19:17 -1.3 C 95 %
2303 16-03-2015 04:31:16 -1.3 C 95 %
2304 16-03-2015 04:43:16 -1.5 C 95 %
2305 16-03-2015 04:55:16 -1.4 C 95 %
2306 16-03-2015 05:07:17 -1.3 C 95 %
2307 16-03-2015 05:19:16 -1.2 C 95 %
2308 16-03-2015 05:31:17 -1.3 C 95 %
2309 16-03-2015 05:43:17 -1.4 C 95 %
2310 16-03-2015 05:55:17 -1.1 C 95 %
2311 16-03-2015 06:07:17 -1 C 95 %
2312 16-03-2015 06:19:17 -0.9 C 95 %
2313 16-03-2015 06:31:17 -0.9 C 95 %
2314 16-03-2015 06:43:17 -1.2 C 95 %
2315 16-03-2015 06:55:17 -1.3 C 95 %
2316 16-03-2015 07:07:17 -1.4 C 95 %
2317 16-03-2015 07:19:17 -1.3 C 95 %
2318 16-03-2015 07:31:17 -1.3 C 95 %
2319 16-03-2015 07:43:17 -1.1 C 95 %
2320 16-03-2015 07:55:16 -0.8 C 95 %
2321 16-03-2015 08:07:17 -0.6 C 95 %
2322 16-03-2015 08:19:17 -0.3 C 95 %
2323 16-03-2015 08:31:17 0.1 C 95 %
2324 16-03-2015 08:43:17 0.3 C 95 %
2325 16-03-2015 08:55:16 0.8 C 95 %
Sensor: Nr:Datum:Temp:Feuchte:
Aussen-T/F 2326 16-03-2015 09:07:16 1.1 C 95 %
2327 16-03-2015 09:19:16 1.8 C 95 %
2328 16-03-2015 09:31:17 2.2 C 95 %
2329 16-03-2015 09:43:17 2.6 C 95 %
2330 16-03-2015 09:55:17 3 C 95 %
2331 16-03-2015 10:07:17 3.2 C 95 %
2332 16-03-2015 10:19:16 3.6 C 95 %
2333 16-03-2015 10:31:17 4 C 94 %
2334 16-03-2015 10:43:17 4.5 C 93 %
2335 16-03-2015 10:55:17 4.9 C 92 %
2336 16-03-2015 11:07:17 5.2 C 88 %
2337 16-03-2015 11:19:17 5.8 C 84 %
2338 16-03-2015 11:31:16 6.5 C 75 %
2339 16-03-2015 11:43:16 6.9 C 66 %
2340 16-03-2015 11:55:17 6.9 C 62 %
2341 16-03-2015 12:07:16 7.1 C 60 %
2342 16-03-2015 12:19:16 7.4 C 59 %
2343 16-03-2015 12:31:17 7.7 C 58 %
2344 16-03-2015 12:43:18 8 C 57 %
2345 16-03-2015 12:55:16 8.4 C 56 %
2346 16-03-2015 13:07:16 8.7 C 55 %
2347 16-03-2015 13:19:16 9.2 C 54 %
2348 16-03-2015 13:31:16 9.6 C 52 %
2349 16-03-2015 13:43:16 9.8 C 51 %
2350 16-03-2015 13:55:16 10 C 50 %
Sensor: Nr:Datum:Temp:Feuchte:
Aussen-T/F 2351 16-03-2015 14:07:17 10.4 C 50 %
2352 16-03-2015 14:19:17 10.6 C 50 %
2353 16-03-2015 14:31:16 10.9 C 50 %
2354 16-03-2015 14:43:16 11 C 48 %
2355 16-03-2015 14:55:17 11.4 C 47 %
2356 16-03-2015 15:07:16 11.3 C 47 %
2357 16-03-2015 15:19:16 11.7 C 46 %
2358 16-03-2015 15:31:16 12.2 C 44 %
2359 16-03-2015 15:43:16 12.3 C 45 %
2360 16-03-2015 15:55:16 12.8 C 43 %
2361 16-03-2015 16:07:16 12.4 C 43 %
2362 16-03-2015 16:19:17 12.4 C 45 %
2363 16-03-2015 16:31:16 12.8 C 44 %
2364 16-03-2015 16:43:16 12.9 C 45 %
2365 16-03-2015 16:55:16 13.5 C 44 %
2366 16-03-2015 17:07:16 12.9 C 48 %
2367 16-03-2015 17:19:16 11.6 C 54 %
2368 16-03-2015 17:31:16 10.7 C 59 %
2369 16-03-2015 17:43:16 10.4 C 60 %
2370 16-03-2015 17:55:16 10.2 C 61 %
2371 16-03-2015 18:07:16 9.9 C 60 %
2372 16-03-2015 18:19:16 8.6 C 64 %
2373 16-03-2015 18:31:16 7.9 C 67 %
2374 16-03-2015 18:43:16 7.4 C 69 %
2375 16-03-2015 18:55:16 7.1 C 69 %
Sensor: Nr:Datum:Temp:Feuchte:
Aussen-T/F 2376 16-03-2015 19:07:16 6.9 C 70 %
2377 16-03-2015 19:19:16 6.2 C 72 %
2378 16-03-2015 19:31:16 5.8 C 74 %
2379 16-03-2015 19:43:16 6 C 74 %
2380 16-03-2015 19:55:16 5.3 C 74 %
2381 16-03-2015 20:07:16 5 C 76 %
2382 16-03-2015 20:19:16 4.8 C 78 %
2383 16-03-2015 20:31:16 4.8 C 79 %
2384 16-03-2015 20:43:16 4.3 C 79 %
2385 16-03-2015 20:55:16 4.1 C 79 %
2386 16-03-2015 21:07:16 4 C 80 %
2387 16-03-2015 21:19:16 3.7 C 81 %
2388 16-03-2015 21:31:16 3.5 C 82 %
2389 16-03-2015 21:43:16 3.3 C 82 %
2390 16-03-2015 21:55:15 3.5 C 84 %
2391 16-03-2015 22:07:15 3.2 C 84 %
2392 16-03-2015 22:19:15 3.1 C 84 %
2393 16-03-2015 22:31:16 3.1 C 85 %
2394 16-03-2015 22:43:16 3.1 C 85 %
2395 16-03-2015 22:55:15 2.9 C 86 %
2396 16-03-2015 23:07:16 2.5 C 86 %
2397 16-03-2015 23:19:15 2.5 C 87 %
2398 16-03-2015 23:31:16 2.1 C 87 %
2399 16-03-2015 23:43:16 2 C 87 %
2400 16-03-2015 23:55:16 1.8 C 88 %
Sensor: Nr:Datum:Temp:Feuchte:
Aussen-T/F 2401 17-03-2015 00:07:16 1.7 C 89 %
2402 17-03-2015 00:19:16 1.7 C 89 %
2403 17-03-2015 00:31:15 1.8 C 90 %
2404 17-03-2015 00:43:15 1.5 C 90 %
2405 17-03-2015 00:55:15 1.5 C 91 %
2406 17-03-2015 01:07:16 1.3 C 91 %
2407 17-03-2015 01:19:15 1 C 91 %
2408 17-03-2015 01:31:16 0.9 C 92 %
2409 17-03-2015 01:43:16 0.9 C 92 %
2410 17-03-2015 01:55:16 0.7 C 93 %
2411 17-03-2015 02:07:16 0.5 C 93 %
2412 17-03-2015 02:19:15 0.4 C 93 %
2413 17-03-2015 02:31:15 0.4 C 93 %
2414 17-03-2015 02:43:15 0.4 C 93 %
2415 17-03-2015 02:55:17 0.4 C 94 %
2416 17-03-2015 03:07:17 0.5 C 94 %
2417 17-03-2015 03:19:16 0.2 C 94 %
2418 17-03-2015 03:31:17 0.3 C 94 %
2419 17-03-2015 03:43:17 0.1 C 94 %
2420 17-03-2015 03:55:17 0 C 94 %
2421 17-03-2015 04:07:17 -0.1 C 94 %
2422 17-03-2015 04:19:17 -0.2 C 95 %
2423 17-03-2015 04:31:18 -0.1 C 95 %
2424 17-03-2015 04:43:18 -0.2 C 95 %
2425 17-03-2015 04:55:17 0 C 95 %
Sensor: Nr:Datum:Temp:Feuchte:
Aussen-T/F 2426 17-03-2015 05:07:17 0.1 C 95 %
2427 17-03-2015 05:19:17 -0.3 C 95 %
2428 17-03-2015 05:31:17 -0.4 C 95 %
2429 17-03-2015 05:43:17 -0.4 C 95 %
2430 17-03-2015 05:55:17 -0.4 C 95 %
2431 17-03-2015 06:07:17 -0.4 C 95 %
2432 17-03-2015 06:19:17 -0.4 C 95 %
2433 17-03-2015 06:31:17 -0.4 C 95 %
2434 17-03-2015 06:43:17 -0.3 C 95 %
2435 17-03-2015 06:55:17 -0.1 C 95 %
2436 17-03-2015 07:07:17 -0.2 C 95 %
2437 17-03-2015 07:19:17 0.3 C 95 %
2438 17-03-2015 07:31:17 0.6 C 95 %
2439 17-03-2015 07:43:17 0.8 C 95 %
2440 17-03-2015 07:55:17 0.9 C 95 %
2441 17-03-2015 08:07:17 0.9 C 95 %
2442 17-03-2015 08:19:17 1.1 C 95 %
2443 17-03-2015 08:31:17 1.1 C 95 %
2444 17-03-2015 08:43:17 1.2 C 95 %
2445 17-03-2015 08:55:17 1.4 C 95 %
2446 17-03-2015 09:07:17 1.6 C 95 %
2447 17-03-2015 09:19:17 1.7 C 95 %
2448 17-03-2015 09:31:17 1.9 C 95 %
2449 17-03-2015 09:43:17 2.1 C 95 %
2450 17-03-2015 09:55:17 2.9 C 95 %
Sensor: Nr:Datum:Temp:Feuchte:
Aussen-T/F 2451 17-03-2015 10:07:17 3.5 C 95 %
2452 17-03-2015 10:19:17 4.4 C 95 %
2453 17-03-2015 10:31:17 5.3 C 94 %
2454 17-03-2015 10:43:17 5.8 C 92 %
2455 17-03-2015 10:55:17 6.5 C 90 %
2456 17-03-2015 11:07:17 7 C 86 %
2457 17-03-2015 11:19:17 7.7 C 83 %
2458 17-03-2015 11:31:17 8.2 C 78 %
2459 17-03-2015 11:43:17 8.8 C 72 %
2460 17-03-2015 11:55:17 9.5 C 68 %
2461 17-03-2015 12:07:17 10.2 C 59 %
2462 17-03-2015 12:19:17 10.7 C 58 %
2463 17-03-2015 12:31:17 11.2 C 55 %
2464 17-03-2015 12:43:17 11.6 C 55 %
2465 17-03-2015 12:55:17 12.1 C 50 %
2466 17-03-2015 13:07:17 12.5 C 49 %
2467 17-03-2015 13:19:17 13.1 C 45 %
2468 17-03-2015 13:31:17 13.6 C 43 %
2469 17-03-2015 13:43:17 14.2 C 40 %
2470 17-03-2015 13:55:17 14.3 C 40 %
2471 17-03-2015 14:07:17 14.6 C 41 %
2472 17-03-2015 14:19:17 14.9 C 39 %
2473 17-03-2015 14:31:17 15.2 C 39 %
2474 17-03-2015 14:43:17 15.1 C 40 %
2475 17-03-2015 14:55:17 15.9 C 37 %
Sensor: Nr:Datum:Temp:Feuchte:
Aussen-T/F 2476 17-03-2015 15:07:17 16.2 C 36 %
2477 17-03-2015 15:19:17 17.4 C 34 %
2478 17-03-2015 15:31:18 17.9 C 32 %
2479 17-03-2015 15:43:18 17.7 C 32 %
2480 17-03-2015 15:55:17 18.2 C 32 %
2481 17-03-2015 16:07:17 18.2 C 30 %
2482 17-03-2015 16:19:17 17.5 C 32 %
2483 17-03-2015 16:31:17 17.1 C 32 %
2484 17-03-2015 16:43:17 17.2 C 35 %
2485 17-03-2015 16:55:17 17.7 C 31 %
2486 17-03-2015 17:07:17 16.8 C 36 %
2487 17-03-2015 17:19:17 15.8 C 42 %
2488 17-03-2015 17:31:17 15.1 C 46 %
2489 17-03-2015 17:43:17 14.5 C 49 %
2490 17-03-2015 17:55:17 13.7 C 51 %
2491 17-03-2015 18:07:17 14 C 49 %
2492 17-03-2015 18:19:17 12.1 C 54 %
2493 17-03-2015 18:31:18 11.4 C 57 %
2494 17-03-2015 18:43:18 10.7 C 60 %
2495 17-03-2015 18:55:16 10.1 C 61 %
2496 17-03-2015 19:07:17 9.8 C 63 %
2497 17-03-2015 19:19:17 9.8 C 64 %
2498 17-03-2015 19:31:17 9.5 C 63 %
2499 17-03-2015 19:43:17 9.2 C 64 %
2500 17-03-2015 19:55:17 8.7 C 65 %
Sensor: Nr:Datum:Temp:Feuchte:
Aussen-T/F 2501 17-03-2015 20:07:17 8.2 C 67 %
2502 17-03-2015 20:19:17 8.1 C 70 %
2503 17-03-2015 20:31:17 8.1 C 69 %
2504 17-03-2015 20:43:17 7.8 C 71 %
2505 17-03-2015 20:55:17 7.8 C 71 %
2506 17-03-2015 21:07:17 7.2 C 72 %
2507 17-03-2015 21:19:17 7 C 72 %
2508 17-03-2015 21:31:17 6.6 C 74 %
2509 17-03-2015 21:43:17 6 C 75 %
2510 17-03-2015 21:55:17 5.6 C 78 %
2511 17-03-2015 22:07:17 5.3 C 79 %
2512 17-03-2015 22:19:17 5.3 C 80 %
2513 17-03-2015 22:31:17 5 C 81 %
2514 17-03-2015 22:43:17 4.8 C 82 %
2515 17-03-2015 22:55:16 4.8 C 83 %
2516 17-03-2015 23:07:17 4.4 C 83 %
2517 17-03-2015 23:19:17 4.3 C 83 %
2518 17-03-2015 23:31:17 4.1 C 84 %
2519 17-03-2015 23:43:17 4 C 85 %
2520 17-03-2015 23:55:17 4 C 86 %
2521 18-03-2015 00:07:17 3.8 C 87 %
2522 18-03-2015 00:19:17 3.6 C 87 %
2523 18-03-2015 00:31:17 3.5 C 88 %
2524 18-03-2015 00:43:17 3.8 C 89 %
2525 18-03-2015 00:55:17 3.3 C 88 %
Sensor: Nr:Datum:Temp:Feuchte:
Aussen-T/F 2526 18-03-2015 01:07:17 3.2 C 88 %
2527 18-03-2015 01:19:17 3.1 C 89 %
2528 18-03-2015 01:31:17 2.8 C 90 %
2529 18-03-2015 01:43:17 2.7 C 90 %
2530 18-03-2015 01:55:17 2.6 C 91 %
2531 18-03-2015 02:07:17 2.4 C 91 %
2532 18-03-2015 02:19:17 2.7 C 92 %
2533 18-03-2015 02:31:17 2.6 C 92 %
2534 18-03-2015 02:43:18 2.5 C 92 %
2535 18-03-2015 02:55:17 2.2 C 92 %
2536 18-03-2015 03:07:17 2.3 C 93 %
2537 18-03-2015 03:19:17 2.2 C 93 %
2538 18-03-2015 03:31:17 2 C 93 %
2539 18-03-2015 03:43:17 1.8 C 94 %
2540 18-03-2015 03:55:17 1.9 C 94 %
2541 18-03-2015 04:07:17 1.7 C 94 %
2542 18-03-2015 04:19:17 1.8 C 95 %
2543 18-03-2015 04:31:17 1.7 C 95 %
2544 18-03-2015 04:43:17 1.4 C 95 %
2545 18-03-2015 04:55:17 1.7 C 95 %
2546 18-03-2015 05:07:17 1.4 C 95 %
2547 18-03-2015 05:19:16 1.1 C 95 %
2548 18-03-2015 05:31:17 1.4 C 95 %
2549 18-03-2015 05:43:17 1 C 95 %
2550 18-03-2015 05:55:17 0.9 C 95 %
Sensor: Nr:Datum:Temp:Feuchte:
Aussen-T/F 2551 18-03-2015 06:07:17 0.8 C 95 %
2552 18-03-2015 06:19:17 0.8 C 95 %
2553 18-03-2015 06:31:17 0.6 C 95 %
2554 18-03-2015 06:43:17 0.5 C 95 %
2555 18-03-2015 06:55:17 0.6 C 95 %
2556 18-03-2015 07:07:17 1 C 95 %
2557 18-03-2015 07:19:17 1 C 95 %
2558 18-03-2015 07:31:17 1.2 C 95 %
2559 18-03-2015 07:43:17 1.2 C 95 %
2560 18-03-2015 07:55:17 1.5 C 95 %
2561 18-03-2015 08:07:17 1.5 C 95 %
2562 18-03-2015 08:19:16 1.7 C 95 %
2563 18-03-2015 08:31:17 1.8 C 95 %
2564 18-03-2015 08:43:17 2.3 C 95 %
2565 18-03-2015 08:55:17 2.7 C 95 %
2566 18-03-2015 09:07:17 3.1 C 95 %
2567 18-03-2015 09:19:17 3.4 C 95 %
2568 18-03-2015 09:31:17 3.8 C 95 %
2569 18-03-2015 09:43:17 4.4 C 95 %
2570 18-03-2015 09:55:17 5 C 95 %
2571 18-03-2015 10:07:17 5.4 C 94 %
2572 18-03-2015 10:19:17 5.9 C 94 %
2573 18-03-2015 10:31:17 6.7 C 92 %
2574 18-03-2015 10:43:17 7.1 C 89 %
2575 18-03-2015 10:55:17 7.7 C 87 %
Sensor: Nr:Datum:Temp:Feuchte:
Aussen-T/F 2576 18-03-2015 11:07:17 8.3 C 84 %
2577 18-03-2015 11:19:17 9.2 C 80 %
2578 18-03-2015 11:31:17 9.8 C 77 %
2579 18-03-2015 11:43:17 10.3 C 70 %
2580 18-03-2015 11:55:17 11 C 65 %
2581 18-03-2015 12:07:17 11.7 C 61 %
2582 18-03-2015 12:19:16 12.2 C 59 %
2583 18-03-2015 12:31:17 12.6 C 59 %
2584 18-03-2015 12:43:17 13.1 C 55 %
2585 18-03-2015 12:55:17 13.6 C 52 %
2586 18-03-2015 13:07:17 13.9 C 50 %
2587 18-03-2015 13:19:17 14.3 C 49 %
2588 18-03-2015 13:31:17 14.7 C 48 %
2589 18-03-2015 13:43:17 15.1 C 46 %
2590 18-03-2015 13:55:17 15.5 C 46 %
2591 18-03-2015 14:07:17 16 C 44 %
2592 18-03-2015 14:19:17 16 C 42 %
2593 18-03-2015 14:31:17 16.4 C 41 %
2594 18-03-2015 14:43:17 16.6 C 41 %
2595 18-03-2015 14:55:17 16.8 C 41 %
2596 18-03-2015 15:07:17 16.9 C 40 %
2597 18-03-2015 15:19:17 16.9 C 41 %
2598 18-03-2015 15:31:17 17.3 C 41 %
2599 18-03-2015 15:43:17 17.2 C 40 %
2600 18-03-2015 15:55:17 17.8 C 40 %
Sensor: Nr:Datum:Temp:Feuchte:
Aussen-T/F 2601 18-03-2015 16:07:17 18.6 C 38 %
2602 18-03-2015 16:19:17 18.3 C 36 %
2603 18-03-2015 16:31:17 18.3 C 37 %
2604 18-03-2015 16:43:17 17.5 C 37 %
2605 18-03-2015 16:55:17 17.2 C 37 %
2606 18-03-2015 17:07:17 17.2 C 37 %
2607 18-03-2015 17:19:17 17.2 C 39 %
2608 18-03-2015 17:31:17 17.2 C 40 %
2609 18-03-2015 17:43:17 16.2 C 42 %
2610 18-03-2015 17:55:17 15.6 C 45 %
2611 18-03-2015 18:07:17 14.7 C 48 %
2612 18-03-2015 18:19:17 14.2 C 48 %
2613 18-03-2015 18:31:17 13.2 C 52 %
2614 18-03-2015 18:43:17 12.1 C 55 %
2615 18-03-2015 18:55:17 11.6 C 59 %
2616 18-03-2015 19:07:17 11.6 C 57 %
2617 18-03-2015 19:19:16 10.8 C 61 %
2618 18-03-2015 19:31:17 10.8 C 61 %
2619 18-03-2015 19:43:17 11.5 C 59 %
2620 18-03-2015 19:55:17 11.5 C 58 %
2621 18-03-2015 20:07:17 11.2 C 58 %
2622 18-03-2015 20:19:17 11.4 C 58 %
2623 18-03-2015 20:31:17 10.9 C 60 %
2624 18-03-2015 20:43:17 11.1 C 59 %
2625 18-03-2015 20:55:17 11 C 60 %
Sensor: Nr:Datum:Temp:Feuchte:
Aussen-T/F 2626 18-03-2015 21:07:17 10.4 C 63 %
2627 18-03-2015 21:19:17 10.4 C 66 %
2628 18-03-2015 21:31:17 9.8 C 70 %
2629 18-03-2015 21:43:18 9.5 C 72 %
2630 18-03-2015 21:55:17 9.8 C 74 %
2631 18-03-2015 22:07:17 9.3 C 74 %
2632 18-03-2015 22:19:17 8.9 C 77 %
2633 18-03-2015 22:31:18 8.6 C 78 %
2634 18-03-2015 22:43:18 8.6 C 79 %
2635 18-03-2015 22:55:17 8.5 C 79 %
2636 18-03-2015 23:07:17 8.7 C 81 %
2637 18-03-2015 23:19:17 8.6 C 80 %
2638 18-03-2015 23:31:17 8.5 C 81 %
2639 18-03-2015 23:43:17 8.7 C 80 %
2640 18-03-2015 23:55:17 8.7 C 79 %
2641 19-03-2015 00:07:17 8.7 C 79 %
2642 19-03-2015 00:19:17 8.6 C 78 %
2643 19-03-2015 00:31:17 8.6 C 79 %
2644 19-03-2015 00:43:17 8.5 C 79 %
2645 19-03-2015 00:55:17 8.5 C 79 %
2646 19-03-2015 01:07:17 8.4 C 79 %
2647 19-03-2015 01:19:17 8.3 C 80 %
2648 19-03-2015 01:31:17 8.2 C 80 %
2649 19-03-2015 01:43:17 8.2 C 81 %
2650 19-03-2015 01:55:17 8.1 C 81 %
Sensor: Nr:Datum:Temp:Feuchte:
Aussen-T/F 2651 19-03-2015 02:07:17 8.1 C 81 %
2652 19-03-2015 02:19:17 8 C 82 %
2653 19-03-2015 02:31:17 7.9 C 83 %
2654 19-03-2015 02:43:17 7.8 C 83 %
2655 19-03-2015 02:55:17 7.8 C 84 %
2656 19-03-2015 03:07:17 7.6 C 84 %
2657 19-03-2015 03:19:17 7.6 C 85 %
2658 19-03-2015 03:31:17 7.5 C 85 %
2659 19-03-2015 03:43:17 7.4 C 85 %
2660 19-03-2015 03:55:17 7.4 C 86 %
2661 19-03-2015 04:07:17 7.3 C 86 %
2662 19-03-2015 04:19:17 7.3 C 86 %
2663 19-03-2015 04:31:17 7.3 C 87 %
2664 19-03-2015 04:43:17 7.2 C 87 %
2665 19-03-2015 04:55:17 7.1 C 87 %
2666 19-03-2015 05:07:17 7.1 C 87 %
2667 19-03-2015 05:19:17 7.1 C 87 %
2668 19-03-2015 05:31:16 7 C 88 %
2669 19-03-2015 05:43:17 7 C 88 %
2670 19-03-2015 05:55:16 6.9 C 89 %
2671 19-03-2015 06:07:17 6.9 C 89 %
2672 19-03-2015 06:19:17 6.8 C 89 %
2673 19-03-2015 06:31:17 6.8 C 89 %
2674 19-03-2015 06:43:17 6.8 C 89 %
2675 19-03-2015 06:55:17 6.8 C 89 %
Sensor: Nr:Datum:Temp:Feuchte:
Aussen-T/F 2676 19-03-2015 07:07:17 6.7 C 89 %
2677 19-03-2015 07:19:17 6.7 C 90 %
2678 19-03-2015 07:31:17 6.8 C 90 %
2679 19-03-2015 07:43:17 6.7 C 90 %
2680 19-03-2015 07:55:17 6.7 C 90 %
2681 19-03-2015 08:07:17 6.8 C 89 %
2682 19-03-2015 08:19:17 6.9 C 89 %
2683 19-03-2015 08:31:17 6.9 C 89 %
2684 19-03-2015 08:43:17 6.9 C 88 %
2685 19-03-2015 08:55:17 7 C 86 %
2686 19-03-2015 09:07:17 7.1 C 85 %
2687 19-03-2015 09:19:17 7.3 C 83 %
2688 19-03-2015 09:31:17 7.5 C 82 %
2689 19-03-2015 09:43:17 7.7 C 80 %
2690 19-03-2015 09:55:17 7.7 C 79 %
2691 19-03-2015 10:07:17 7.8 C 78 %
2692 19-03-2015 10:19:17 7.9 C 77 %
2693 19-03-2015 10:31:17 7.9 C 76 %
2694 19-03-2015 10:43:18 7.9 C 76 %
2695 19-03-2015 10:55:17 7.9 C 76 %
2696 19-03-2015 11:07:17 7.8 C 76 %
2697 19-03-2015 11:19:17 7.8 C 77 %
2698 19-03-2015 11:31:17 7.8 C 78 %
2699 19-03-2015 11:43:17 7.9 C 78 %
2700 19-03-2015 11:55:17 8 C 76 %
Sensor: Nr:Datum:Temp:Feuchte:
Aussen-T/F 2701 19-03-2015 12:07:17 8 C 76 %
2702 19-03-2015 12:19:16 8.1 C 76 %
2703 19-03-2015 12:31:17 8 C 76 %
2704 19-03-2015 12:43:17 7.8 C 78 %
2705 19-03-2015 12:55:17 7.9 C 78 %
2706 19-03-2015 13:07:17 8.1 C 77 %
2707 19-03-2015 13:19:17 8.1 C 77 %
2708 19-03-2015 13:31:17 8.1 C 77 %
2709 19-03-2015 13:43:17 7.9 C 78 %
2710 19-03-2015 13:55:17 8 C 77 %
2711 19-03-2015 14:07:17 8 C 77 %
2712 19-03-2015 14:19:17 8.1 C 77 %
2713 19-03-2015 14:31:17 8.2 C 77 %
2714 19-03-2015 14:43:17 8.2 C 76 %
2715 19-03-2015 14:55:17 8.4 C 76 %
2716 19-03-2015 15:07:17 8.4 C 75 %
2717 19-03-2015 15:19:17 8.4 C 75 %
2718 19-03-2015 15:31:17 8.5 C 75 %
2719 19-03-2015 15:43:17 8.7 C 74 %
2720 19-03-2015 15:55:17 8.7 C 73 %
2721 19-03-2015 16:07:17 8.6 C 74 %
2722 19-03-2015 16:19:17 8.6 C 74 %
2723 19-03-2015 16:31:17 8.5 C 74 %
2724 19-03-2015 16:43:17 8.4 C 75 %
2725 19-03-2015 16:55:17 8.4 C 75 %
Sensor: Nr:Datum:Temp:Feuchte:
Aussen-T/F 2726 19-03-2015 17:07:17 8.2 C 75 %
2727 19-03-2015 17:19:17 8.1 C 76 %
2728 19-03-2015 17:31:17 8.2 C 76 %
2729 19-03-2015 17:43:17 8.1 C 76 %
2730 19-03-2015 17:55:17 8.1 C 76 %
2731 19-03-2015 18:07:17 8.1 C 76 %
2732 19-03-2015 18:19:17 7.9 C 77 %
2733 19-03-2015 18:31:17 7.9 C 77 %
2734 19-03-2015 18:43:17 7.9 C 78 %
2735 19-03-2015 18:55:17 7.8 C 78 %
2736 19-03-2015 19:07:17 7.8 C 78 %
2737 19-03-2015 19:19:17 7.7 C 78 %
2738 19-03-2015 19:31:17 7.7 C 78 %
2739 19-03-2015 19:43:17 7.7 C 78 %
2740 19-03-2015 19:55:17 7.6 C 78 %
2741 19-03-2015 20:07:17 7.6 C 78 %
2742 19-03-2015 20:19:17 7.6 C 78 %
2743 19-03-2015 20:31:17 7.5 C 78 %
2744 19-03-2015 20:43:17 7.5 C 78 %
2745 19-03-2015 20:55:17 7.4 C 78 %
2746 19-03-2015 21:07:17 7.4 C 78 %
2747 19-03-2015 21:19:16 7.4 C 78 %
2748 19-03-2015 21:31:17 7.4 C 78 %
2749 19-03-2015 21:43:17 7.4 C 78 %
2750 19-03-2015 21:55:17 7.3 C 78 %
Sensor: Nr:Datum:Temp:Feuchte:
Aussen-T/F 2751 19-03-2015 22:07:17 7.3 C 79 %
2752 19-03-2015 22:19:17 7.3 C 79 %
2753 19-03-2015 22:31:17 7.3 C 79 %
2754 19-03-2015 22:43:17 7.3 C 79 %
2755 19-03-2015 22:55:17 7.3 C 79 %
2756 19-03-2015 23:07:17 7.2 C 79 %
2757 19-03-2015 23:19:17 7.2 C 79 %
2758 19-03-2015 23:31:17 7.1 C 79 %
2759 19-03-2015 23:43:17 7.1 C 79 %
2760 19-03-2015 23:55:17 7.1 C 79 %
2761 20-03-2015 00:07:17 7.1 C 79 %
2762 20-03-2015 00:19:17 7 C 79 %
2763 20-03-2015 00:31:17 7 C 79 %
2764 20-03-2015 00:43:17 6.9 C 80 %
2765 20-03-2015 00:55:17 6.9 C 80 %
2766 20-03-2015 01:07:17 6.9 C 80 %
2767 20-03-2015 01:19:17 6.9 C 80 %
2768 20-03-2015 01:31:17 6.9 C 80 %
2769 20-03-2015 01:43:17 6.9 C 79 %
2770 20-03-2015 01:55:17 6.8 C 79 %
2771 20-03-2015 02:07:17 6.7 C 80 %
2772 20-03-2015 02:19:17 6.7 C 80 %
2773 20-03-2015 02:31:17 6.7 C 80 %
2774 20-03-2015 02:43:17 6.7 C 79 %
2775 20-03-2015 02:55:17 6.7 C 79 %
Sensor: Nr:Datum:Temp:Feuchte:
Aussen-T/F 2776 20-03-2015 03:07:17 6.7 C 78 %
2777 20-03-2015 03:19:17 6.6 C 78 %
2778 20-03-2015 03:31:17 6.6 C 77 %
2779 20-03-2015 03:43:17 6.5 C 77 %
2780 20-03-2015 03:55:17 6.5 C 77 %
2781 20-03-2015 04:07:17 6.4 C 77 %
2782 20-03-2015 04:19:17 6.4 C 77 %
2783 20-03-2015 04:31:17 6.3 C 77 %
2784 20-03-2015 04:43:17 6.3 C 77 %
2785 20-03-2015 04:55:17 6.3 C 77 %
2786 20-03-2015 05:07:17 6.2 C 77 %
2787 20-03-2015 05:19:17 6.2 C 77 %
2788 20-03-2015 05:31:17 6.1 C 77 %
2789 20-03-2015 05:43:17 6.1 C 77 %
2790 20-03-2015 05:55:17 6 C 77 %
2791 20-03-2015 06:07:17 6 C 77 %
2792 20-03-2015 06:19:17 6 C 77 %
2793 20-03-2015 06:31:17 5.9 C 78 %
2794 20-03-2015 06:43:17 5.9 C 78 %
2795 20-03-2015 06:55:17 5.9 C 78 %
2796 20-03-2015 07:07:17 6 C 77 %
2797 20-03-2015 07:19:17 6 C 77 %
2798 20-03-2015 07:31:17 6.1 C 77 %
2799 20-03-2015 07:43:18 6.2 C 76 %
2800 20-03-2015 07:55:17 6.2 C 76 %
Sensor: Nr:Datum:Temp:Feuchte:
Aussen-T/F 2801 20-03-2015 08:07:17 6.3 C 75 %
2802 20-03-2015 08:19:17 6.4 C 74 %
2803 20-03-2015 08:31:17 6.7 C 73 %
2804 20-03-2015 08:43:17 6.7 C 72 %
2805 20-03-2015 08:55:17 6.8 C 71 %
2806 20-03-2015 09:07:17 7 C 69 %
2807 20-03-2015 09:19:17 7.1 C 68 %
2808 20-03-2015 09:31:17 7.3 C 67 %
2809 20-03-2015 09:43:17 7.3 C 66 %
2810 20-03-2015 09:55:17 7.5 C 66 %
2811 20-03-2015 10:07:17 7.5 C 66 %
2812 20-03-2015 10:19:17 7.3 C 65 %
2813 20-03-2015 10:31:17 6.9 C 67 %
2814 20-03-2015 10:43:17 6.8 C 68 %
2815 20-03-2015 10:55:17 6.8 C 69 %
2816 20-03-2015 11:07:17 7.1 C 67 %
2817 20-03-2015 11:19:17 7.4 C 65 %
2818 20-03-2015 11:31:17 8 C 63 %
2819 20-03-2015 11:43:17 7.8 C 62 %
2820 20-03-2015 11:55:17 8 C 62 %
2821 20-03-2015 12:07:17 8.1 C 62 %
2822 20-03-2015 12:19:17 8 C 62 %
2823 20-03-2015 12:31:17 8.4 C 61 %
2824 20-03-2015 12:43:18 8.6 C 60 %
2825 20-03-2015 12:55:17 8.9 C 60 %
Sensor: Nr:Datum:Temp:Feuchte:
Aussen-T/F 2826 20-03-2015 13:07:17 9.2 C 57 %
2827 20-03-2015 13:19:17 9.6 C 56 %
2828 20-03-2015 13:31:17 10.1 C 55 %
2829 20-03-2015 13:43:17 10.5 C 53 %
2830 20-03-2015 13:55:17 10.7 C 52 %
2831 20-03-2015 14:07:17 11.1 C 50 %
2832 20-03-2015 14:19:17 11.5 C 50 %
2833 20-03-2015 14:31:17 12 C 48 %
2834 20-03-2015 14:43:17 12.3 C 46 %
2835 20-03-2015 14:55:17 12.6 C 45 %
2836 20-03-2015 15:07:17 13.6 C 43 %
2837 20-03-2015 15:19:17 14.8 C 41 %
2838 20-03-2015 15:31:17 14.6 C 39 %
2839 20-03-2015 15:43:17 14.5 C 38 %
2840 20-03-2015 15:55:17 16.1 C 36 %
2841 20-03-2015 16:07:17 16.6 C 35 %
2842 20-03-2015 16:19:17 16.4 C 34 %
2843 20-03-2015 16:31:17 16 C 35 %
2844 20-03-2015 16:43:17 15.6 C 35 %
2845 20-03-2015 16:55:17 15.5 C 34 %
2846 20-03-2015 17:07:17 15.4 C 35 %
2847 20-03-2015 17:19:17 16 C 32 %
2848 20-03-2015 17:31:17 15.7 C 36 %
2849 20-03-2015 17:43:17 14.9 C 41 %
2850 20-03-2015 17:55:17 13.3 C 45 %
Sensor: Nr:Datum:Temp:Feuchte:
Aussen-T/F 2851 20-03-2015 18:07:17 11.4 C 51 %
2852 20-03-2015 18:19:17 10.2 C 56 %
2853 20-03-2015 18:31:17 9.7 C 59 %
2854 20-03-2015 18:43:17 8.7 C 62 %
2855 20-03-2015 18:55:17 7.9 C 65 %
2856 20-03-2015 19:07:17 7.7 C 68 %
2857 20-03-2015 19:19:17 7.4 C 68 %
2858 20-03-2015 19:31:17 6.9 C 71 %
2859 20-03-2015 19:43:17 7 C 71 %
2860 20-03-2015 19:55:17 6.7 C 71 %
2861 20-03-2015 20:07:17 6.3 C 74 %
2862 20-03-2015 20:19:16 6 C 74 %
2863 20-03-2015 20:31:17 5.4 C 77 %
2864 20-03-2015 20:43:17 5 C 79 %
2865 20-03-2015 20:55:17 4.9 C 82 %
2866 20-03-2015 21:07:17 4.8 C 83 %
2867 20-03-2015 21:19:17 4.6 C 84 %
2868 20-03-2015 21:31:17 4.3 C 84 %
2869 20-03-2015 21:43:17 4.1 C 85 %
2870 20-03-2015 21:55:17 3.7 C 86 %
2871 20-03-2015 22:07:17 3.7 C 86 %
2872 20-03-2015 22:19:17 3.8 C 87 %
2873 20-03-2015 22:31:17 4 C 88 %
2874 20-03-2015 22:43:17 3.8 C 89 %
2875 20-03-2015 22:55:17 3.7 C 89 %
Sensor: Nr:Datum:Temp:Feuchte:
Aussen-T/F 2876 20-03-2015 23:07:17 4.3 C 89 %
2877 20-03-2015 23:19:17 4.7 C 90 %
2878 20-03-2015 23:31:17 4.9 C 90 %
2879 20-03-2015 23:43:17 5.1 C 89 %
2880 20-03-2015 23:55:17 5.2 C 88 %
2881 21-03-2015 00:07:18 5.3 C 88 %
2882 21-03-2015 00:19:17 5.4 C 87 %
2883 21-03-2015 00:31:17 5.4 C 86 %
2884 21-03-2015 00:43:17 5.5 C 85 %
2885 21-03-2015 00:55:17 5.4 C 84 %
2886 21-03-2015 01:07:17 5.4 C 83 %
2887 21-03-2015 01:19:17 5.4 C 83 %
2888 21-03-2015 01:31:17 5.4 C 83 %
2889 21-03-2015 01:43:17 5.5 C 83 %
2890 21-03-2015 01:55:17 5.5 C 82 %
2891 21-03-2015 02:07:17 5.5 C 82 %
2892 21-03-2015 02:19:16 5.5 C 82 %
2893 21-03-2015 02:31:17 5.5 C 81 %
2894 21-03-2015 02:43:17 5.4 C 80 %
2895 21-03-2015 02:55:17 5.3 C 80 %
2896 21-03-2015 03:07:17 5.3 C 80 %
2897 21-03-2015 03:19:17 5.3 C 81 %
2898 21-03-2015 03:31:17 5.3 C 81 %
2899 21-03-2015 03:43:17 5.3 C 81 %
2900 21-03-2015 03:55:17 5.3 C 81 %
Sensor: Nr:Datum:Temp:Feuchte:
Aussen-T/F 2901 21-03-2015 04:07:17 5.2 C 80 %
2902 21-03-2015 04:19:17 5.2 C 80 %
2903 21-03-2015 04:31:17 5.2 C 80 %
2904 21-03-2015 04:43:17 5.1 C 80 %
2905 21-03-2015 04:55:17 5 C 81 %
2906 21-03-2015 05:07:18 4.9 C 82 %
2907 21-03-2015 05:19:17 4.8 C 82 %
2908 21-03-2015 05:31:17 4.7 C 82 %
2909 21-03-2015 05:43:17 4.8 C 82 %
2910 21-03-2015 05:55:17 4.7 C 82 %
2911 21-03-2015 06:07:17 4.6 C 81 %
2912 21-03-2015 06:19:17 4.6 C 80 %
2913 21-03-2015 06:31:17 4.5 C 79 %
2914 21-03-2015 06:43:17 4.6 C 79 %
2915 21-03-2015 06:55:17 4.7 C 78 %
2916 21-03-2015 07:07:17 4.8 C 77 %
2917 21-03-2015 07:19:17 4.8 C 76 %
2918 21-03-2015 07:31:17 5 C 74 %
2919 21-03-2015 07:43:17 5 C 74 %
2920 21-03-2015 07:55:17 5 C 74 %
2921 21-03-2015 08:07:17 5.1 C 74 %
2922 21-03-2015 08:19:17 5.2 C 74 %
2923 21-03-2015 08:31:17 5.2 C 73 %
2924 21-03-2015 08:43:17 5.7 C 73 %
2925 21-03-2015 08:55:17 6 C 70 %
Sensor: Nr:Datum:Temp:Feuchte:
Aussen-T/F 2926 21-03-2015 09:07:17 5.5 C 72 %
2927 21-03-2015 09:19:17 5.5 C 74 %
2928 21-03-2015 09:31:17 5.3 C 74 %
2929 21-03-2015 09:43:17 5.4 C 75 %
2930 21-03-2015 09:55:17 5.1 C 76 %
2931 21-03-2015 10:07:17 5.1 C 78 %
2932 21-03-2015 10:19:17 5.1 C 79 %
2933 21-03-2015 10:31:17 5.2 C 79 %
2934 21-03-2015 10:43:17 5.3 C 81 %
2935 21-03-2015 10:55:17 5.3 C 81 %
2936 21-03-2015 11:07:17 5.4 C 81 %
2937 21-03-2015 11:19:16 5.4 C 82 %
2938 21-03-2015 11:31:17 5.4 C 83 %
2939 21-03-2015 11:43:17 5.7 C 84 %
2940 21-03-2015 11:55:17 6.1 C 82 %
2941 21-03-2015 12:07:17 6.1 C 78 %
2942 21-03-2015 12:19:17 6.7 C 74 %
2943 21-03-2015 12:31:17 6.9 C 71 %
2944 21-03-2015 12:43:17 7.5 C 67 %
2945 21-03-2015 12:55:17 7.9 C 64 %
2946 21-03-2015 13:07:17 7.4 C 62 %
2947 21-03-2015 13:19:17 8.2 C 61 %
2948 21-03-2015 13:31:17 9.1 C 57 %
2949 21-03-2015 13:43:17 9.1 C 55 %
2950 21-03-2015 13:55:17 8.5 C 57 %
Sensor: Nr:Datum:Temp:Feuchte:
Aussen-T/F 2951 21-03-2015 14:07:17 7.8 C 58 %
2952 21-03-2015 14:19:17 7.3 C 60 %
2953 21-03-2015 14:31:17 7.3 C 61 %
2954 21-03-2015 14:43:17 7.5 C 61 %
2955 21-03-2015 14:55:17 7.4 C 60 %
2956 21-03-2015 15:07:17 7.3 C 61 %
2957 21-03-2015 15:19:17 7.3 C 62 %
2958 21-03-2015 15:31:17 7.1 C 64 %
2959 21-03-2015 15:43:17 6.8 C 68 %
2960 21-03-2015 15:55:17 6.4 C 73 %
2961 21-03-2015 16:07:17 6 C 78 %
2962 21-03-2015 16:19:17 5.9 C 82 %
2963 21-03-2015 16:31:17 5.4 C 84 %
2964 21-03-2015 16:43:17 5.4 C 85 %
2965 21-03-2015 16:55:17 5.6 C 86 %
2966 21-03-2015 17:07:17 6 C 84 %
2967 21-03-2015 17:19:17 6.7 C 82 %
2968 21-03-2015 17:31:17 6.2 C 81 %
2969 21-03-2015 17:43:17 6 C 82 %
2970 21-03-2015 17:55:17 5.8 C 84 %
2971 21-03-2015 18:07:17 5.6 C 86 %
2972 21-03-2015 18:19:17 5.8 C 86 %
2973 21-03-2015 18:31:17 5.7 C 86 %
2974 21-03-2015 18:43:17 5.8 C 86 %
2975 21-03-2015 18:55:17 5.9 C 84 %
Sensor: Nr:Datum:Temp:Feuchte:
Aussen-T/F 2976 21-03-2015 19:07:17 5.9 C 82 %
2977 21-03-2015 19:19:17 5.6 C 82 %
2978 21-03-2015 19:31:17 5.4 C 84 %
2979 21-03-2015 19:43:17 5.2 C 86 %
2980 21-03-2015 19:55:17 5.2 C 87 %
2981 21-03-2015 20:07:17 5.1 C 88 %
2982 21-03-2015 20:19:17 5 C 89 %
2983 21-03-2015 20:31:17 5 C 90 %
2984 21-03-2015 20:43:17 4.9 C 91 %
2985 21-03-2015 20:55:17 4.7 C 92 %
2986 21-03-2015 21:07:17 4.3 C 92 %
2987 21-03-2015 21:19:16 4.2 C 92 %
2988 21-03-2015 21:31:17 4.2 C 92 %
2989 21-03-2015 21:43:17 4.4 C 93 %
2990 21-03-2015 21:55:17 4.5 C 93 %
2991 21-03-2015 22:07:17 4.4 C 93 %
2992 21-03-2015 22:19:17 4.4 C 94 %
2993 21-03-2015 22:31:17 4.6 C 94 %
2994 21-03-2015 22:43:17 4.6 C 94 %
2995 21-03-2015 22:55:17 4.5 C 94 %
2996 21-03-2015 23:07:17 4.6 C 95 %
2997 21-03-2015 23:19:17 4.8 C 95 %
2998 21-03-2015 23:31:17 4.8 C 95 %
2999 21-03-2015 23:43:17 4.9 C 95 %
3000 21-03-2015 23:55:17 5 C 95 %
Sensor: Nr:Datum:Temp:Feuchte:
Aussen-T/F 3001 22-03-2015 00:07:17 5 C 95 %
3002 22-03-2015 00:19:17 5 C 95 %
3003 22-03-2015 00:31:17 5.1 C 95 %
3004 22-03-2015 00:43:17 5.1 C 95 %
3005 22-03-2015 00:55:17 5.1 C 95 %
3006 22-03-2015 01:07:17 5 C 95 %
3007 22-03-2015 01:19:17 5 C 94 %
3008 22-03-2015 01:31:17 5 C 94 %
3009 22-03-2015 01:43:17 5 C 94 %
3010 22-03-2015 01:55:17 4.9 C 95 %
3011 22-03-2015 02:07:17 4.8 C 95 %
3012 22-03-2015 02:19:16 4.7 C 95 %
3013 22-03-2015 02:31:17 4.6 C 95 %
3014 22-03-2015 02:43:17 4.5 C 95 %
3015 22-03-2015 02:55:17 4.5 C 95 %
3016 22-03-2015 03:07:17 4.4 C 95 %
3017 22-03-2015 03:19:17 4.3 C 95 %
3018 22-03-2015 03:31:17 4.5 C 95 %
3019 22-03-2015 03:43:17 4.5 C 95 %
3020 22-03-2015 03:55:17 4.6 C 95 %
3021 22-03-2015 04:07:17 4.7 C 95 %
3022 22-03-2015 04:19:17 4.7 C 95 %
3023 22-03-2015 04:31:17 4.8 C 94 %
3024 22-03-2015 04:43:17 4.8 C 94 %
3025 22-03-2015 04:55:17 4.8 C 94 %
Sensor: Nr:Datum:Temp:Feuchte:
Aussen-T/F 3026 22-03-2015 05:07:18 4.9 C 94 %
3027 22-03-2015 05:19:17 5 C 92 %
3028 22-03-2015 05:31:17 5 C 92 %
3029 22-03-2015 05:43:17 5 C 91 %
3030 22-03-2015 05:55:17 5 C 88 %
3031 22-03-2015 06:07:17 4.7 C 86 %
3032 22-03-2015 06:19:17 4.7 C 85 %
3033 22-03-2015 06:31:17 4.7 C 83 %
3034 22-03-2015 06:43:17 4.7 C 80 %
3035 22-03-2015 06:55:17 4.6 C 79 %
3036 22-03-2015 07:07:17 4.6 C 78 %
3037 22-03-2015 07:19:17 4.6 C 78 %
3038 22-03-2015 07:31:17 4.7 C 74 %
3039 22-03-2015 07:43:17 4.6 C 72 %
3040 22-03-2015 07:55:17 4.6 C 70 %
3041 22-03-2015 08:07:17 4.7 C 68 %
3042 22-03-2015 08:19:17 4.6 C 67 %
3043 22-03-2015 08:31:17 4.7 C 65 %
3044 22-03-2015 08:43:17 4.7 C 65 %
3045 22-03-2015 08:55:17 4.8 C 63 %
3046 22-03-2015 09:07:17 4.9 C 62 %
3047 22-03-2015 09:19:17 5 C 61 %
3048 22-03-2015 09:31:17 5.3 C 61 %
3049 22-03-2015 09:43:17 4.9 C 60 %
3050 22-03-2015 09:55:17 5.4 C 59 %
Sensor: Nr:Datum:Temp:Feuchte:
Aussen-T/F 3051 22-03-2015 10:07:17 5.7 C 59 %
3052 22-03-2015 10:19:17 5.9 C 58 %
3053 22-03-2015 10:31:17 6 C 57 %
3054 22-03-2015 10:43:17 6.2 C 57 %
3055 22-03-2015 10:55:17 6.4 C 56 %
3056 22-03-2015 11:07:17 6.5 C 56 %
3057 22-03-2015 11:19:17 6.7 C 55 %
3058 22-03-2015 11:31:20 6.6 C 55 %
3059 22-03-2015 11:43:20 6.5 C 55 %
3060 22-03-2015 11:55:18 6.7 C 55 %
3061 22-03-2015 11:55:18 6.7 C 55 %
3062 22-03-2015 12:07:20 6.5 C 55 %
3063 22-03-2015 12:19:16 6.7 C 55 %
3064 22-03-2015 12:31:17 7.1 C 53 %
3065 22-03-2015 12:43:17 7.3 C 51 %
3066 22-03-2015 12:55:17 7.3 C 51 %
3067 22-03-2015 13:07:17 7.2 C 51 %
3068 22-03-2015 13:19:17 7.7 C 51 %
3069 22-03-2015 13:31:17 7.6 C 51 %
3070 22-03-2015 13:43:17 7.8 C 50 %
3071 22-03-2015 13:55:17 7.3 C 50 %
3072 22-03-2015 14:07:17 6.9 C 51 %
3073 22-03-2015 14:19:17 7 C 51 %
3074 22-03-2015 14:31:17 7 C 50 %
3075 22-03-2015 14:43:17 6.7 C 52 %
Sensor: Nr:Datum:Temp:Feuchte:
Aussen-T/F 3076 22-03-2015 14:55:17 6.7 C 51 %
3077 22-03-2015 15:07:17 6.5 C 51 %
3078 22-03-2015 15:19:17 6.7 C 52 %
3079 22-03-2015 15:31:17 7 C 50 %
3080 22-03-2015 15:43:17 6.8 C 50 %
3081 22-03-2015 15:55:17 6.6 C 50 %
3082 22-03-2015 16:07:17 6.8 C 50 %
3083 22-03-2015 16:19:17 7.3 C 50 %
3084 22-03-2015 16:31:17 8.3 C 46 %
3085 22-03-2015 16:43:17 8.8 C 45 %
3086 22-03-2015 16:55:17 10.3 C 40 %
3087 22-03-2015 17:07:17 11.7 C 37 %
3088 22-03-2015 17:19:17 12 C 35 %
3089 22-03-2015 17:31:17 11.3 C 37 %
3090 22-03-2015 17:43:17 10.4 C 38 %
3091 22-03-2015 17:55:17 9.4 C 41 %
3092 22-03-2015 18:07:17 7.6 C 45 %
3093 22-03-2015 18:19:17 6.7 C 49 %
3094 22-03-2015 18:31:17 6 C 52 %
3095 22-03-2015 18:43:17 4.9 C 58 %
3096 22-03-2015 18:55:17 4 C 61 %
3097 22-03-2015 19:07:17 3.4 C 65 %
3098 22-03-2015 19:19:17 3.1 C 67 %
3099 22-03-2015 19:31:17 2.7 C 69 %
3100 22-03-2015 19:43:17 2.4 C 70 %
Sensor: Nr:Datum:Temp:Feuchte:
Aussen-T/F 3101 22-03-2015 19:55:17 2 C 71 %
3102 22-03-2015 20:07:17 1.7 C 73 %
3103 22-03-2015 20:19:17 1.6 C 74 %
3104 22-03-2015 20:31:17 1.4 C 75 %
3105 22-03-2015 20:43:17 1.6 C 75 %
3106 22-03-2015 20:55:17 1.3 C 75 %
3107 22-03-2015 21:07:17 1.2 C 76 %
3108 22-03-2015 21:19:16 1.1 C 77 %
3109 22-03-2015 21:31:17 1 C 77 %
3110 22-03-2015 21:43:17 0.7 C 78 %
3111 22-03-2015 21:55:17 0.8 C 79 %
3112 22-03-2015 22:07:17 0.4 C 79 %
3113 22-03-2015 22:19:17 0.5 C 81 %
3114 22-03-2015 22:31:17 0.4 C 80 %
3115 22-03-2015 22:43:17 0.3 C 81 %
3116 22-03-2015 22:55:17 0.2 C 81 %
3117 22-03-2015 23:07:17 0 C 81 %
3118 22-03-2015 23:19:17 -0.1 C 82 %
3119 22-03-2015 23:31:17 -0.2 C 82 %
3120 22-03-2015 23:43:17 -0.3 C 83 %
3121 22-03-2015 23:55:17 -0.4 C 83 %
3122 23-03-2015 00:07:17 -0.4 C 84 %
3123 23-03-2015 00:19:17 -0.7 C 83 %
3124 23-03-2015 00:31:17 -0.7 C 84 %
3125 23-03-2015 00:43:17 -0.6 C 85 %
Sensor: Nr:Datum:Temp:Feuchte:
Aussen-T/F 3126 23-03-2015 00:55:17 -0.8 C 85 %
3127 23-03-2015 01:07:17 -1 C 85 %
3128 23-03-2015 01:19:17 -0.9 C 86 %
3129 23-03-2015 01:31:17 -0.9 C 86 %
3130 23-03-2015 01:43:17 -1.1 C 86 %
3131 23-03-2015 01:55:17 -1.1 C 86 %
3132 23-03-2015 02:07:17 -1.3 C 86 %
3133 23-03-2015 02:19:17 -1.4 C 87 %
3134 23-03-2015 02:31:17 -1.4 C 87 %
3135 23-03-2015 02:43:17 -1.5 C 87 %
3136 23-03-2015 02:55:17 -1.7 C 88 %
3137 23-03-2015 03:07:17 -1.8 C 88 %
3138 23-03-2015 03:19:17 -1.8 C 88 %
3139 23-03-2015 03:31:17 -1.7 C 89 %
3140 23-03-2015 03:43:17 -1.7 C 89 %
3141 23-03-2015 03:55:17 -2 C 89 %
3142 23-03-2015 04:07:17 -2 C 89 %
3143 23-03-2015 04:19:17 -2.1 C 89 %
3144 23-03-2015 04:31:17 -2.2 C 89 %
3145 23-03-2015 04:43:17 -2.3 C 89 %
3146 23-03-2015 04:55:17 -2.1 C 89 %
3147 23-03-2015 05:07:17 -1.9 C 90 %
3148 23-03-2015 05:19:17 -1.9 C 90 %
3149 23-03-2015 05:31:17 -2.1 C 90 %
3150 23-03-2015 05:43:17 -2.3 C 90 %
Sensor: Nr:Datum:Temp:Feuchte:
Aussen-T/F 3151 23-03-2015 05:55:17 -2.3 C 90 %
3152 23-03-2015 06:07:17 -2.2 C 91 %
3153 23-03-2015 06:19:16 -2.4 C 91 %
3154 23-03-2015 06:31:17 -2.6 C 91 %
3155 23-03-2015 06:43:17 -2.1 C 91 %
3156 23-03-2015 06:55:17 -2.3 C 91 %
3157 23-03-2015 07:07:17 -2.1 C 91 %
3158 23-03-2015 07:19:17 -1.8 C 92 %
3159 23-03-2015 07:31:17 -1.6 C 92 %
3160 23-03-2015 07:43:17 -1.3 C 92 %
3161 23-03-2015 07:55:17 -1.1 C 92 %
3162 23-03-2015 08:07:17 -0.9 C 92 %
3163 23-03-2015 08:19:17 -0.8 C 92 %
3164 23-03-2015 08:31:17 -0.4 C 92 %
3165 23-03-2015 08:43:17 -0.1 C 92 %
3166 23-03-2015 08:55:17 0.1 C 91 %
3167 23-03-2015 09:07:17 0.5 C 90 %
3168 23-03-2015 09:19:17 0.9 C 89 %
3169 23-03-2015 09:31:17 1.3 C 87 %
3170 23-03-2015 09:43:17 1.7 C 84 %
3171 23-03-2015 09:55:17 1.9 C 79 %
3172 23-03-2015 10:07:17 2.7 C 75 %
3173 23-03-2015 10:19:17 2.9 C 73 %
3174 23-03-2015 10:31:17 3.5 C 71 %
3175 23-03-2015 10:43:17 4.3 C 68 %
Sensor: Nr:Datum:Temp:Feuchte:
Aussen-T/F 3176 23-03-2015 10:55:17 4.5 C 66 %
3177 23-03-2015 11:07:17 5 C 64 %
3178 23-03-2015 11:19:17 5.6 C 64 %
3179 23-03-2015 11:31:17 5.6 C 62 %
3180 23-03-2015 11:43:17 6.4 C 61 %
3181 23-03-2015 11:55:17 6.9 C 59 %
3182 23-03-2015 12:07:17 7.3 C 58 %
3183 23-03-2015 12:19:17 7.6 C 57 %
3184 23-03-2015 12:31:17 8.2 C 56 %
3185 23-03-2015 12:43:17 8.7 C 55 %
3186 23-03-2015 12:55:17 9.3 C 55 %
3187 23-03-2015 13:07:17 9.7 C 51 %
3188 23-03-2015 13:19:17 10.2 C 48 %
3189 23-03-2015 13:31:17 10.3 C 48 %
3190 23-03-2015 13:43:17 10.2 C 48 %
3191 23-03-2015 13:55:17 10.1 C 48 %
3192 23-03-2015 14:07:17 10 C 49 %
3193 23-03-2015 14:19:17 10.1 C 48 %
3194 23-03-2015 14:31:17 9.8 C 48 %
3195 23-03-2015 14:43:17 10.3 C 49 %
3196 23-03-2015 14:55:17 10.7 C 49 %
3197 23-03-2015 15:07:17 11.9 C 47 %
3198 23-03-2015 15:19:17 12.7 C 43 %
3199 23-03-2015 15:31:17 11.5 C 45 %
3200 23-03-2015 15:43:17 10.9 C 47 %
Sensor: Nr:Datum:Temp:Feuchte:
Aussen-T/F 3201 23-03-2015 15:55:17 11.5 C 45 %
3202 23-03-2015 16:07:17 10.8 C 47 %
3203 23-03-2015 16:19:17 10.7 C 47 %
3204 23-03-2015 16:31:17 11.1 C 46 %
3205 23-03-2015 16:43:17 10.8 C 46 %
3206 23-03-2015 16:55:17 10.3 C 47 %
3207 23-03-2015 17:07:17 10.2 C 48 %
3208 23-03-2015 17:19:17 10 C 49 %
3209 23-03-2015 17:31:17 10 C 48 %
3210 23-03-2015 17:43:17 10.8 C 48 %
3211 23-03-2015 17:55:17 10.6 C 47 %
3212 23-03-2015 18:07:17 9.7 C 49 %
3213 23-03-2015 18:19:17 9.5 C 50 %
3214 23-03-2015 18:31:17 8.8 C 54 %
3215 23-03-2015 18:43:17 7.8 C 57 %
3216 23-03-2015 18:55:17 7.3 C 58 %
3217 23-03-2015 19:07:17 7 C 59 %
3218 23-03-2015 19:19:17 6.7 C 61 %
3219 23-03-2015 19:31:17 6.4 C 62 %
3220 23-03-2015 19:43:18 6.4 C 63 %
3221 23-03-2015 19:55:17 6.1 C 64 %
3222 23-03-2015 20:07:17 5.9 C 65 %
3223 23-03-2015 20:19:17 5.9 C 66 %
3224 23-03-2015 20:31:17 5.9 C 65 %
3225 23-03-2015 20:43:17 5.6 C 66 %
Sensor: Nr:Datum:Temp:Feuchte:
Aussen-T/F 3226 23-03-2015 20:55:17 5.1 C 68 %
3227 23-03-2015 21:07:17 4.4 C 71 %
3228 23-03-2015 21:19:16 4 C 74 %
3229 23-03-2015 21:31:17 3.8 C 77 %
3230 23-03-2015 21:43:17 3.5 C 78 %
3231 23-03-2015 21:55:17 3.3 C 79 %
3232 23-03-2015 22:07:17 3 C 79 %
3233 23-03-2015 22:19:17 2.8 C 81 %
3234 23-03-2015 22:31:17 2.7 C 83 %
3235 23-03-2015 22:43:17 2.5 C 83 %
3236 23-03-2015 22:55:17 2.1 C 83 %
3237 23-03-2015 23:07:17 1.6 C 84 %
3238 23-03-2015 23:19:17 1.7 C 85 %
3239 23-03-2015 23:31:17 1.4 C 86 %
3240 23-03-2015 23:43:17 1.3 C 86 %
3241 23-03-2015 23:55:17 1.1 C 86 %
3242 24-03-2015 00:07:17 1.1 C 87 %
3243 24-03-2015 00:19:17 1.1 C 88 %
3244 24-03-2015 00:31:17 0.8 C 88 %
3245 24-03-2015 00:43:17 0.9 C 89 %
3246 24-03-2015 00:55:17 1.1 C 89 %
3247 24-03-2015 01:07:17 0.7 C 89 %
3248 24-03-2015 01:19:17 0.6 C 89 %
3249 24-03-2015 01:31:17 1 C 90 %
3250 24-03-2015 01:43:17 1.4 C 91 %
Sensor: Nr:Datum:Temp:Feuchte:
Aussen-T/F 3251 24-03-2015 01:55:17 1.5 C 91 %
3252 24-03-2015 02:07:17 1.2 C 90 %
3253 24-03-2015 02:19:17 1 C 90 %
3254 24-03-2015 02:31:17 0.9 C 91 %
3255 24-03-2015 02:43:17 1 C 91 %
3256 24-03-2015 02:55:17 1.5 C 91 %
3257 24-03-2015 03:07:17 1.8 C 92 %
3258 24-03-2015 03:19:17 2 C 91 %
3259 24-03-2015 03:31:17 2.2 C 91 %
3260 24-03-2015 03:43:17 2.3 C 90 %
3261 24-03-2015 03:55:17 2.4 C 90 %
3262 24-03-2015 04:07:17 2.5 C 89 %
3263 24-03-2015 04:19:17 2.6 C 88 %
3264 24-03-2015 04:31:17 2.7 C 87 %
3265 24-03-2015 04:43:17 2.6 C 87 %
3266 24-03-2015 04:55:17 2.6 C 86 %
3267 24-03-2015 05:07:17 2.7 C 86 %
3268 24-03-2015 05:19:17 2.7 C 86 %
3269 24-03-2015 05:31:17 2.7 C 86 %
3270 24-03-2015 05:43:17 2.8 C 86 %
3271 24-03-2015 05:55:17 2.8 C 85 %
3272 24-03-2015 06:07:17 2.7 C 85 %
3273 24-03-2015 06:19:17 2.6 C 85 %
3274 24-03-2015 06:31:17 2.5 C 85 %
3275 24-03-2015 06:43:17 2.5 C 85 %
Sensor: Nr:Datum:Temp:Feuchte:
Aussen-T/F 3276 24-03-2015 06:55:17 2.6 C 85 %
3277 24-03-2015 07:07:17 2.7 C 86 %
3278 24-03-2015 07:19:17 3 C 85 %
3279 24-03-2015 07:31:17 3.1 C 84 %
3280 24-03-2015 07:43:17 3.4 C 83 %
3281 24-03-2015 07:55:17 3.5 C 82 %
3282 24-03-2015 08:07:17 3.7 C 81 %
3283 24-03-2015 08:19:17 4 C 79 %
3284 24-03-2015 08:31:17 4.2 C 78 %
3285 24-03-2015 08:43:17 4.2 C 76 %
3286 24-03-2015 08:55:17 4.5 C 75 %
3287 24-03-2015 09:07:17 4.7 C 74 %
3288 24-03-2015 09:19:17 4.9 C 74 %
3289 24-03-2015 09:31:17 4.9 C 73 %
3290 24-03-2015 09:43:17 4.9 C 74 %
3291 24-03-2015 09:55:17 5.1 C 72 %
3292 24-03-2015 10:07:17 5.4 C 72 %
3293 24-03-2015 10:19:17 6 C 69 %
3294 24-03-2015 10:31:17 6.6 C 68 %
3295 24-03-2015 10:43:17 6.8 C 66 %
3296 24-03-2015 10:55:17 6.8 C 66 %
3297 24-03-2015 11:07:17 7 C 65 %
3298 24-03-2015 11:19:17 7.1 C 65 %
3299 24-03-2015 11:31:17 7.5 C 63 %
3300 24-03-2015 11:43:17 8.4 C 62 %
Sensor: Nr:Datum:Temp:Feuchte:
Aussen-T/F 3301 24-03-2015 11:55:17 8.7 C 60 %
3302 24-03-2015 12:07:17 9.7 C 58 %
3303 24-03-2015 12:19:17 9.8 C 56 %
3304 24-03-2015 12:31:17 10.1 C 55 %
3305 24-03-2015 12:43:17 11 C 54 %
3306 24-03-2015 12:55:17 11.2 C 51 %
3307 24-03-2015 13:07:17 11.6 C 50 %
3308 24-03-2015 13:19:18 12 C 47 %
3309 24-03-2015 13:31:17 12.7 C 46 %
3310 24-03-2015 13:43:17 12.8 C 43 %
3311 24-03-2015 13:55:17 13.3 C 39 %
3312 24-03-2015 14:07:17 13.1 C 38 %
3313 24-03-2015 14:19:17 13.2 C 38 %
3314 24-03-2015 14:31:17 13.4 C 37 %
3315 24-03-2015 14:43:17 13.6 C 38 %
3316 24-03-2015 14:55:17 13.4 C 38 %
3317 24-03-2015 15:07:17 14.2 C 38 %
3318 24-03-2015 15:19:17 14.9 C 35 %
3319 24-03-2015 15:31:17 14.4 C 36 %
3320 24-03-2015 15:43:17 14.3 C 36 %
3321 24-03-2015 15:55:17 14.5 C 36 %
3322 24-03-2015 16:07:17 13.9 C 36 %
3323 24-03-2015 16:19:17 15.2 C 35 %
3324 24-03-2015 16:31:17 14.8 C 35 %
3325 24-03-2015 16:43:17 15.1 C 35 %
Sensor: Nr:Datum:Temp:Feuchte:
Aussen-T/F 3326 24-03-2015 16:55:17 16.8 C 33 %
3327 24-03-2015 17:07:17 16.6 C 32 %
3328 24-03-2015 17:19:16 14.3 C 35 %
3329 24-03-2015 17:31:17 13.2 C 44 %
3330 24-03-2015 17:43:17 13 C 44 %
3331 24-03-2015 17:55:17 12.3 C 49 %
3332 24-03-2015 18:07:17 11.6 C 52 %
3333 24-03-2015 18:19:17 11.2 C 53 %
3334 24-03-2015 18:31:17 10.7 C 55 %
3335 24-03-2015 18:43:17 10.4 C 55 %
3336 24-03-2015 18:55:17 10.4 C 55 %
3337 24-03-2015 19:07:17 10.3 C 55 %
3338 24-03-2015 19:19:17 10 C 55 %
3339 24-03-2015 19:31:17 9.5 C 57 %
3340 24-03-2015 19:43:17 8.7 C 60 %
3341 24-03-2015 19:55:17 8.2 C 62 %
3342 24-03-2015 20:07:17 8.1 C 65 %
3343 24-03-2015 20:19:17 8 C 66 %
3344 24-03-2015 20:31:17 8.1 C 66 %
3345 24-03-2015 20:43:17 7.6 C 67 %
3346 24-03-2015 20:55:17 7.2 C 68 %
3347 24-03-2015 21:07:17 7.3 C 69 %
3348 24-03-2015 21:19:17 7.1 C 69 %
3349 24-03-2015 21:31:17 6.6 C 71 %
3350 24-03-2015 21:43:17 6.3 C 72 %
Sensor: Nr:Datum:Temp:Feuchte:
Aussen-T/F 3351 24-03-2015 21:55:17 6.2 C 74 %
3352 24-03-2015 22:07:17 6.2 C 74 %
3353 24-03-2015 22:19:17 5.9 C 75 %
3354 24-03-2015 22:31:17 5.8 C 76 %
3355 24-03-2015 22:43:17 6.1 C 77 %
3356 24-03-2015 22:55:17 6.3 C 78 %
3357 24-03-2015 23:07:17 6.5 C 78 %
3358 24-03-2015 23:19:17 6.4 C 76 %
3359 24-03-2015 23:31:17 6 C 76 %
3360 24-03-2015 23:43:17 5.7 C 77 %
3361 24-03-2015 23:55:17 5.6 C 78 %
Sensor: Nr:Datum:Temp:Feuchte:
G-T/H 1 25-02-2015 00:05:17 7.5 C 71 %
2 25-02-2015 00:17:17 7.5 C 71 %
3 25-02-2015 00:29:17 7.5 C 71 %
4 25-02-2015 00:41:17 7.5 C 71 %
5 25-02-2015 00:53:16 7.5 C 71 %
6 25-02-2015 01:05:17 7.5 C 71 %
7 25-02-2015 01:17:17 7.5 C 71 %
8 25-02-2015 01:29:17 7.5 C 71 %
9 25-02-2015 01:41:16 7.5 C 71 %
10 25-02-2015 01:53:17 7.5 C 71 %
11 25-02-2015 02:05:17 7.5 C 71 %
12 25-02-2015 02:17:17 7.5 C 71 %
13 25-02-2015 02:29:17 7.5 C 71 %
14 25-02-2015 02:41:17 7.5 C 71 %
15 25-02-2015 02:53:17 7.4 C 71 %
16 25-02-2015 03:05:17 7.5 C 71 %
17 25-02-2015 03:17:17 7.4 C 71 %
18 25-02-2015 03:29:18 7.5 C 71 %
19 25-02-2015 03:41:17 7.4 C 71 %
20 25-02-2015 03:53:17 7.4 C 71 %
21 25-02-2015 04:05:17 7.4 C 71 %
22 25-02-2015 04:17:17 7.4 C 71 %
23 25-02-2015 04:29:17 7.4 C 71 %
24 25-02-2015 04:41:17 7.4 C 71 %
25 25-02-2015 04:53:17 7.4 C 71 %
Sensor: Nr:Datum:Temp:Feuchte:
G-T/H 26 25-02-2015 05:05:17 7.4 C 71 %
27 25-02-2015 05:17:17 7.4 C 71 %
28 25-02-2015 05:29:17 7.4 C 71 %
29 25-02-2015 05:41:17 7.3 C 71 %
30 25-02-2015 05:53:17 7.3 C 71 %
31 25-02-2015 06:05:17 7.3 C 71 %
32 25-02-2015 06:17:17 7.3 C 70 %
33 25-02-2015 06:29:17 7.1 C 70 %
34 25-02-2015 06:41:17 7.1 C 69 %
35 25-02-2015 06:53:17 7 C 69 %
36 25-02-2015 07:05:17 7 C 68 %
37 25-02-2015 07:17:17 7 C 68 %
38 25-02-2015 07:29:17 6.9 C 68 %
39 25-02-2015 07:41:17 6.9 C 68 %
40 25-02-2015 07:53:17 6.8 C 68 %
41 25-02-2015 08:05:17 6.8 C 68 %
42 25-02-2015 08:17:17 6.8 C 68 %
43 25-02-2015 08:29:17 6.9 C 68 %
44 25-02-2015 08:41:17 6.9 C 68 %
45 25-02-2015 08:53:17 6.9 C 68 %
46 25-02-2015 09:05:17 6.9 C 69 %
47 25-02-2015 09:17:17 6.9 C 69 %
48 25-02-2015 09:29:17 6.9 C 69 %
49 25-02-2015 09:41:17 7 C 68 %
50 25-02-2015 09:53:17 7 C 69 %
Sensor: Nr:Datum:Temp:Feuchte:
G-T/H 51 25-02-2015 10:05:17 7 C 69 %
52 25-02-2015 10:17:17 7 C 69 %
53 25-02-2015 10:29:17 7 C 69 %
54 25-02-2015 10:41:17 7 C 69 %
55 25-02-2015 10:53:17 7 C 69 %
56 25-02-2015 11:05:17 7 C 69 %
57 25-02-2015 11:17:17 7 C 69 %
58 25-02-2015 11:29:17 7 C 69 %
59 25-02-2015 11:41:17 7 C 70 %
60 25-02-2015 11:53:17 7 C 70 %
61 25-02-2015 12:05:17 7 C 70 %
62 25-02-2015 12:17:17 7 C 70 %
63 25-02-2015 12:29:17 7 C 70 %
64 25-02-2015 12:41:18 7 C 70 %
65 25-02-2015 12:53:17 7 C 70 %
66 25-02-2015 13:05:17 7 C 70 %
67 25-02-2015 13:17:17 7.1 C 70 %
68 25-02-2015 13:29:17 7.1 C 70 %
69 25-02-2015 13:41:17 7.1 C 70 %
70 25-02-2015 13:53:17 7.1 C 70 %
71 25-02-2015 14:05:17 7.1 C 70 %
72 25-02-2015 14:17:17 7.1 C 70 %
73 25-02-2015 14:29:17 7.2 C 70 %
74 25-02-2015 14:41:17 7.2 C 70 %
75 25-02-2015 14:53:17 7.2 C 70 %
Sensor: Nr:Datum:Temp:Feuchte:
G-T/H 76 25-02-2015 15:05:17 7.2 C 70 %
77 25-02-2015 15:17:17 7.2 C 70 %
78 25-02-2015 15:29:17 7.3 C 71 %
79 25-02-2015 15:41:17 7.3 C 71 %
80 25-02-2015 15:53:17 7.3 C 71 %
81 25-02-2015 16:05:17 7.3 C 71 %
82 25-02-2015 16:17:17 7.3 C 71 %
83 25-02-2015 16:29:17 7.3 C 71 %
84 25-02-2015 16:41:17 7.3 C 71 %
85 25-02-2015 16:53:17 7.3 C 71 %
86 25-02-2015 17:05:17 7.3 C 71 %
87 25-02-2015 17:17:17 7.4 C 71 %
88 25-02-2015 17:29:17 7.4 C 71 %
89 25-02-2015 17:41:17 7.4 C 71 %
90 25-02-2015 17:53:17 7.4 C 71 %
91 25-02-2015 18:05:17 7.4 C 71 %
92 25-02-2015 18:17:17 7.4 C 71 %
93 25-02-2015 18:29:17 7.5 C 71 %
94 25-02-2015 18:41:17 7.5 C 71 %
95 25-02-2015 18:53:17 7.5 C 71 %
96 25-02-2015 19:05:17 7.5 C 71 %
97 25-02-2015 19:17:17 7.5 C 71 %
98 25-02-2015 19:29:17 7.5 C 71 %
99 25-02-2015 19:41:17 7.5 C 71 %
100 25-02-2015 19:53:17 7.5 C 71 %
Sensor: Nr:Datum:Temp:Feuchte:
G-T/H 101 25-02-2015 20:05:17 7.5 C 71 %
102 25-02-2015 20:17:17 7.6 C 71 %
103 25-02-2015 20:29:17 7.5 C 71 %
104 25-02-2015 20:41:17 7.5 C 72 %
105 25-02-2015 20:53:17 7.5 C 72 %
106 25-02-2015 21:05:17 7.6 C 72 %
107 25-02-2015 21:17:17 7.6 C 72 %
108 25-02-2015 21:29:17 7.6 C 72 %
109 25-02-2015 21:41:17 7.6 C 72 %
110 25-02-2015 21:53:17 7.6 C 72 %
111 25-02-2015 22:05:17 7.6 C 72 %
112 25-02-2015 22:17:16 7.6 C 72 %
113 25-02-2015 22:29:16 7.6 C 72 %
114 25-02-2015 22:41:17 7.6 C 72 %
115 25-02-2015 22:53:17 7.6 C 72 %
116 25-02-2015 23:05:17 7.6 C 72 %
117 25-02-2015 23:17:17 7.6 C 72 %
118 25-02-2015 23:29:17 7.6 C 72 %
119 25-02-2015 23:41:17 7.6 C 72 %
120 25-02-2015 23:53:17 7.6 C 72 %
121 26-02-2015 00:05:17 7.6 C 72 %
122 26-02-2015 00:17:17 7.6 C 72 %
123 26-02-2015 00:29:17 7.6 C 72 %
124 26-02-2015 00:41:17 7.6 C 72 %
125 26-02-2015 00:53:17 7.6 C 72 %
Sensor: Nr:Datum:Temp:Feuchte:
G-T/H 126 26-02-2015 01:05:17 7.6 C 72 %
127 26-02-2015 01:17:17 7.6 C 72 %
128 26-02-2015 01:29:17 7.6 C 72 %
129 26-02-2015 01:41:18 7.6 C 72 %
130 26-02-2015 01:53:17 7.6 C 72 %
131 26-02-2015 02:05:17 7.6 C 72 %
132 26-02-2015 02:17:17 7.6 C 72 %
133 26-02-2015 02:29:17 7.6 C 72 %
134 26-02-2015 02:41:17 7.6 C 72 %
135 26-02-2015 02:53:17 7.6 C 72 %
136 26-02-2015 03:05:17 7.6 C 72 %
137 26-02-2015 03:17:17 7.6 C 72 %
138 26-02-2015 03:29:17 7.6 C 72 %
139 26-02-2015 03:41:17 7.6 C 72 %
140 26-02-2015 03:53:17 7.6 C 72 %
141 26-02-2015 04:05:17 7.6 C 72 %
142 26-02-2015 04:17:17 7.6 C 72 %
143 26-02-2015 04:29:17 7.6 C 72 %
144 26-02-2015 04:41:17 7.6 C 72 %
145 26-02-2015 04:53:17 7.6 C 72 %
146 26-02-2015 05:05:17 7.6 C 72 %
147 26-02-2015 05:17:17 7.6 C 72 %
148 26-02-2015 05:29:17 7.6 C 72 %
149 26-02-2015 05:41:17 7.6 C 72 %
150 26-02-2015 05:53:17 7.6 C 72 %
Sensor: Nr:Datum:Temp:Feuchte:
G-T/H 151 26-02-2015 06:05:17 7.6 C 72 %
152 26-02-2015 06:17:16 7.6 C 72 %
153 26-02-2015 06:29:17 7.6 C 72 %
154 26-02-2015 06:41:17 7.6 C 72 %
155 26-02-2015 06:53:17 7.6 C 72 %
156 26-02-2015 07:05:17 7.5 C 72 %
157 26-02-2015 07:17:17 7.6 C 72 %
158 26-02-2015 07:29:17 7.5 C 72 %
159 26-02-2015 07:41:17 7.5 C 72 %
160 26-02-2015 07:53:17 7.6 C 72 %
161 26-02-2015 08:05:17 7.5 C 72 %
162 26-02-2015 08:17:17 7.5 C 72 %
163 26-02-2015 08:29:17 7.5 C 72 %
164 26-02-2015 08:41:17 7.5 C 72 %
165 26-02-2015 08:53:17 7.5 C 72 %
166 26-02-2015 09:05:17 7.5 C 72 %
167 26-02-2015 09:17:17 7.5 C 72 %
168 26-02-2015 09:29:17 7.5 C 72 %
169 26-02-2015 09:41:17 7.5 C 72 %
170 26-02-2015 09:53:17 7.5 C 72 %
171 26-02-2015 10:05:17 7.5 C 72 %
172 26-02-2015 10:17:17 7.5 C 72 %
173 26-02-2015 10:29:17 7.5 C 72 %
174 26-02-2015 10:41:17 7.6 C 72 %
175 26-02-2015 10:53:17 7.6 C 72 %
Sensor: Nr:Datum:Temp:Feuchte:
G-T/H 176 26-02-2015 11:05:17 7.6 C 72 %
177 26-02-2015 11:17:17 7.6 C 72 %
178 26-02-2015 11:29:17 7.6 C 73 %
179 26-02-2015 11:41:17 7.6 C 73 %
180 26-02-2015 11:53:17 7.6 C 73 %
181 26-02-2015 12:05:17 7.6 C 73 %
182 26-02-2015 12:17:17 7.6 C 73 %
183 26-02-2015 12:29:17 7.7 C 73 %
184 26-02-2015 12:41:17 7.7 C 73 %
185 26-02-2015 12:53:17 7.7 C 73 %
186 26-02-2015 13:05:17 7.7 C 73 %
187 26-02-2015 13:17:17 7.7 C 73 %
188 26-02-2015 13:29:17 7.7 C 73 %
189 26-02-2015 13:41:17 7.8 C 73 %
190 26-02-2015 13:53:17 7.8 C 73 %
191 26-02-2015 14:05:17 7.8 C 73 %
192 26-02-2015 14:17:17 7.9 C 73 %
193 26-02-2015 14:29:18 7.9 C 73 %
194 26-02-2015 14:41:17 7.9 C 73 %
195 26-02-2015 14:53:17 7.9 C 73 %
196 26-02-2015 15:05:17 7.9 C 73 %
197 26-02-2015 15:17:17 7.9 C 73 %
198 26-02-2015 15:29:17 8 C 72 %
199 26-02-2015 15:41:17 8 C 72 %
200 26-02-2015 15:53:17 8 C 72 %
Sensor: Nr:Datum:Temp:Feuchte:
G-T/H 201 26-02-2015 16:05:17 8 C 72 %
202 26-02-2015 16:17:17 8 C 72 %
203 26-02-2015 16:29:17 8 C 72 %
204 26-02-2015 16:41:17 8.1 C 72 %
205 26-02-2015 16:53:17 8.1 C 72 %
206 26-02-2015 17:05:18 8.1 C 72 %
207 26-02-2015 17:17:17 8.1 C 72 %
208 26-02-2015 17:29:17 8.1 C 72 %
209 26-02-2015 17:41:17 8.1 C 72 %
210 26-02-2015 17:53:17 8.1 C 72 %
211 26-02-2015 18:05:17 8.2 C 72 %
212 26-02-2015 18:17:17 8.2 C 72 %
213 26-02-2015 18:29:17 8.2 C 72 %
214 26-02-2015 18:41:17 8.2 C 72 %
215 26-02-2015 18:53:17 8.2 C 72 %
216 26-02-2015 19:05:17 8.2 C 72 %
217 26-02-2015 19:17:17 8.2 C 72 %
218 26-02-2015 19:29:17 8.2 C 72 %
219 26-02-2015 19:41:17 8.2 C 72 %
220 26-02-2015 19:53:17 8.3 C 72 %
221 26-02-2015 20:05:17 8.2 C 72 %
222 26-02-2015 20:17:17 8.3 C 72 %
223 26-02-2015 20:29:17 8.3 C 72 %
224 26-02-2015 20:41:17 8.3 C 72 %
225 26-02-2015 20:53:17 8.3 C 72 %
Sensor: Nr:Datum:Temp:Feuchte:
G-T/H 226 26-02-2015 21:05:17 8.3 C 72 %
227 26-02-2015 21:17:17 8.3 C 73 %
228 26-02-2015 21:29:17 8.3 C 73 %
229 26-02-2015 21:41:17 8.4 C 73 %
230 26-02-2015 21:53:17 8.4 C 73 %
231 26-02-2015 22:05:18 8.4 C 73 %
232 26-02-2015 22:17:17 8.4 C 73 %
233 26-02-2015 22:29:17 8.4 C 73 %
234 26-02-2015 22:41:18 8.4 C 73 %
235 26-02-2015 22:53:17 8.4 C 73 %
236 26-02-2015 23:05:17 8.4 C 73 %
237 26-02-2015 23:17:17 8.4 C 73 %
238 26-02-2015 23:29:18 8.4 C 73 %
239 26-02-2015 23:41:17 8.4 C 73 %
240 26-02-2015 23:53:16 8.4 C 73 %
241 27-02-2015 00:05:17 8.4 C 73 %
242 27-02-2015 00:17:17 8.4 C 73 %
243 27-02-2015 00:29:17 8.4 C 73 %
244 27-02-2015 00:41:17 8.4 C 73 %
245 27-02-2015 00:53:17 8.4 C 73 %
246 27-02-2015 01:05:17 8.5 C 73 %
247 27-02-2015 01:17:17 8.5 C 73 %
248 27-02-2015 01:29:18 8.4 C 73 %
249 27-02-2015 01:41:17 8.4 C 73 %
250 27-02-2015 01:53:17 8.5 C 73 %
Sensor: Nr:Datum:Temp:Feuchte:
G-T/H 251 27-02-2015 02:05:17 8.5 C 73 %
252 27-02-2015 02:17:17 8.4 C 73 %
253 27-02-2015 02:29:17 8.4 C 73 %
254 27-02-2015 02:41:17 8.4 C 73 %
255 27-02-2015 02:53:17 8.4 C 73 %
256 27-02-2015 03:05:17 8.5 C 73 %
257 27-02-2015 03:17:17 8.4 C 73 %
258 27-02-2015 03:29:17 8.4 C 73 %
259 27-02-2015 03:41:17 8.4 C 73 %
260 27-02-2015 03:53:17 8.5 C 73 %
261 27-02-2015 04:05:17 8.5 C 73 %
262 27-02-2015 04:17:17 8.5 C 73 %
263 27-02-2015 04:29:17 8.5 C 73 %
264 27-02-2015 04:41:17 8.5 C 73 %
265 27-02-2015 04:53:17 8.5 C 73 %
266 27-02-2015 05:05:17 8.5 C 73 %
267 27-02-2015 05:17:17 8.4 C 73 %
268 27-02-2015 05:29:17 8.4 C 73 %
269 27-02-2015 05:41:17 8.4 C 73 %
270 27-02-2015 05:53:17 8.5 C 73 %
271 27-02-2015 06:05:17 8.4 C 73 %
272 27-02-2015 06:17:17 8.5 C 73 %
273 27-02-2015 06:29:17 8.4 C 73 %
274 27-02-2015 06:41:17 8.4 C 73 %
275 27-02-2015 06:53:17 8.4 C 73 %
Sensor: Nr:Datum:Temp:Feuchte:
G-T/H 276 27-02-2015 07:05:17 8.4 C 73 %
277 27-02-2015 07:17:17 8.4 C 73 %
278 27-02-2015 07:29:17 8.4 C 73 %
279 27-02-2015 07:41:17 8.4 C 73 %
280 27-02-2015 07:53:17 8.5 C 73 %
281 27-02-2015 08:05:17 8.4 C 73 %
282 27-02-2015 08:17:16 8.4 C 73 %
283 27-02-2015 08:29:17 8.4 C 73 %
284 27-02-2015 08:41:17 8.4 C 73 %
285 27-02-2015 08:53:17 8.4 C 73 %
286 27-02-2015 09:05:17 8.4 C 73 %
287 27-02-2015 09:17:17 8.4 C 73 %
288 27-02-2015 09:29:17 8.4 C 73 %
289 27-02-2015 09:41:17 8.4 C 73 %
290 27-02-2015 09:53:16 8.4 C 73 %
291 27-02-2015 10:05:18 8.4 C 73 %
292 27-02-2015 10:17:17 8.4 C 73 %
293 27-02-2015 10:29:17 8.4 C 73 %
294 27-02-2015 10:41:17 8.4 C 72 %
295 27-02-2015 10:53:17 8.4 C 72 %
296 27-02-2015 11:05:17 8.4 C 72 %
297 27-02-2015 11:17:17 8.4 C 72 %
298 27-02-2015 11:29:17 8.4 C 72 %
299 27-02-2015 11:41:17 8.4 C 72 %
300 27-02-2015 11:53:17 8.4 C 72 %
Sensor: Nr:Datum:Temp:Feuchte:
G-T/H 301 27-02-2015 12:05:17 8.4 C 72 %
302 27-02-2015 12:17:17 8.4 C 72 %
303 27-02-2015 12:29:17 8.4 C 72 %
304 27-02-2015 12:41:17 8.4 C 72 %
305 27-02-2015 12:53:17 8.4 C 72 %
306 27-02-2015 13:05:17 8.4 C 72 %
307 27-02-2015 13:17:17 8.4 C 72 %
308 27-02-2015 13:29:17 8.4 C 72 %
309 27-02-2015 13:41:17 8.4 C 72 %
310 27-02-2015 13:53:17 8.4 C 72 %
311 27-02-2015 14:05:17 8.4 C 72 %
312 27-02-2015 14:17:17 8.4 C 72 %
313 27-02-2015 14:29:17 8.4 C 72 %
314 27-02-2015 14:41:17 8.4 C 72 %
315 27-02-2015 14:53:17 8.4 C 72 %
316 27-02-2015 15:05:17 8.4 C 72 %
317 27-02-2015 15:17:17 8.4 C 72 %
318 27-02-2015 15:29:17 8.4 C 72 %
319 27-02-2015 15:41:17 8.4 C 72 %
320 27-02-2015 15:53:17 8.4 C 72 %
321 27-02-2015 16:05:17 8.4 C 72 %
322 27-02-2015 16:17:17 8.4 C 72 %
323 27-02-2015 16:29:18 8.4 C 72 %
324 27-02-2015 16:41:17 8.4 C 72 %
325 27-02-2015 16:53:17 8.4 C 72 %
Sensor: Nr:Datum:Temp:Feuchte:
G-T/H 326 27-02-2015 17:05:17 8.4 C 72 %
327 27-02-2015 17:17:17 8.4 C 72 %
328 27-02-2015 17:29:17 8.4 C 72 %
329 27-02-2015 17:41:17 8.4 C 72 %
330 27-02-2015 17:53:17 8.3 C 72 %
331 27-02-2015 18:05:17 8.4 C 72 %
332 27-02-2015 18:17:17 8.3 C 72 %
333 27-02-2015 18:29:17 8.3 C 72 %
334 27-02-2015 18:41:17 8.4 C 72 %
335 27-02-2015 18:53:17 8.3 C 72 %
336 27-02-2015 19:05:17 8.4 C 72 %
337 27-02-2015 19:17:17 8.3 C 72 %
338 27-02-2015 19:29:17 8.4 C 72 %
339 27-02-2015 19:41:17 8.3 C 72 %
340 27-02-2015 19:53:17 8.3 C 72 %
341 27-02-2015 20:05:17 8.2 C 72 %
342 27-02-2015 20:17:17 8.1 C 71 %
343 27-02-2015 20:29:17 8 C 71 %
344 27-02-2015 20:41:17 8 C 70 %
345 27-02-2015 20:53:17 7.9 C 71 %
346 27-02-2015 21:05:17 7.9 C 70 %
347 27-02-2015 21:17:17 7.9 C 70 %
348 27-02-2015 21:29:17 7.8 C 70 %
349 27-02-2015 21:41:17 7.8 C 69 %
350 27-02-2015 21:53:17 7.8 C 69 %
Sensor: Nr:Datum:Temp:Feuchte:
G-T/H 351 27-02-2015 22:05:17 7.8 C 69 %
352 27-02-2015 22:17:17 7.8 C 69 %
353 27-02-2015 22:29:17 7.8 C 69 %
354 27-02-2015 22:41:17 7.7 C 69 %
355 27-02-2015 22:53:17 7.7 C 68 %
356 27-02-2015 23:05:17 7.6 C 68 %
357 27-02-2015 23:17:17 7.7 C 68 %
358 27-02-2015 23:29:17 7.6 C 68 %
359 27-02-2015 23:41:17 7.6 C 68 %
360 27-02-2015 23:53:17 7.5 C 68 %
361 28-02-2015 00:05:17 7.5 C 67 %
362 28-02-2015 00:17:17 7.5 C 67 %
363 28-02-2015 00:29:17 7.5 C 67 %
364 28-02-2015 00:41:18 7.5 C 67 %
365 28-02-2015 00:53:17 7.4 C 67 %
366 28-02-2015 01:05:17 7.4 C 66 %
367 28-02-2015 01:17:17 7.4 C 66 %
368 28-02-2015 01:29:17 7.3 C 66 %
369 28-02-2015 01:41:17 7.3 C 66 %
370 28-02-2015 01:53:17 7.3 C 66 %
371 28-02-2015 02:05:17 7.2 C 66 %
372 28-02-2015 02:17:17 7.2 C 66 %
373 28-02-2015 02:29:17 7.1 C 65 %
374 28-02-2015 02:41:16 7.1 C 65 %
375 28-02-2015 02:53:17 7.1 C 65 %
Sensor: Nr:Datum:Temp:Feuchte:
G-T/H 376 28-02-2015 03:05:17 7.1 C 65 %
377 28-02-2015 03:17:17 7 C 65 %
378 28-02-2015 03:29:17 7 C 65 %
379 28-02-2015 03:41:17 7 C 65 %
380 28-02-2015 03:53:17 6.9 C 65 %
381 28-02-2015 04:05:17 6.9 C 65 %
382 28-02-2015 04:17:17 6.9 C 65 %
383 28-02-2015 04:29:17 6.9 C 65 %
384 28-02-2015 04:41:17 6.8 C 65 %
385 28-02-2015 04:53:17 6.8 C 65 %
386 28-02-2015 05:05:17 6.8 C 65 %
387 28-02-2015 05:17:17 6.8 C 64 %
388 28-02-2015 05:29:17 6.7 C 64 %
389 28-02-2015 05:41:17 6.7 C 64 %
390 28-02-2015 05:53:17 6.7 C 64 %
391 28-02-2015 06:05:17 6.7 C 64 %
392 28-02-2015 06:17:17 6.6 C 64 %
393 28-02-2015 06:29:17 6.6 C 64 %
394 28-02-2015 06:41:17 6.5 C 64 %
395 28-02-2015 06:53:17 6.6 C 64 %
396 28-02-2015 07:05:17 6.5 C 64 %
397 28-02-2015 07:17:17 6.5 C 64 %
398 28-02-2015 07:29:17 6.5 C 64 %
399 28-02-2015 07:41:17 6.5 C 64 %
400 28-02-2015 07:53:17 6.4 C 64 %
Sensor: Nr:Datum:Temp:Feuchte:
G-T/H 401 28-02-2015 08:05:17 6.4 C 64 %
402 28-02-2015 08:17:17 6.4 C 64 %
403 28-02-2015 08:29:17 6.4 C 64 %
404 28-02-2015 08:41:17 6.4 C 64 %
405 28-02-2015 08:53:17 6.4 C 64 %
406 28-02-2015 09:05:17 6.3 C 64 %
407 28-02-2015 09:17:17 6.3 C 64 %
408 28-02-2015 09:29:17 6.3 C 64 %
409 28-02-2015 09:41:17 6.3 C 64 %
410 28-02-2015 09:53:17 6.4 C 64 %
411 28-02-2015 10:05:16 6.3 C 64 %
412 28-02-2015 10:17:17 6.4 C 64 %
413 28-02-2015 10:29:17 6.5 C 65 %
414 28-02-2015 10:41:17 6.5 C 65 %
415 28-02-2015 10:53:17 6.5 C 65 %
416 28-02-2015 11:05:17 6.5 C 66 %
417 28-02-2015 11:17:17 6.5 C 66 %
418 28-02-2015 11:29:17 6.6 C 66 %
419 28-02-2015 11:41:17 6.6 C 66 %
420 28-02-2015 11:53:17 6.6 C 67 %
421 28-02-2015 12:05:17 6.8 C 67 %
422 28-02-2015 12:17:17 6.9 C 67 %
423 28-02-2015 12:29:17 6.9 C 67 %
424 28-02-2015 12:41:17 6.9 C 67 %
425 28-02-2015 12:53:17 6.9 C 67 %
Sensor: Nr:Datum:Temp:Feuchte:
G-T/H 426 28-02-2015 13:05:17 6.9 C 67 %
427 28-02-2015 13:17:17 7 C 67 %
428 28-02-2015 13:29:17 6.9 C 68 %
429 28-02-2015 13:41:17 6.9 C 68 %
430 28-02-2015 13:53:17 6.9 C 68 %
431 28-02-2015 14:05:17 6.9 C 68 %
432 28-02-2015 14:17:17 6.9 C 68 %
433 28-02-2015 14:29:17 6.9 C 68 %
434 28-02-2015 14:41:17 6.9 C 68 %
435 28-02-2015 14:53:17 6.9 C 68 %
436 28-02-2015 15:05:17 7 C 68 %
437 28-02-2015 15:17:17 6.9 C 69 %
438 28-02-2015 15:29:17 7 C 68 %
439 28-02-2015 15:41:17 6.9 C 68 %
440 28-02-2015 15:53:17 6.9 C 67 %
441 28-02-2015 16:05:17 6.9 C 66 %
442 28-02-2015 16:17:17 7 C 66 %
443 28-02-2015 16:29:17 7 C 66 %
444 28-02-2015 16:41:17 7 C 66 %
445 28-02-2015 16:53:17 6.9 C 66 %
446 28-02-2015 17:05:17 6.9 C 65 %
447 28-02-2015 17:17:17 7 C 64 %
448 28-02-2015 17:29:18 7 C 65 %
449 28-02-2015 17:41:17 7 C 65 %
450 28-02-2015 17:53:17 7 C 66 %
Sensor: Nr:Datum:Temp:Feuchte:
G-T/H 451 28-02-2015 18:05:17 7 C 66 %
452 28-02-2015 18:17:17 7 C 66 %
453 28-02-2015 18:29:17 7 C 66 %
454 28-02-2015 18:41:17 7 C 67 %
455 28-02-2015 18:53:17 7 C 67 %
456 28-02-2015 19:05:17 7 C 67 %
457 28-02-2015 19:17:17 7 C 67 %
458 28-02-2015 19:29:17 7 C 67 %
459 28-02-2015 19:41:17 7 C 67 %
460 28-02-2015 19:53:17 7 C 67 %
461 28-02-2015 20:05:17 7 C 67 %
462 28-02-2015 20:17:17 6.9 C 67 %
463 28-02-2015 20:29:17 6.8 C 67 %
464 28-02-2015 20:41:17 6.8 C 66 %
465 28-02-2015 20:53:17 6.8 C 66 %
466 28-02-2015 21:05:17 6.7 C 65 %
467 28-02-2015 21:17:17 6.7 C 65 %
468 28-02-2015 21:29:17 6.7 C 65 %
469 28-02-2015 21:41:17 6.8 C 66 %
470 28-02-2015 21:53:17 6.8 C 66 %
471 28-02-2015 22:05:17 6.8 C 66 %
472 28-02-2015 22:17:17 6.8 C 67 %
473 28-02-2015 22:29:17 6.8 C 67 %
474 28-02-2015 22:41:17 6.8 C 67 %
475 28-02-2015 22:53:17 6.9 C 67 %
Sensor: Nr:Datum:Temp:Feuchte:
G-T/H 476 28-02-2015 23:05:17 6.9 C 67 %
477 28-02-2015 23:17:17 6.9 C 67 %
478 28-02-2015 23:29:17 6.9 C 67 %
479 28-02-2015 23:41:17 6.9 C 67 %
480 28-02-2015 23:53:17 6.9 C 66 %
481 01-03-2015 00:05:17 6.8 C 65 %
482 01-03-2015 00:17:17 6.8 C 65 %
483 01-03-2015 00:29:17 6.8 C 64 %
484 01-03-2015 00:41:17 6.8 C 64 %
485 01-03-2015 00:53:17 6.8 C 63 %
486 01-03-2015 01:05:17 6.7 C 63 %
487 01-03-2015 01:17:17 6.7 C 63 %
488 01-03-2015 01:29:17 6.7 C 62 %
489 01-03-2015 01:41:17 6.7 C 62 %
490 01-03-2015 01:53:17 6.7 C 62 %
491 01-03-2015 02:05:17 6.7 C 62 %
492 01-03-2015 02:17:17 6.7 C 62 %
493 01-03-2015 02:29:17 6.7 C 62 %
494 01-03-2015 02:41:17 6.7 C 61 %
495 01-03-2015 02:53:17 6.7 C 61 %
496 01-03-2015 03:05:17 6.7 C 61 %
497 01-03-2015 03:17:17 6.7 C 61 %
498 01-03-2015 03:29:17 6.7 C 61 %
499 01-03-2015 03:41:17 6.7 C 61 %
500 01-03-2015 03:53:17 6.7 C 62 %
Sensor: Nr:Datum:Temp:Feuchte:
G-T/H 501 01-03-2015 04:05:17 6.7 C 63 %
502 01-03-2015 04:17:17 6.7 C 63 %
503 01-03-2015 04:29:17 6.7 C 64 %
504 01-03-2015 04:41:17 6.7 C 64 %
505 01-03-2015 04:53:17 6.7 C 65 %
506 01-03-2015 05:05:17 6.7 C 65 %
507 01-03-2015 05:17:17 6.7 C 65 %
508 01-03-2015 05:29:17 6.7 C 66 %
509 01-03-2015 05:41:17 6.7 C 66 %
510 01-03-2015 05:53:17 6.7 C 66 %
511 01-03-2015 06:05:17 6.7 C 66 %
512 01-03-2015 06:17:17 6.7 C 67 %
513 01-03-2015 06:29:17 6.7 C 67 %
514 01-03-2015 06:41:17 6.8 C 67 %
515 01-03-2015 06:53:17 6.8 C 67 %
516 01-03-2015 07:05:17 6.8 C 67 %
517 01-03-2015 07:17:17 6.8 C 67 %
518 01-03-2015 07:29:17 6.8 C 68 %
519 01-03-2015 07:41:17 6.9 C 68 %
520 01-03-2015 07:53:17 6.8 C 68 %
521 01-03-2015 08:05:17 6.9 C 68 %
522 01-03-2015 08:17:16 6.9 C 68 %
523 01-03-2015 08:29:16 6.9 C 68 %
524 01-03-2015 08:41:17 6.9 C 68 %
525 01-03-2015 08:53:17 6.9 C 68 %
Sensor: Nr:Datum:Temp:Feuchte:
G-T/H 526 01-03-2015 09:05:17 6.9 C 68 %
527 01-03-2015 09:17:17 6.9 C 69 %
528 01-03-2015 09:29:17 6.9 C 69 %
529 01-03-2015 09:41:17 7 C 68 %
530 01-03-2015 09:53:17 7 C 68 %
531 01-03-2015 10:05:17 7 C 68 %
532 01-03-2015 10:17:17 7 C 68 %
533 01-03-2015 10:29:17 7 C 68 %
534 01-03-2015 10:41:17 7 C 68 %
535 01-03-2015 10:53:17 7.1 C 68 %
536 01-03-2015 11:05:17 7.1 C 68 %
537 01-03-2015 11:17:17 7.1 C 69 %
538 01-03-2015 11:29:17 7.2 C 69 %
539 01-03-2015 11:41:17 7.4 C 69 %
540 01-03-2015 11:53:16 7.4 C 70 %
541 01-03-2015 12:05:16 7.3 C 70 %
542 01-03-2015 12:17:17 7.3 C 70 %
543 01-03-2015 12:29:17 7.4 C 70 %
544 01-03-2015 12:41:17 7.4 C 70 %
545 01-03-2015 12:53:17 7.4 C 70 %
546 01-03-2015 13:05:17 7.4 C 70 %
547 01-03-2015 13:17:17 7.5 C 70 %
548 01-03-2015 13:29:17 7.5 C 70 %
549 01-03-2015 13:41:17 7.5 C 70 %
550 01-03-2015 13:53:17 7.5 C 70 %
Sensor: Nr:Datum:Temp:Feuchte:
G-T/H 551 01-03-2015 14:05:17 7.5 C 70 %
552 01-03-2015 14:17:17 7.6 C 70 %
553 01-03-2015 14:29:17 7.6 C 70 %
554 01-03-2015 14:41:17 7.6 C 70 %
555 01-03-2015 14:53:17 7.6 C 70 %
556 01-03-2015 15:05:17 7.7 C 70 %
557 01-03-2015 15:17:17 7.7 C 70 %
558 01-03-2015 15:29:17 7.7 C 70 %
559 01-03-2015 15:41:17 7.8 C 70 %
560 01-03-2015 15:53:17 7.8 C 70 %
561 01-03-2015 16:05:18 7.8 C 70 %
562 01-03-2015 16:17:17 7.8 C 70 %
563 01-03-2015 16:29:17 7.9 C 70 %
564 01-03-2015 16:41:17 7.9 C 70 %
565 01-03-2015 16:53:17 7.9 C 70 %
566 01-03-2015 17:05:18 7.9 C 70 %
567 01-03-2015 17:17:17 7.9 C 70 %
568 01-03-2015 17:29:17 8 C 70 %
569 01-03-2015 17:41:17 8 C 70 %
570 01-03-2015 17:53:17 8 C 70 %
571 01-03-2015 18:05:17 8 C 70 %
572 01-03-2015 18:17:17 8 C 70 %
573 01-03-2015 18:29:17 8 C 70 %
574 01-03-2015 18:41:17 8.1 C 70 %
575 01-03-2015 18:53:17 8 C 70 %
Sensor: Nr:Datum:Temp:Feuchte:
G-T/H 576 01-03-2015 19:05:17 8.1 C 70 %
577 01-03-2015 19:17:17 8.1 C 70 %
578 01-03-2015 19:29:17 8.1 C 70 %
579 01-03-2015 19:41:17 8.1 C 70 %
580 01-03-2015 19:53:17 8.1 C 70 %
581 01-03-2015 20:05:17 8.1 C 70 %
582 01-03-2015 20:17:17 8.2 C 70 %
583 01-03-2015 20:29:17 8.2 C 70 %
584 01-03-2015 20:41:17 8.2 C 70 %
585 01-03-2015 20:53:17 8.2 C 70 %
586 01-03-2015 21:05:18 8.2 C 70 %
587 01-03-2015 21:17:17 8.2 C 70 %
588 01-03-2015 21:29:17 8.2 C 70 %
589 01-03-2015 21:41:17 8.3 C 70 %
590 01-03-2015 21:53:17 8.3 C 70 %
591 01-03-2015 22:05:17 8.3 C 71 %
592 01-03-2015 22:17:17 8.3 C 71 %
593 01-03-2015 22:29:17 8.3 C 71 %
594 01-03-2015 22:41:17 8.3 C 71 %
595 01-03-2015 22:53:17 8.3 C 71 %
596 01-03-2015 23:05:17 8.3 C 71 %
597 01-03-2015 23:17:17 8.4 C 71 %
598 01-03-2015 23:29:17 8.4 C 71 %
599 01-03-2015 23:41:17 8.4 C 71 %
600 01-03-2015 23:53:17 8.4 C 71 %
Sensor: Nr:Datum:Temp:Feuchte:
G-T/H 601 02-03-2015 00:05:17 8.4 C 71 %
602 02-03-2015 00:17:17 8.4 C 71 %
603 02-03-2015 00:29:17 8.4 C 71 %
604 02-03-2015 00:41:17 8.4 C 71 %
605 02-03-2015 00:53:17 8.4 C 71 %
606 02-03-2015 01:05:17 8.4 C 71 %
607 02-03-2015 01:17:17 8.5 C 71 %
608 02-03-2015 01:29:17 8.5 C 71 %
609 02-03-2015 01:41:17 8.4 C 71 %
610 02-03-2015 01:53:17 8.5 C 71 %
611 02-03-2015 02:05:17 8.5 C 71 %
612 02-03-2015 02:17:17 8.5 C 71 %
613 02-03-2015 02:29:17 8.5 C 71 %
614 02-03-2015 02:41:17 8.5 C 71 %
615 02-03-2015 02:53:17 8.5 C 71 %
616 02-03-2015 03:05:17 8.5 C 71 %
617 02-03-2015 03:17:17 8.5 C 71 %
618 02-03-2015 03:29:17 8.5 C 71 %
619 02-03-2015 03:41:17 8.5 C 71 %
620 02-03-2015 03:53:18 8.5 C 71 %
621 02-03-2015 04:05:17 8.5 C 71 %
622 02-03-2015 04:17:17 8.5 C 71 %
623 02-03-2015 04:29:17 8.5 C 71 %
624 02-03-2015 04:41:17 8.5 C 71 %
625 02-03-2015 04:53:17 8.5 C 71 %
Sensor: Nr:Datum:Temp:Feuchte:
G-T/H 626 02-03-2015 05:05:17 8.5 C 71 %
627 02-03-2015 05:17:17 8.5 C 71 %
628 02-03-2015 05:29:17 8.5 C 71 %
629 02-03-2015 05:41:17 8.6 C 71 %
630 02-03-2015 05:53:17 8.6 C 71 %
631 02-03-2015 06:05:17 8.5 C 71 %
632 02-03-2015 06:17:17 8.6 C 71 %
633 02-03-2015 06:29:17 8.6 C 71 %
634 02-03-2015 06:41:17 8.5 C 71 %
635 02-03-2015 06:53:17 8.5 C 71 %
636 02-03-2015 07:05:17 8.5 C 71 %
637 02-03-2015 07:17:17 8.5 C 71 %
638 02-03-2015 07:29:17 8.5 C 71 %
639 02-03-2015 07:41:17 8.5 C 71 %
640 02-03-2015 07:53:17 8.5 C 71 %
641 02-03-2015 08:05:17 8.5 C 71 %
642 02-03-2015 08:17:17 8.5 C 71 %
643 02-03-2015 08:29:17 8.5 C 71 %
644 02-03-2015 08:41:17 8.5 C 71 %
645 02-03-2015 08:53:17 8.5 C 71 %
646 02-03-2015 09:05:17 8.5 C 71 %
647 02-03-2015 09:17:17 8.5 C 71 %
648 02-03-2015 09:29:17 8.5 C 71 %
649 02-03-2015 09:41:17 8.5 C 71 %
650 02-03-2015 09:53:17 8.5 C 71 %
Sensor: Nr:Datum:Temp:Feuchte:
G-T/H 651 02-03-2015 10:05:17 8.5 C 71 %
652 02-03-2015 10:17:17 8.5 C 71 %
653 02-03-2015 10:29:17 8.4 C 71 %
654 02-03-2015 10:41:17 8.5 C 71 %
655 02-03-2015 10:53:16 8.5 C 71 %
656 02-03-2015 11:05:17 8.5 C 71 %
657 02-03-2015 11:17:17 8.5 C 71 %
658 02-03-2015 11:29:17 8.5 C 71 %
659 02-03-2015 11:41:17 8.5 C 71 %
660 02-03-2015 11:53:16 8.4 C 71 %
661 02-03-2015 12:05:17 8.5 C 71 %
662 02-03-2015 12:17:17 8.5 C 71 %
663 02-03-2015 12:29:17 8.4 C 70 %
664 02-03-2015 12:41:17 8.4 C 69 %
665 02-03-2015 12:53:17 8.4 C 68 %
666 02-03-2015 13:05:17 8.4 C 68 %
667 02-03-2015 13:17:17 8.5 C 67 %
668 02-03-2015 13:29:17 8.5 C 67 %
669 02-03-2015 13:41:17 8.5 C 67 %
670 02-03-2015 13:53:17 8.5 C 66 %
671 02-03-2015 14:05:16 8.5 C 66 %
672 02-03-2015 14:17:17 8.5 C 66 %
673 02-03-2015 14:29:17 8.5 C 65 %
674 02-03-2015 14:41:17 8.5 C 65 %
675 02-03-2015 14:53:17 8.5 C 65 %
Sensor: Nr:Datum:Temp:Feuchte:
G-T/H 676 02-03-2015 15:05:17 8.5 C 64 %
677 02-03-2015 15:17:17 8.6 C 64 %
678 02-03-2015 15:29:17 8.6 C 63 %
679 02-03-2015 15:41:17 8.5 C 63 %
680 02-03-2015 15:53:17 8.6 C 63 %
681 02-03-2015 16:05:17 8.6 C 62 %
682 02-03-2015 16:17:17 8.6 C 62 %
683 02-03-2015 16:29:17 8.5 C 62 %
684 02-03-2015 16:41:17 8.5 C 63 %
685 02-03-2015 16:53:17 8.6 C 63 %
686 02-03-2015 17:05:17 8.6 C 64 %
687 02-03-2015 17:17:17 8.6 C 64 %
688 02-03-2015 17:29:17 8.6 C 65 %
689 02-03-2015 17:41:17 8.6 C 65 %
690 02-03-2015 17:53:17 8.5 C 65 %
691 02-03-2015 18:05:17 8.5 C 65 %
692 02-03-2015 18:17:17 8.4 C 65 %
693 02-03-2015 18:29:17 8.4 C 65 %
694 02-03-2015 18:41:17 8.5 C 66 %
695 02-03-2015 18:53:17 8.5 C 66 %
696 02-03-2015 19:05:17 8.5 C 66 %
697 02-03-2015 19:17:17 8.5 C 66 %
698 02-03-2015 19:29:17 8.5 C 66 %
699 02-03-2015 19:41:17 8.4 C 66 %
700 02-03-2015 19:53:17 8.2 C 66 %
Sensor: Nr:Datum:Temp:Feuchte:
G-T/H 701 02-03-2015 20:05:17 8.2 C 66 %
702 02-03-2015 20:17:17 8.1 C 65 %
703 02-03-2015 20:29:17 8 C 65 %
704 02-03-2015 20:41:17 8.1 C 65 %
705 02-03-2015 20:53:17 8.2 C 65 %
706 02-03-2015 21:05:17 8.2 C 65 %
707 02-03-2015 21:17:17 8.1 C 65 %
708 02-03-2015 21:29:17 8 C 65 %
709 02-03-2015 21:41:17 8 C 65 %
710 02-03-2015 21:53:17 8.1 C 65 %
711 02-03-2015 22:05:17 8.1 C 65 %
712 02-03-2015 22:17:17 8.1 C 66 %
713 02-03-2015 22:29:17 8.1 C 66 %
714 02-03-2015 22:41:17 8.1 C 66 %
715 02-03-2015 22:53:17 8.1 C 66 %
716 02-03-2015 23:05:17 8 C 66 %
717 02-03-2015 23:17:17 8 C 65 %
718 02-03-2015 23:29:17 7.9 C 66 %
719 02-03-2015 23:41:17 7.8 C 66 %
720 02-03-2015 23:53:17 7.7 C 65 %
721 03-03-2015 00:06:17 7.7 C 65 %
722 03-03-2015 00:18:17 7.6 C 65 %
723 03-03-2015 00:30:17 7.6 C 64 %
724 03-03-2015 00:42:17 7.6 C 64 %
725 03-03-2015 00:54:17 7.5 C 64 %
Sensor: Nr:Datum:Temp:Feuchte:
G-T/H 726 03-03-2015 01:06:17 7.5 C 64 %
727 03-03-2015 01:18:17 7.5 C 64 %
728 03-03-2015 01:30:17 7.4 C 63 %
729 03-03-2015 01:42:17 7.4 C 63 %
730 03-03-2015 01:54:17 7.4 C 63 %
731 03-03-2015 02:06:17 7.4 C 63 %
732 03-03-2015 02:18:17 7.4 C 63 %
733 03-03-2015 02:30:17 7.3 C 62 %
734 03-03-2015 02:42:17 7.3 C 62 %
735 03-03-2015 02:54:17 7.3 C 62 %
736 03-03-2015 03:06:18 7.2 C 62 %
737 03-03-2015 03:18:18 7.2 C 62 %
738 03-03-2015 03:30:18 7.2 C 62 %
739 03-03-2015 03:42:18 7.1 C 62 %
740 03-03-2015 03:54:18 7.1 C 62 %
741 03-03-2015 04:06:18 7.1 C 62 %
742 03-03-2015 04:18:18 7 C 62 %
743 03-03-2015 04:30:18 7 C 62 %
744 03-03-2015 04:42:18 7 C 62 %
745 03-03-2015 04:54:18 7 C 62 %
746 03-03-2015 05:06:18 7 C 62 %
747 03-03-2015 05:18:18 7 C 62 %
748 03-03-2015 05:30:18 7 C 62 %
749 03-03-2015 05:42:18 7 C 62 %
750 03-03-2015 05:54:18 7 C 62 %
Sensor: Nr:Datum:Temp:Feuchte:
G-T/H 751 03-03-2015 06:06:18 7 C 62 %
752 03-03-2015 06:18:18 7 C 62 %
753 03-03-2015 06:30:18 7 C 62 %
754 03-03-2015 06:42:18 7 C 63 %
755 03-03-2015 06:54:18 7 C 63 %
756 03-03-2015 07:06:18 7.1 C 64 %
757 03-03-2015 07:18:16 7.1 C 64 %
758 03-03-2015 07:30:16 7.1 C 64 %
759 03-03-2015 07:42:16 7.1 C 64 %
760 03-03-2015 07:54:16 7.1 C 64 %
761 03-03-2015 08:06:17 7.1 C 65 %
762 03-03-2015 08:18:17 7.1 C 65 %
763 03-03-2015 08:30:17 7 C 65 %
764 03-03-2015 08:42:17 7 C 65 %
765 03-03-2015 08:54:16 7 C 65 %
766 03-03-2015 09:06:16 7 C 65 %
767 03-03-2015 09:18:17 7.1 C 66 %
768 03-03-2015 09:30:17 7.1 C 66 %
769 03-03-2015 09:42:17 7.1 C 66 %
770 03-03-2015 09:54:17 7.1 C 66 %
771 03-03-2015 10:06:17 7.1 C 66 %
772 03-03-2015 10:18:16 7.1 C 66 %
773 03-03-2015 10:30:16 7.1 C 66 %
774 03-03-2015 10:42:16 7.1 C 66 %
775 03-03-2015 10:54:17 7.1 C 66 %
Sensor: Nr:Datum:Temp:Feuchte:
G-T/H 776 03-03-2015 11:06:17 7.1 C 66 %
777 03-03-2015 11:18:17 7.1 C 67 %
778 03-03-2015 11:30:16 7.2 C 67 %
779 03-03-2015 11:42:16 7.2 C 67 %
780 03-03-2015 11:54:17 7.2 C 67 %
781 03-03-2015 12:06:17 7.2 C 67 %
782 03-03-2015 12:18:16 7.2 C 67 %
783 03-03-2015 12:30:17 7.2 C 67 %
784 03-03-2015 12:42:17 7.3 C 67 %
785 03-03-2015 12:54:16 7.3 C 67 %
786 03-03-2015 13:06:17 7.3 C 67 %
787 03-03-2015 13:18:16 7.3 C 67 %
788 03-03-2015 13:30:17 7.3 C 67 %
789 03-03-2015 13:42:17 7.4 C 67 %
790 03-03-2015 13:54:17 7.4 C 67 %
791 03-03-2015 14:06:16 7.4 C 67 %
792 03-03-2015 14:18:16 7.4 C 67 %
793 03-03-2015 14:30:17 7.5 C 67 %
794 03-03-2015 14:42:17 7.5 C 67 %
795 03-03-2015 14:54:16 7.5 C 67 %
796 03-03-2015 15:06:17 7.6 C 68 %
797 03-03-2015 15:18:16 7.6 C 68 %
798 03-03-2015 15:30:16 7.6 C 68 %
799 03-03-2015 15:42:16 7.6 C 68 %
800 03-03-2015 15:54:16 7.7 C 68 %
Sensor: Nr:Datum:Temp:Feuchte:
G-T/H 801 03-03-2015 16:06:16 7.7 C 68 %
802 03-03-2015 16:18:17 7.7 C 68 %
803 03-03-2015 16:30:16 7.7 C 68 %
804 03-03-2015 16:42:16 7.8 C 68 %
805 03-03-2015 16:54:16 7.8 C 68 %
806 03-03-2015 17:06:16 7.8 C 68 %
807 03-03-2015 17:18:16 7.8 C 68 %
808 03-03-2015 17:30:16 7.9 C 68 %
809 03-03-2015 17:42:16 7.8 C 68 %
810 03-03-2015 17:54:16 7.9 C 68 %
811 03-03-2015 18:06:16 7.9 C 68 %
812 03-03-2015 18:18:16 7.9 C 68 %
813 03-03-2015 18:30:16 7.9 C 68 %
814 03-03-2015 18:42:16 7.9 C 68 %
815 03-03-2015 18:54:16 8 C 68 %
816 03-03-2015 19:06:16 8 C 68 %
817 03-03-2015 19:18:15 8 C 68 %
818 03-03-2015 19:30:16 8 C 68 %
819 03-03-2015 19:42:16 8 C 68 %
820 03-03-2015 19:54:16 8 C 68 %
821 03-03-2015 20:06:16 8 C 68 %
822 03-03-2015 20:18:16 8 C 68 %
823 03-03-2015 20:30:16 8 C 68 %
824 03-03-2015 20:42:16 8 C 68 %
825 03-03-2015 20:54:16 8 C 68 %
Sensor: Nr:Datum:Temp:Feuchte:
G-T/H 826 03-03-2015 21:06:16 8 C 68 %
827 03-03-2015 21:18:16 8 C 68 %
828 03-03-2015 21:30:16 8.1 C 68 %
829 03-03-2015 21:42:16 8.1 C 69 %
830 03-03-2015 21:54:16 8.1 C 69 %
831 03-03-2015 22:06:16 8 C 69 %
832 03-03-2015 22:18:16 8.1 C 69 %
833 03-03-2015 22:30:16 8.1 C 69 %
834 03-03-2015 22:42:16 8.1 C 69 %
835 03-03-2015 22:54:16 8 C 69 %
836 03-03-2015 23:06:15 8.1 C 69 %
837 03-03-2015 23:18:15 8.1 C 69 %
838 03-03-2015 23:30:16 8.1 C 69 %
839 03-03-2015 23:42:16 8.1 C 69 %
840 03-03-2015 23:54:15 8 C 69 %
841 04-03-2015 00:06:16 8 C 69 %
842 04-03-2015 00:18:16 8.1 C 69 %
843 04-03-2015 00:30:15 8.1 C 69 %
844 04-03-2015 00:42:15 8 C 69 %
845 04-03-2015 00:54:15 8 C 69 %
846 04-03-2015 01:06:16 8 C 69 %
847 04-03-2015 01:18:15 8 C 69 %
848 04-03-2015 01:30:16 8.1 C 69 %
849 04-03-2015 01:42:16 8 C 69 %
850 04-03-2015 01:54:16 8 C 69 %
Sensor: Nr:Datum:Temp:Feuchte:
G-T/H 851 04-03-2015 02:06:15 8 C 69 %
852 04-03-2015 02:18:16 8 C 69 %
853 04-03-2015 02:30:15 8 C 69 %
854 04-03-2015 02:42:15 8 C 69 %
855 04-03-2015 02:54:17 8 C 69 %
856 04-03-2015 03:06:17 8 C 69 %
857 04-03-2015 03:18:17 8 C 69 %
858 04-03-2015 03:30:17 7.9 C 70 %
859 04-03-2015 03:42:17 8 C 69 %
860 04-03-2015 03:54:17 7.9 C 70 %
861 04-03-2015 04:06:17 7.9 C 70 %
862 04-03-2015 04:18:17 7.9 C 70 %
863 04-03-2015 04:30:17 7.9 C 70 %
864 04-03-2015 04:42:17 7.9 C 70 %
865 04-03-2015 04:54:17 7.9 C 70 %
866 04-03-2015 05:06:17 7.9 C 70 %
867 04-03-2015 05:18:17 7.9 C 70 %
868 04-03-2015 05:30:17 7.9 C 69 %
869 04-03-2015 05:42:17 7.8 C 69 %
870 04-03-2015 05:54:17 7.8 C 69 %
871 04-03-2015 06:06:17 7.8 C 69 %
872 04-03-2015 06:18:17 7.8 C 69 %
873 04-03-2015 06:30:17 7.6 C 69 %
874 04-03-2015 06:42:17 7.5 C 68 %
875 04-03-2015 06:54:17 7.5 C 68 %
Sensor: Nr:Datum:Temp:Feuchte:
G-T/H 876 04-03-2015 07:06:17 7.4 C 67 %
877 04-03-2015 07:18:17 7.4 C 67 %
878 04-03-2015 07:30:17 7.3 C 66 %
879 04-03-2015 07:42:17 7.3 C 66 %
880 04-03-2015 07:54:17 7.2 C 66 %
881 04-03-2015 08:06:17 7.3 C 66 %
882 04-03-2015 08:18:17 7.4 C 66 %
883 04-03-2015 08:30:17 7.4 C 67 %
884 04-03-2015 08:42:17 7.4 C 67 %
885 04-03-2015 08:54:17 7.4 C 67 %
886 04-03-2015 09:06:17 7.4 C 67 %
887 04-03-2015 09:18:17 7.4 C 67 %
888 04-03-2015 09:30:17 7.4 C 68 %
889 04-03-2015 09:42:17 7.4 C 68 %
890 04-03-2015 09:54:17 7.4 C 68 %
891 04-03-2015 10:06:17 7.4 C 68 %
892 04-03-2015 10:18:17 7.4 C 68 %
893 04-03-2015 10:30:17 7.4 C 68 %
894 04-03-2015 10:42:17 7.4 C 68 %
895 04-03-2015 10:54:17 7.4 C 68 %
896 04-03-2015 11:06:17 7.4 C 68 %
897 04-03-2015 11:18:17 7.4 C 69 %
898 04-03-2015 11:30:17 7.4 C 69 %
899 04-03-2015 11:42:17 7.4 C 69 %
900 04-03-2015 11:54:17 7.4 C 69 %
Sensor: Nr:Datum:Temp:Feuchte:
G-T/H 901 04-03-2015 12:06:17 7.4 C 69 %
902 04-03-2015 12:18:17 7.4 C 69 %
903 04-03-2015 12:30:17 7.4 C 69 %
904 04-03-2015 12:42:17 7.4 C 69 %
905 04-03-2015 12:54:17 7.4 C 68 %
906 04-03-2015 13:06:17 7.4 C 68 %
907 04-03-2015 13:18:17 7.4 C 69 %
908 04-03-2015 13:30:17 7.4 C 69 %
909 04-03-2015 13:42:17 7.4 C 69 %
910 04-03-2015 13:54:17 7.4 C 69 %
911 04-03-2015 14:06:17 7.5 C 69 %
912 04-03-2015 14:18:17 7.5 C 69 %
913 04-03-2015 14:30:17 7.5 C 69 %
914 04-03-2015 14:42:17 7.5 C 69 %
915 04-03-2015 14:54:17 7.5 C 69 %
916 04-03-2015 15:06:17 7.5 C 69 %
917 04-03-2015 15:18:16 7.6 C 69 %
918 04-03-2015 15:30:17 7.5 C 68 %
919 04-03-2015 15:42:17 7.5 C 67 %
920 04-03-2015 15:54:17 7.5 C 66 %
921 04-03-2015 16:06:17 7.5 C 66 %
922 04-03-2015 16:18:17 7.5 C 65 %
923 04-03-2015 16:30:17 7.6 C 66 %
924 04-03-2015 16:42:17 7.6 C 66 %
925 04-03-2015 16:54:17 7.6 C 66 %
Sensor: Nr:Datum:Temp:Feuchte:
G-T/H 926 04-03-2015 17:06:17 7.6 C 67 %
927 04-03-2015 17:18:17 7.6 C 67 %
928 04-03-2015 17:30:17 7.7 C 67 %
929 04-03-2015 17:42:17 7.7 C 67 %
930 04-03-2015 17:54:17 7.7 C 68 %
931 04-03-2015 18:06:17 7.7 C 68 %
932 04-03-2015 18:18:17 7.7 C 68 %
933 04-03-2015 18:30:18 7.7 C 68 %
934 04-03-2015 18:42:18 7.7 C 68 %
935 04-03-2015 18:54:17 7.7 C 68 %
936 04-03-2015 19:06:17 7.7 C 68 %
937 04-03-2015 19:18:17 7.7 C 69 %
938 04-03-2015 19:30:17 7.7 C 69 %
939 04-03-2015 19:42:18 7.7 C 69 %
940 04-03-2015 19:54:17 7.7 C 69 %
941 04-03-2015 20:06:17 7.7 C 69 %
942 04-03-2015 20:18:17 7.7 C 69 %
943 04-03-2015 20:30:17 7.7 C 69 %
944 04-03-2015 20:42:17 7.7 C 69 %
945 04-03-2015 20:54:17 7.8 C 69 %
946 04-03-2015 21:06:17 7.7 C 69 %
947 04-03-2015 21:18:16 7.7 C 69 %
948 04-03-2015 21:30:17 7.7 C 69 %
949 04-03-2015 21:42:17 7.7 C 69 %
950 04-03-2015 21:54:17 7.7 C 69 %
Sensor: Nr:Datum:Temp:Feuchte:
G-T/H 951 04-03-2015 22:06:17 7.8 C 69 %
952 04-03-2015 22:18:17 7.7 C 69 %
953 04-03-2015 22:30:17 7.7 C 69 %
954 04-03-2015 22:42:17 7.7 C 69 %
955 04-03-2015 22:54:17 7.7 C 69 %
956 04-03-2015 23:06:17 7.7 C 69 %
957 04-03-2015 23:18:17 7.7 C 70 %
958 04-03-2015 23:30:17 7.7 C 70 %
959 04-03-2015 23:42:17 7.7 C 70 %
960 04-03-2015 23:54:17 7.7 C 70 %
961 05-03-2015 00:06:17 7.7 C 70 %
962 05-03-2015 00:18:17 7.7 C 70 %
963 05-03-2015 00:30:17 7.6 C 70 %
964 05-03-2015 00:42:17 7.6 C 70 %
965 05-03-2015 00:54:18 7.6 C 70 %
966 05-03-2015 01:06:17 7.6 C 70 %
967 05-03-2015 01:18:17 7.6 C 70 %
968 05-03-2015 01:30:17 7.6 C 70 %
969 05-03-2015 01:42:17 7.6 C 70 %
970 05-03-2015 01:54:17 7.6 C 70 %
971 05-03-2015 02:06:17 7.6 C 70 %
972 05-03-2015 02:18:17 7.6 C 70 %
973 05-03-2015 02:30:17 7.6 C 70 %
974 05-03-2015 02:42:17 7.6 C 70 %
975 05-03-2015 02:54:17 7.6 C 70 %
Sensor: Nr:Datum:Temp:Feuchte:
G-T/H 976 05-03-2015 03:06:17 7.6 C 70 %
977 05-03-2015 03:18:17 7.6 C 70 %
978 05-03-2015 03:30:17 7.6 C 70 %
979 05-03-2015 03:42:17 7.5 C 70 %
980 05-03-2015 03:54:17 7.6 C 70 %
981 05-03-2015 04:06:17 7.5 C 70 %
982 05-03-2015 04:18:17 7.5 C 70 %
983 05-03-2015 04:30:17 7.5 C 70 %
984 05-03-2015 04:42:17 7.5 C 70 %
985 05-03-2015 04:54:17 7.5 C 70 %
986 05-03-2015 05:06:17 7.5 C 70 %
987 05-03-2015 05:18:17 7.5 C 70 %
988 05-03-2015 05:30:18 7.5 C 70 %
989 05-03-2015 05:42:18 7.5 C 70 %
990 05-03-2015 05:54:17 7.5 C 70 %
991 05-03-2015 06:06:17 7.4 C 70 %
992 05-03-2015 06:18:17 7.4 C 70 %
993 05-03-2015 06:30:17 7.4 C 70 %
994 05-03-2015 06:42:17 7.4 C 70 %
995 05-03-2015 06:54:17 7.4 C 70 %
996 05-03-2015 07:06:18 7.4 C 70 %
997 05-03-2015 07:18:17 7.3 C 70 %
998 05-03-2015 07:30:17 7.3 C 70 %
999 05-03-2015 07:42:17 7.2 C 69 %
1000 05-03-2015 07:54:17 7.2 C 69 %
Sensor: Nr:Datum:Temp:Feuchte:
G-T/H 1001 05-03-2015 08:06:17 7.2 C 69 %
1002 05-03-2015 08:18:17 7.2 C 69 %
1003 05-03-2015 08:30:17 7.2 C 69 %
1004 05-03-2015 08:42:17 7.3 C 69 %
1005 05-03-2015 08:54:17 7.2 C 69 %
1006 05-03-2015 09:06:17 7.2 C 69 %
1007 05-03-2015 09:18:17 7.3 C 69 %
1008 05-03-2015 09:30:17 7.3 C 69 %
1009 05-03-2015 09:42:17 7.3 C 70 %
1010 05-03-2015 09:54:17 7.3 C 70 %
1011 05-03-2015 10:06:17 7.3 C 70 %
1012 05-03-2015 10:18:17 7.3 C 70 %
1013 05-03-2015 10:30:17 7.3 C 70 %
1014 05-03-2015 10:42:17 7.3 C 70 %
1015 05-03-2015 10:54:17 7.3 C 70 %
1016 05-03-2015 11:06:17 7.3 C 70 %
1017 05-03-2015 11:18:17 7.3 C 70 %
1018 05-03-2015 11:30:17 7.2 C 70 %
1019 05-03-2015 11:42:17 7.3 C 70 %
1020 05-03-2015 11:54:17 7.3 C 70 %
1021 05-03-2015 12:06:17 7.3 C 70 %
1022 05-03-2015 12:18:17 7.3 C 70 %
1023 05-03-2015 12:30:17 7.3 C 70 %
1024 05-03-2015 12:42:17 7.3 C 70 %
1025 05-03-2015 12:54:16 7.3 C 70 %
Sensor: Nr:Datum:Temp:Feuchte:
G-T/H 1026 05-03-2015 13:06:17 7.3 C 70 %
1027 05-03-2015 13:18:17 7.4 C 70 %
1028 05-03-2015 13:30:17 7.4 C 70 %
1029 05-03-2015 13:42:17 7.5 C 70 %
1030 05-03-2015 13:54:17 7.5 C 70 %
1031 05-03-2015 14:06:17 7.5 C 70 %
1032 05-03-2015 14:18:17 7.5 C 70 %
1033 05-03-2015 14:30:17 7.5 C 70 %
1034 05-03-2015 14:42:17 7.5 C 70 %
1035 05-03-2015 14:54:17 7.5 C 70 %
1036 05-03-2015 15:06:17 7.6 C 70 %
1037 05-03-2015 15:18:17 7.6 C 70 %
1038 05-03-2015 15:30:17 7.6 C 70 %
1039 05-03-2015 15:42:17 7.6 C 70 %
1040 05-03-2015 15:54:17 7.7 C 70 %
1041 05-03-2015 16:06:17 7.7 C 70 %
1042 05-03-2015 16:18:17 7.7 C 70 %
1043 05-03-2015 16:30:17 7.7 C 70 %
1044 05-03-2015 16:42:17 7.8 C 70 %
1045 05-03-2015 16:54:17 7.8 C 70 %
1046 05-03-2015 17:06:17 7.8 C 70 %
1047 05-03-2015 17:18:17 7.8 C 70 %
1048 05-03-2015 17:30:17 7.8 C 70 %
1049 05-03-2015 17:42:17 7.8 C 70 %
1050 05-03-2015 17:54:17 7.8 C 70 %
Sensor: Nr:Datum:Temp:Feuchte:
G-T/H 1051 05-03-2015 18:06:17 7.9 C 70 %
1052 05-03-2015 18:18:17 7.9 C 71 %
1053 05-03-2015 18:30:17 7.9 C 71 %
1054 05-03-2015 18:42:17 7.9 C 71 %
1055 05-03-2015 18:54:17 7.9 C 71 %
1056 05-03-2015 19:06:17 7.9 C 71 %
1057 05-03-2015 19:18:17 7.9 C 71 %
1058 05-03-2015 19:30:17 7.9 C 71 %
1059 05-03-2015 19:42:17 8 C 70 %
1060 05-03-2015 19:54:17 8 C 70 %
1061 05-03-2015 20:06:17 7.9 C 71 %
1062 05-03-2015 20:18:17 8 C 70 %
1063 05-03-2015 20:30:17 8 C 70 %
1064 05-03-2015 20:42:17 7.9 C 71 %
1065 05-03-2015 20:54:17 8 C 70 %
1066 05-03-2015 21:06:17 8 C 70 %
1067 05-03-2015 21:18:17 8 C 70 %
1068 05-03-2015 21:30:17 8 C 70 %
1069 05-03-2015 21:42:17 7.9 C 71 %
1070 05-03-2015 21:54:17 7.9 C 71 %
1071 05-03-2015 22:06:17 8 C 70 %
1072 05-03-2015 22:18:17 8 C 70 %
1073 05-03-2015 22:30:17 8 C 70 %
1074 05-03-2015 22:42:17 8 C 70 %
1075 05-03-2015 22:54:17 8 C 70 %
Sensor: Nr:Datum:Temp:Feuchte:
G-T/H 1076 05-03-2015 23:06:17 7.9 C 71 %
1077 05-03-2015 23:18:17 7.8 C 70 %
1078 05-03-2015 23:30:17 7.7 C 70 %
1079 05-03-2015 23:42:17 7.6 C 69 %
1080 05-03-2015 23:54:17 7.6 C 69 %
1081 06-03-2015 00:06:17 7.5 C 69 %
1082 06-03-2015 00:18:17 7.5 C 68 %
1083 06-03-2015 00:30:17 7.5 C 68 %
1084 06-03-2015 00:42:17 7.4 C 68 %
1085 06-03-2015 00:54:17 7.4 C 68 %
1086 06-03-2015 01:06:17 7.4 C 67 %
1087 06-03-2015 01:18:17 7.3 C 67 %
1088 06-03-2015 01:30:17 7.3 C 67 %
1089 06-03-2015 01:42:17 7.3 C 67 %
1090 06-03-2015 01:54:17 7.3 C 66 %
1091 06-03-2015 02:06:17 7.2 C 66 %
1092 06-03-2015 02:18:17 7.2 C 66 %
1093 06-03-2015 02:30:17 7.1 C 66 %
1094 06-03-2015 02:42:17 7.1 C 66 %
1095 06-03-2015 02:54:17 7.1 C 66 %
1096 06-03-2015 03:06:17 7.1 C 65 %
1097 06-03-2015 03:18:17 7.1 C 65 %
1098 06-03-2015 03:30:17 7 C 65 %
1099 06-03-2015 03:42:17 7 C 65 %
1100 06-03-2015 03:54:17 7 C 65 %
Sensor: Nr:Datum:Temp:Feuchte:
G-T/H 1101 06-03-2015 04:06:17 7 C 65 %
1102 06-03-2015 04:18:17 7 C 65 %
1103 06-03-2015 04:30:17 6.9 C 66 %
1104 06-03-2015 04:42:17 6.9 C 65 %
1105 06-03-2015 04:54:17 6.9 C 65 %
1106 06-03-2015 05:06:17 6.8 C 65 %
1107 06-03-2015 05:18:17 6.8 C 65 %
1108 06-03-2015 05:30:17 6.8 C 65 %
1109 06-03-2015 05:42:17 6.8 C 65 %
1110 06-03-2015 05:54:17 6.7 C 65 %
1111 06-03-2015 06:06:17 6.7 C 65 %
1112 06-03-2015 06:18:17 6.7 C 64 %
1113 06-03-2015 06:30:17 6.6 C 64 %
1114 06-03-2015 06:42:17 6.6 C 64 %
1115 06-03-2015 06:54:17 6.6 C 64 %
1116 06-03-2015 07:06:17 6.5 C 64 %
1117 06-03-2015 07:18:17 6.5 C 64 %
1118 06-03-2015 07:30:17 6.5 C 64 %
1119 06-03-2015 07:42:17 6.5 C 64 %
1120 06-03-2015 07:54:17 6.5 C 64 %
1121 06-03-2015 08:06:17 6.4 C 64 %
1122 06-03-2015 08:18:17 6.4 C 64 %
1123 06-03-2015 08:30:17 6.4 C 64 %
1124 06-03-2015 08:42:17 6.4 C 64 %
1125 06-03-2015 08:54:17 6.4 C 64 %
Sensor: Nr:Datum:Temp:Feuchte:
G-T/H 1126 06-03-2015 09:06:17 6.5 C 64 %
1127 06-03-2015 09:18:17 6.6 C 64 %
1128 06-03-2015 09:30:17 6.6 C 65 %
1129 06-03-2015 09:42:17 6.7 C 65 %
1130 06-03-2015 09:54:17 6.7 C 65 %
1131 06-03-2015 10:06:17 6.7 C 66 %
1132 06-03-2015 10:18:17 6.7 C 66 %
1133 06-03-2015 10:30:17 6.7 C 66 %
1134 06-03-2015 10:42:17 6.7 C 66 %
1135 06-03-2015 10:54:17 6.8 C 67 %
1136 06-03-2015 11:06:17 6.8 C 67 %
1137 06-03-2015 11:18:17 6.8 C 67 %
1138 06-03-2015 11:30:17 6.9 C 67 %
1139 06-03-2015 11:42:17 6.9 C 67 %
1140 06-03-2015 11:54:17 6.9 C 67 %
1141 06-03-2015 12:06:17 6.9 C 68 %
1142 06-03-2015 12:18:17 6.9 C 68 %
1143 06-03-2015 12:30:17 7 C 67 %
1144 06-03-2015 12:42:17 7 C 67 %
1145 06-03-2015 12:54:17 7 C 67 %
1146 06-03-2015 13:06:17 7 C 67 %
1147 06-03-2015 13:18:17 7 C 67 %
1148 06-03-2015 13:30:17 7.1 C 67 %
1149 06-03-2015 13:42:17 7.1 C 67 %
1150 06-03-2015 13:54:17 7.1 C 68 %
Sensor: Nr:Datum:Temp:Feuchte:
G-T/H 1151 06-03-2015 14:06:17 7.1 C 68 %
1152 06-03-2015 14:18:17 7.2 C 68 %
1153 06-03-2015 14:30:17 7.2 C 68 %
1154 06-03-2015 14:42:17 7.2 C 68 %
1155 06-03-2015 14:54:17 7.3 C 68 %
1156 06-03-2015 15:06:17 7.3 C 68 %
1157 06-03-2015 15:18:17 7.3 C 68 %
1158 06-03-2015 15:30:18 7.4 C 68 %
1159 06-03-2015 15:42:18 7.4 C 68 %
1160 06-03-2015 15:54:17 7.4 C 68 %
1161 06-03-2015 16:06:17 7.4 C 68 %
1162 06-03-2015 16:18:17 7.5 C 68 %
1163 06-03-2015 16:30:17 7.5 C 68 %
1164 06-03-2015 16:42:17 7.5 C 68 %
1165 06-03-2015 16:54:17 7.6 C 68 %
1166 06-03-2015 17:06:17 7.5 C 68 %
1167 06-03-2015 17:18:17 7.6 C 68 %
1168 06-03-2015 17:30:17 7.6 C 68 %
1169 06-03-2015 17:42:17 7.6 C 69 %
1170 06-03-2015 17:54:17 7.6 C 69 %
1171 06-03-2015 18:06:17 7.6 C 69 %
1172 06-03-2015 18:18:17 7.7 C 69 %
1173 06-03-2015 18:30:17 7.7 C 69 %
1174 06-03-2015 18:42:17 7.7 C 69 %
1175 06-03-2015 18:54:17 7.7 C 69 %
Sensor: Nr:Datum:Temp:Feuchte:
G-T/H 1176 06-03-2015 19:06:17 7.7 C 69 %
1177 06-03-2015 19:18:17 7.7 C 69 %
1178 06-03-2015 19:30:17 7.7 C 69 %
1179 06-03-2015 19:42:17 7.7 C 69 %
1180 06-03-2015 19:54:17 7.8 C 69 %
1181 06-03-2015 20:06:17 7.7 C 69 %
1182 06-03-2015 20:18:17 7.8 C 69 %
1183 06-03-2015 20:30:17 7.8 C 69 %
1184 06-03-2015 20:42:17 7.8 C 69 %
1185 06-03-2015 20:54:17 7.8 C 69 %
1186 06-03-2015 21:06:17 7.8 C 69 %
1187 06-03-2015 21:18:17 7.8 C 69 %
1188 06-03-2015 21:30:17 7.8 C 69 %
1189 06-03-2015 21:42:17 7.8 C 69 %
1190 06-03-2015 21:54:17 7.8 C 69 %
1191 06-03-2015 22:06:17 7.8 C 69 %
1192 06-03-2015 22:18:17 7.7 C 69 %
1193 06-03-2015 22:30:17 7.6 C 69 %
1194 06-03-2015 22:42:17 7.5 C 68 %
1195 06-03-2015 22:54:17 7.4 C 68 %
1196 06-03-2015 23:06:17 7.4 C 67 %
1197 06-03-2015 23:18:17 7.4 C 67 %
1198 06-03-2015 23:30:17 7.3 C 67 %
1199 06-03-2015 23:42:17 7.3 C 66 %
1200 06-03-2015 23:54:17 7.2 C 66 %
Sensor: Nr:Datum:Temp:Feuchte:
G-T/H 1201 07-03-2015 00:06:17 7.2 C 66 %
1202 07-03-2015 00:18:17 7.1 C 66 %
1203 07-03-2015 00:30:17 7.1 C 65 %
1204 07-03-2015 00:42:17 7.1 C 65 %
1205 07-03-2015 00:54:17 7.1 C 65 %
1206 07-03-2015 01:06:17 7 C 65 %
1207 07-03-2015 01:18:17 7 C 65 %
1208 07-03-2015 01:30:17 7 C 64 %
1209 07-03-2015 01:42:17 7 C 64 %
1210 07-03-2015 01:54:17 6.9 C 65 %
1211 07-03-2015 02:06:17 6.9 C 65 %
1212 07-03-2015 02:18:17 6.9 C 65 %
1213 07-03-2015 02:30:17 6.8 C 65 %
1214 07-03-2015 02:42:17 6.8 C 64 %
1215 07-03-2015 02:54:17 6.8 C 64 %
1216 07-03-2015 03:06:17 6.8 C 64 %
1217 07-03-2015 03:18:17 6.7 C 64 %
1218 07-03-2015 03:30:17 6.7 C 64 %
1219 07-03-2015 03:42:17 6.7 C 64 %
1220 07-03-2015 03:54:17 6.7 C 64 %
1221 07-03-2015 04:06:17 6.6 C 64 %
1222 07-03-2015 04:18:17 6.6 C 63 %
1223 07-03-2015 04:30:17 6.6 C 63 %
1224 07-03-2015 04:42:17 6.5 C 63 %
1225 07-03-2015 04:54:17 6.5 C 63 %
Sensor: Nr:Datum:Temp:Feuchte:
G-T/H 1226 07-03-2015 05:06:17 6.5 C 63 %
1227 07-03-2015 05:18:17 6.5 C 63 %
1228 07-03-2015 05:30:17 6.4 C 63 %
1229 07-03-2015 05:42:17 6.4 C 63 %
1230 07-03-2015 05:54:17 6.4 C 63 %
1231 07-03-2015 06:06:17 6.4 C 63 %
1232 07-03-2015 06:18:17 6.3 C 62 %
1233 07-03-2015 06:30:17 6.3 C 62 %
1234 07-03-2015 06:42:17 6.3 C 62 %
1235 07-03-2015 06:54:17 6.3 C 62 %
1236 07-03-2015 07:06:17 6.3 C 62 %
1237 07-03-2015 07:18:17 6.2 C 62 %
1238 07-03-2015 07:30:17 6.2 C 62 %
1239 07-03-2015 07:42:17 6.2 C 62 %
1240 07-03-2015 07:54:17 6.2 C 62 %
1241 07-03-2015 08:06:17 6.2 C 62 %
1242 07-03-2015 08:18:17 6.2 C 62 %
1243 07-03-2015 08:30:17 6.2 C 62 %
1244 07-03-2015 08:42:17 6.1 C 62 %
1245 07-03-2015 08:54:17 6.2 C 63 %
1246 07-03-2015 09:06:17 6.3 C 63 %
1247 07-03-2015 09:18:17 6.4 C 64 %
1248 07-03-2015 09:30:17 6.4 C 64 %
1249 07-03-2015 09:42:17 6.4 C 64 %
1250 07-03-2015 09:54:17 6.5 C 64 %
Sensor: Nr:Datum:Temp:Feuchte:
G-T/H 1251 07-03-2015 10:06:17 6.5 C 65 %
1252 07-03-2015 10:18:17 6.5 C 65 %
1253 07-03-2015 10:30:17 6.5 C 65 %
1254 07-03-2015 10:42:17 6.5 C 65 %
1255 07-03-2015 10:54:17 6.6 C 65 %
1256 07-03-2015 11:06:17 6.6 C 66 %
1257 07-03-2015 11:18:17 6.6 C 66 %
1258 07-03-2015 11:30:17 6.6 C 66 %
1259 07-03-2015 11:42:18 6.6 C 66 %
1260 07-03-2015 11:54:17 6.7 C 66 %
1261 07-03-2015 12:06:17 6.9 C 66 %
1262 07-03-2015 12:18:17 7 C 66 %
1263 07-03-2015 12:30:17 7 C 66 %
1264 07-03-2015 12:42:17 7 C 66 %
1265 07-03-2015 12:54:17 7.1 C 66 %
1266 07-03-2015 13:06:17 7 C 66 %
1267 07-03-2015 13:18:17 7 C 66 %
1268 07-03-2015 13:30:17 7.1 C 66 %
1269 07-03-2015 13:42:17 7.1 C 66 %
1270 07-03-2015 13:54:17 7.1 C 66 %
1271 07-03-2015 14:06:17 7.1 C 66 %
1272 07-03-2015 14:18:17 7.1 C 66 %
1273 07-03-2015 14:30:17 7.1 C 66 %
1274 07-03-2015 14:42:17 7.2 C 66 %
1275 07-03-2015 14:54:17 7.2 C 67 %
Sensor: Nr:Datum:Temp:Feuchte:
G-T/H 1276 07-03-2015 15:06:17 7.3 C 67 %
1277 07-03-2015 15:18:17 7.3 C 67 %
1278 07-03-2015 15:30:17 7.3 C 67 %
1279 07-03-2015 15:42:17 7.3 C 67 %
1280 07-03-2015 15:54:17 7.4 C 67 %
1281 07-03-2015 16:06:17 7.4 C 67 %
1282 07-03-2015 16:18:17 7.4 C 67 %
1283 07-03-2015 16:30:17 7.4 C 67 %
1284 07-03-2015 16:42:17 7.5 C 67 %
1285 07-03-2015 16:54:17 7.4 C 67 %
1286 07-03-2015 17:06:17 7.5 C 67 %
1287 07-03-2015 17:18:17 7.6 C 67 %
1288 07-03-2015 17:30:17 7.6 C 67 %
1289 07-03-2015 17:42:17 7.6 C 67 %
1290 07-03-2015 17:54:17 7.6 C 67 %
1291 07-03-2015 18:06:17 7.6 C 67 %
1292 07-03-2015 18:18:17 7.6 C 67 %
1293 07-03-2015 18:30:17 7.6 C 67 %
1294 07-03-2015 18:42:17 7.6 C 67 %
1295 07-03-2015 18:54:17 7.6 C 68 %
1296 07-03-2015 19:06:17 7.6 C 68 %
1297 07-03-2015 19:18:17 7.6 C 68 %
1298 07-03-2015 19:30:17 7.7 C 68 %
1299 07-03-2015 19:42:17 7.7 C 68 %
1300 07-03-2015 19:54:17 7.7 C 68 %
Sensor: Nr:Datum:Temp:Feuchte:
G-T/H 1301 07-03-2015 20:06:17 7.7 C 68 %
1302 07-03-2015 20:18:17 7.8 C 68 %
1303 07-03-2015 20:30:17 7.8 C 68 %
1304 07-03-2015 20:42:18 7.8 C 68 %
1305 07-03-2015 20:54:17 7.8 C 68 %
1306 07-03-2015 21:06:17 7.8 C 68 %
1307 07-03-2015 21:18:17 7.8 C 68 %
1308 07-03-2015 21:30:17 7.8 C 68 %
1309 07-03-2015 21:42:17 7.8 C 68 %
1310 07-03-2015 21:54:17 7.8 C 69 %
1311 07-03-2015 22:06:17 7.8 C 69 %
1312 07-03-2015 22:18:17 7.8 C 69 %
1313 07-03-2015 22:30:17 7.8 C 69 %
1314 07-03-2015 22:42:17 7.8 C 69 %
1315 07-03-2015 22:54:17 7.8 C 69 %
1316 07-03-2015 23:06:17 7.8 C 69 %
1317 07-03-2015 23:18:17 7.8 C 69 %
1318 07-03-2015 23:30:17 7.8 C 69 %
1319 07-03-2015 23:42:17 7.8 C 69 %
1320 07-03-2015 23:54:17 7.8 C 69 %
1321 08-03-2015 00:06:17 7.8 C 69 %
1322 08-03-2015 00:18:17 7.8 C 69 %
1323 08-03-2015 00:30:17 7.8 C 69 %
1324 08-03-2015 00:42:17 7.8 C 69 %